[[{"header":{"parameterUnit":"m.s-1","parameterCategory":1,"la1":30.6,"la2":29.2853,"lo1":-89.7004,"lo2":-87.6739,"dy":0.0162,"dx":0.0183,"nx":112,"ny":82,"refTime":"2023-07-16T00:00:00:Z","depth":0,"parameterNumber":2,"parameterNumberName":"U-component_of_WINDS"},"data":[0.0,0.0,0.0,0.0,0.0,0.0,0.0,0.0,0.0,0.0,0.0,0.0,0.0,0.0,0.0,0.0,0.0,0.0,0.0,0.0,0.0,0.0,0.0,0.0,0.0,0.0,0.0,0.0,0.0,0.0,0.0,0.0,0.0,0.0,0.0,0.0,0.0,0.0,0.0,0.0,0.0,0.0,0.0,0.0,0.0,0.0,0.0,0.0,0.0,0.0,0.0,0.0,0.0,0.0,0.0,0.0,0.0,0.0,0.0,0.0,0.0,0.0,0.0,0.0,0.0,0.0,0.0,0.0,0.0,0.0,0.0,0.0,0.0,0.0,0.0,0.0,0.0,0.0,0.0,0.0,0.0,0.0,0.0,0.0,0.0,0.0,0.0,0.0,0.0,0.0,0.0,-1.9721,-2.168,-2.292,-2.3024,-2.1538,-1.9932,-1.8384,0.0,0.0,0.0,0.0,0.0,0.0,0.0,0.0,0.0,0.0,0.0,0.0,0.0,0.0,0.0,0.0,0.0,0.0,0.0,0.0,0.0,0.0,0.0,0.0,0.0,0.0,0.0,0.0,0.0,0.0,0.0,0.0,0.0,0.0,0.0,0.0,0.0,0.0,0.0,0.0,0.0,0.0,0.0,0.0,0.0,0.0,0.0,0.0,0.0,0.0,0.0,0.0,0.0,0.0,0.0,0.0,0.0,0.0,0.0,0.0,0.0,0.0,0.0,0.0,0.0,0.0,0.0,0.0,0.0,0.0,0.0,0.0,0.0,0.0,0.0,0.0,0.0,0.0,0.0,0.0,0.0,0.0,0.0,0.0,0.0,0.0,0.0,0.0,0.0,0.0,0.0,0.0,0.0,0.0,0.0,0.0,0.0,0.0,0.0,0.0,0.0,0.0,0.0,0.0,-1.8338,-2.1832,-2.2518,-2.2984,-2.3605,-2.1722,-1.9854,-1.8312,0.0,0.0,0.0,0.0,0.0,0.0,0.0,0.0,0.0,0.0,0.0,0.0,0.0,0.0,0.0,0.0,0.0,0.0,0.0,0.0,0.0,0.0,0.0,0.0,0.0,0.0,0.0,0.0,0.0,0.0,0.0,0.0,0.0,0.0,0.0,0.0,0.0,0.0,0.0,0.0,0.0,0.0,0.0,0.0,0.0,0.0,0.0,0.0,0.0,0.0,0.0,0.0,0.0,0.0,0.0,0.0,0.0,0.0,0.0,0.0,0.0,0.0,0.0,0.0,0.0,0.0,0.0,0.0,0.0,0.0,0.0,0.0,0.0,0.0,0.0,0.0,0.0,0.0,0.0,0.0,0.0,0.0,0.0,0.0,0.0,0.0,0.0,0.0,0.0,0.0,0.0,0.0,0.0,0.0,0.0,0.0,0.0,0.0,0.0,0.0,0.0,0.0,0.0,-1.791,-1.9987,-2.2992,-2.294,-2.2992,-2.375,-2.1741,-1.9803,-1.8294,-1.6442,0.0,0.0,0.0,0.0,0.0,0.0,0.0,0.0,0.0,0.0,0.0,0.0,0.0,0.0,0.0,0.0,0.0,0.0,0.0,0.0,0.0,0.0,0.0,0.0,0.0,0.0,0.0,0.0,0.0,0.0,0.0,0.0,0.0,0.0,0.0,0.0,0.0,0.0,0.0,0.0,0.0,0.0,0.0,0.0,0.0,0.0,0.0,0.0,0.0,0.0,0.0,0.0,0.0,0.0,0.0,0.0,0.0,0.0,0.0,0.0,0.0,0.0,0.0,0.0,0.0,0.0,0.0,0.0,0.0,0.0,0.0,0.0,0.0,0.0,0.0,0.0,0.0,0.0,0.0,0.0,0.0,0.0,0.0,0.0,0.0,0.0,0.0,0.0,0.0,0.0,0.0,0.0,0.0,0.0,0.0,0.0,0.0,0.0,0.0,0.0,0.0,0.0,-1.9413,-2.1296,-2.3746,-2.3196,-2.3037,-2.398,-2.1799,-1.9746,-1.8286,-1.6058,0.0,0.0,0.0,0.0,0.0,0.0,0.0,0.0,0.0,0.0,0.0,0.0,0.0,0.0,0.0,0.0,0.0,0.0,0.0,0.0,0.0,0.0,0.0,0.0,0.0,0.0,0.0,0.0,0.0,0.0,0.0,0.0,0.0,0.0,0.0,0.0,0.0,0.0,0.0,0.0,0.0,0.0,0.0,0.0,0.0,0.0,0.0,0.0,0.0,0.0,0.0,0.0,0.0,0.0,0.0,0.0,0.0,0.0,0.0,0.0,0.0,0.0,0.0,0.0,0.0,0.0,0.0,0.0,0.0,0.0,0.0,0.0,0.0,0.0,0.0,0.0,0.0,0.0,0.0,0.0,0.0,0.0,0.0,0.0,0.0,0.0,0.0,0.0,0.0,0.0,0.0,0.0,0.0,0.0,0.0,0.0,0.0,0.0,0.0,0.0,0.0,0.0,-1.9303,-2.1349,-2.4323,-2.3352,-2.3137,-2.4682,-2.2043,-1.9705,-1.8286,-1.6056,0.0,0.0,0.0,0.0,0.0,0.0,0.0,0.0,0.0,0.0,0.0,0.0,0.0,0.0,0.0,0.0,0.0,0.0,0.0,0.0,0.0,0.0,0.0,0.0,0.0,0.0,0.0,0.0,0.0,0.0,0.0,0.0,0.0,0.0,0.0,0.0,0.0,0.0,0.0,0.0,0.0,0.0,0.0,0.0,0.0,0.0,0.0,0.0,0.0,0.0,0.0,0.0,0.0,0.0,0.0,0.0,0.0,0.0,0.0,0.0,0.0,0.0,0.0,0.0,0.0,0.0,0.0,0.0,0.0,0.0,0.0,0.0,0.0,0.0,0.0,0.0,0.0,0.0,0.0,0.0,0.0,0.0,0.0,0.0,0.0,0.0,0.0,0.0,0.0,0.0,0.0,0.0,0.0,0.0,0.0,0.0,0.0,0.0,0.0,0.0,0.0,0.0,-1.9261,-2.1178,0.0,-2.3098,-2.2925,-2.401,-2.1721,-1.9641,-1.8239,0.0,0.0,0.0,0.0,0.0,0.0,0.0,0.0,0.0,0.0,0.0,0.0,0.0,0.0,0.0,0.0,0.0,0.0,0.0,0.0,0.0,0.0,0.0,0.0,0.0,0.0,0.0,0.0,0.0,0.0,0.0,0.0,0.0,0.0,0.0,0.0,0.0,0.0,0.0,0.0,0.0,0.0,0.0,0.0,0.0,0.0,0.0,0.0,0.0,0.0,0.0,0.0,0.0,0.0,0.0,0.0,0.0,0.0,0.0,0.0,0.0,0.0,0.0,0.0,0.0,0.0,0.0,0.0,0.0,0.0,0.0,0.0,0.0,0.0,0.0,0.0,0.0,0.0,0.0,0.0,0.0,0.0,0.0,0.0,0.0,0.0,0.0,0.0,0.0,0.0,0.0,0.0,0.0,0.0,0.0,0.0,0.0,0.0,0.0,0.0,0.0,0.0,-1.7674,-1.9202,-2.1015,0.0,-2.2875,-2.2736,-2.3497,-2.1485,-1.9565,-1.8157,0.0,0.0,0.0,0.0,0.0,0.0,0.0,0.0,0.0,0.0,0.0,0.0,0.0,0.0,0.0,0.0,0.0,0.0,0.0,0.0,0.0,0.0,0.0,0.0,0.0,0.0,0.0,0.0,0.0,0.0,0.0,0.0,0.0,0.0,0.0,0.0,0.0,0.0,0.0,0.0,0.0,0.0,0.0,0.0,0.0,0.0,0.0,0.0,0.0,0.0,0.0,0.0,0.0,0.0,0.0,0.0,0.0,0.0,0.0,0.0,0.0,0.0,0.0,0.0,0.0,0.0,0.0,0.0,0.0,0.0,0.0,0.0,0.0,0.0,0.0,0.0,0.0,0.0,0.0,0.0,0.0,0.0,0.0,0.0,0.0,0.0,0.0,0.0,0.0,0.0,0.0,0.0,0.0,0.0,0.0,0.0,0.0,0.0,0.0,0.0,0.0,0.0,-1.7614,-1.9101,-2.0876,-2.3139,-2.275,-2.2626,-2.341,-2.1389,-1.9493,0.0,0.0,0.0,0.0,0.0,0.0,0.0,0.0,0.0,0.0,0.0,0.0,0.0,0.0,0.0,0.0,0.0,0.0,0.0,0.0,0.0,0.0,0.0,0.0,0.0,0.0,0.0,0.0,0.0,0.0,0.0,0.0,0.0,0.0,0.0,0.0,0.0,0.0,0.0,0.0,0.0,0.0,0.0,0.0,0.0,0.0,0.0,0.0,0.0,0.0,0.0,0.0,0.0,0.0,0.0,0.0,0.0,0.0,0.0,0.0,0.0,0.0,0.0,0.0,0.0,0.0,0.0,0.0,0.0,0.0,0.0,0.0,0.0,0.0,0.0,0.0,0.0,0.0,0.0,0.0,0.0,0.0,0.0,0.0,0.0,0.0,0.0,0.0,0.0,0.0,0.0,0.0,0.0,0.0,0.0,0.0,0.0,0.0,0.0,0.0,0.0,0.0,0.0,-1.7614,-1.9101,-2.066,-2.2446,-2.2431,-2.2395,-2.2626,-2.1038,-1.9438,-1.8019,0.0,0.0,0.0,0.0,0.0,0.0,0.0,0.0,0.0,0.0,0.0,0.0,0.0,0.0,0.0,0.0,0.0,0.0,0.0,0.0,0.0,0.0,0.0,0.0,0.0,0.0,0.0,0.0,0.0,0.0,0.0,0.0,0.0,0.0,0.0,0.0,0.0,0.0,0.0,0.0,0.0,0.0,0.0,0.0,0.0,0.0,0.0,0.0,0.0,0.0,0.0,0.0,0.0,0.0,0.0,0.0,0.0,0.0,0.0,0.0,0.0,0.0,0.0,0.0,0.0,0.0,0.0,0.0,0.0,0.0,0.0,0.0,0.0,0.0,0.0,0.0,0.0,0.0,0.0,0.0,0.0,0.0,0.0,0.0,0.0,0.0,0.0,0.0,0.0,0.0,0.0,0.0,0.0,0.0,0.0,0.0,0.0,0.0,0.0,0.0,0.0,0.0,-1.8014,-1.927,-2.0589,-2.2144,-2.2296,-2.2296,-2.2296,-2.0893,-1.9507,-1.837,0.0,0.0,0.0,0.0,0.0,0.0,0.0,0.0,0.0,0.0,0.0,0.0,0.0,0.0,0.0,0.0,0.0,0.0,0.0,0.0,0.0,0.0,0.0,0.0,0.0,0.0,0.0,0.0,0.0,0.0,0.0,0.0,0.0,0.0,0.0,0.0,0.0,0.0,0.0,0.0,0.0,0.0,0.0,0.0,0.0,0.0,0.0,0.0,0.0,0.0,0.0,0.0,0.0,0.0,0.0,0.0,0.0,0.0,0.0,0.0,0.0,0.0,0.0,0.0,0.0,0.0,0.0,0.0,0.0,0.0,0.0,0.0,0.0,0.0,0.0,0.0,0.0,0.0,0.0,0.0,0.0,0.0,0.0,0.0,0.0,0.0,0.0,0.0,0.0,0.0,0.0,0.0,0.0,0.0,0.0,0.0,0.0,0.0,0.0,0.0,0.0,0.0,-1.8623,-1.9541,-2.061,-2.2229,-2.233,-2.233,-2.2398,-2.0995,-1.9761,-1.8944,0.0,0.0,0.0,0.0,0.0,0.0,0.0,0.0,0.0,0.0,0.0,0.0,0.0,0.0,0.0,0.0,0.0,0.0,0.0,0.0,0.0,0.0,0.0,0.0,0.0,0.0,0.0,0.0,0.0,0.0,0.0,0.0,0.0,0.0,0.0,0.0,0.0,0.0,0.0,0.0,0.0,0.0,0.0,0.0,0.0,0.0,0.0,0.0,0.0,0.0,0.0,0.0,0.0,0.0,0.0,0.0,0.0,0.0,0.0,0.0,-1.8257,0.0,0.0,0.0,0.0,0.0,0.0,0.0,0.0,0.0,0.0,0.0,0.0,0.0,0.0,0.0,0.0,0.0,0.0,0.0,0.0,0.0,0.0,0.0,0.0,0.0,0.0,0.0,0.0,0.0,0.0,0.0,0.0,0.0,0.0,0.0,0.0,0.0,0.0,0.0,0.0,0.0,-1.8623,-1.9541,-2.0809,-2.2936,-2.2649,-2.2533,-2.3122,-2.18,-2.0361,-1.899,0.0,0.0,0.0,0.0,0.0,0.0,0.0,0.0,0.0,0.0,0.0,0.0,0.0,0.0,0.0,0.0,0.0,0.0,0.0,0.0,0.0,0.0,0.0,0.0,0.0,0.0,0.0,0.0,0.0,0.0,0.0,0.0,0.0,0.0,0.0,0.0,0.0,0.0,0.0,0.0,0.0,0.0,0.0,0.0,0.0,0.0,0.0,0.0,0.0,0.0,0.0,0.0,0.0,0.0,0.0,0.0,0.0,0.0,0.0,0.0,0.0,-1.9869,0.0,0.0,0.0,0.0,0.0,0.0,0.0,0.0,0.0,0.0,0.0,0.0,0.0,0.0,0.0,0.0,0.0,0.0,0.0,0.0,0.0,0.0,0.0,0.0,0.0,0.0,0.0,0.0,0.0,0.0,0.0,0.0,0.0,0.0,0.0,0.0,0.0,0.0,0.0,0.0,-1.9084,-1.998,-2.1157,-2.3055,-2.2647,-2.2558,-2.3298,-2.2026,-2.0699,-1.949,-1.8408,0.0,0.0,0.0,0.0,0.0,0.0,0.0,0.0,0.0,0.0,0.0,0.0,0.0,0.0,0.0,0.0,0.0,0.0,0.0,0.0,0.0,0.0,0.0,0.0,0.0,0.0,0.0,0.0,0.0,0.0,0.0,0.0,0.0,0.0,0.0,0.0,0.0,0.0,0.0,0.0,0.0,0.0,0.0,0.0,0.0,0.0,0.0,0.0,0.0,0.0,0.0,0.0,0.0,-2.4409,-2.5067,-2.5134,-2.6471,-2.7097,-2.6979,-2.4526,-2.2902,-2.1952,0.0,0.0,0.0,0.0,0.0,0.0,0.0,0.0,0.0,0.0,0.0,0.0,0.0,0.0,0.0,0.0,0.0,0.0,0.0,0.0,0.0,0.0,0.0,0.0,0.0,-2.1738,-2.1605,0.0,0.0,0.0,0.0,0.0,0.0,0.0,0.0,0.0,0.0,0.0,0.0,-1.9788,-2.0645,-2.1666,-2.3122,-2.2729,-2.2656,-2.3394,-2.2186,-2.1028,-2.0225,-1.892,-1.7231,0.0,0.0,0.0,0.0,0.0,0.0,0.0,0.0,0.0,0.0,0.0,0.0,0.0,0.0,0.0,0.0,0.0,0.0,0.0,0.0,0.0,0.0,0.0,0.0,0.0,0.0,0.0,0.0,0.0,0.0,0.0,0.0,-1.6431,-1.6625,0.0,0.0,0.0,0.0,0.0,0.0,0.0,0.0,0.0,0.0,0.0,0.0,0.0,0.0,-2.4647,-2.5362,-2.5831,-2.6034,-2.6876,-2.7298,-2.7401,-2.8281,-2.8705,-2.8688,-2.8299,0.0,-2.4932,-2.3644,0.0,0.0,0.0,0.0,0.0,0.0,0.0,0.0,0.0,0.0,0.0,0.0,0.0,0.0,0.0,0.0,0.0,0.0,0.0,0.0,0.0,0.0,-2.2601,-2.2686,-2.3236,-2.3619,0.0,-2.1052,-1.8985,-1.8352,0.0,0.0,0.0,0.0,0.0,0.0,0.0,0.0,-2.0478,-2.1401,-2.2421,-2.3908,-2.3421,-2.3271,-2.4024,-2.2843,-2.1709,-2.0918,-2.0136,-1.8985,-1.7356,-1.5284,0.0,0.0,0.0,0.0,0.0,0.0,0.0,0.0,0.0,0.0,0.0,0.0,0.0,0.0,0.0,0.0,0.0,0.0,0.0,0.0,0.0,0.0,0.0,0.0,0.0,0.0,0.0,0.0,0.0,-1.7131,-1.8297,-1.9178,-1.9904,-2.0306,0.0,0.0,0.0,0.0,0.0,0.0,0.0,0.0,0.0,-2.5956,-2.6304,-2.7052,-2.8272,-2.8605,-2.8848,-2.8984,-2.9722,-3.0113,-3.0246,-3.0566,-3.0777,-3.0804,-2.9973,-2.9059,-2.801,-2.6488,-2.5389,-2.4611,0.0,0.0,0.0,0.0,0.0,-2.4206,-2.4628,-2.478,0.0,0.0,0.0,0.0,0.0,0.0,0.0,0.0,0.0,0.0,0.0,0.0,0.0,-2.5427,-2.5957,-2.637,-2.5939,-2.4514,-2.2842,0.0,-2.0058,-1.9207,-1.8871,0.0,0.0,0.0,0.0,0.0,-2.0653,-2.1786,-2.2917,-2.3965,-2.3463,-2.3344,-2.4079,-2.2886,-2.1756,-2.0988,-2.0277,-1.9202,-1.7697,-1.5898,-1.4369,0.0,0.0,0.0,0.0,0.0,0.0,0.0,0.0,0.0,0.0,0.0,0.0,0.0,0.0,0.0,0.0,0.0,0.0,0.0,0.0,0.0,0.0,0.0,0.0,0.0,0.0,0.0,0.0,-1.9104,-2.0318,-2.1826,-2.2656,-2.3135,0.0,0.0,0.0,0.0,0.0,0.0,-2.5195,-2.6536,-2.7893,-2.9188,-2.9218,-2.9855,-3.1212,-3.1212,-3.1254,-3.1341,-3.1892,-3.2223,-3.2328,-3.237,-3.2433,-3.2469,-3.1407,-3.0852,-3.0531,-2.8804,-2.7469,-2.6471,-2.6471,-2.6116,-2.5726,-2.6268,-2.6471,-2.6556,-2.7097,-2.73,-2.7283,-2.7266,0.0,-2.5933,-2.516,0.0,0.0,0.0,0.0,-2.5079,-2.5827,-2.6804,-2.758,-2.758,-2.7995,-2.8243,-2.7696,-2.7149,-2.6104,0.0,-2.241,-2.1481,-2.1298,0.0,0.0,0.0,0.0,-2.105,-2.1232,-2.2543,-2.3669,-2.4216,-2.3668,-2.3483,-2.4032,-2.2794,-2.1735,-2.1186,-2.0284,-1.9282,-1.8179,-1.6536,-1.5048,-1.3754,0.0,0.0,0.0,0.0,0.0,0.0,0.0,0.0,0.0,0.0,0.0,0.0,0.0,0.0,0.0,0.0,0.0,0.0,0.0,0.0,0.0,0.0,0.0,0.0,0.0,0.0,0.0,0.0,0.0,-2.3982,-2.4841,0.0,0.0,0.0,0.0,-2.6095,-2.7459,-2.8237,-2.8196,-2.9516,-3.0638,-3.1416,-3.1432,-3.1818,-3.2586,-3.2602,-3.2663,-3.2785,-3.284,-3.2884,-3.2959,-3.3105,-3.3148,-3.3169,-3.3208,-3.2831,-3.2022,-2.9839,-2.8891,-2.8824,-2.8824,-2.8807,-2.8773,-2.8824,-2.8824,-2.884,-2.8874,-2.8874,-2.8856,-2.8747,-2.8115,-2.7271,-2.6516,-2.6197,0.0,0.0,-2.7156,-2.7317,-2.8044,-2.8293,-2.8343,-2.8343,-2.8376,-2.8392,-2.8343,-2.8326,-2.7647,0.0,-2.4365,-2.3603,-2.2907,0.0,-2.1696,-2.1696,-2.1729,-2.2011,-2.2692,-2.4083,-2.5011,-2.5044,-2.4398,-2.3951,-2.4,-2.2702,-2.1897,-2.1847,-2.05,-1.9671,-1.9588,-1.7517,-1.6,-1.522,-1.3774,0.0,0.0,0.0,0.0,0.0,0.0,0.0,0.0,0.0,0.0,0.0,0.0,0.0,0.0,0.0,0.0,0.0,0.0,0.0,0.0,0.0,0.0,0.0,0.0,0.0,0.0,0.0,0.0,-2.6976,-2.7778,0.0,0.0,-2.916,-2.9121,-2.9025,-2.9938,-3.0481,-3.046,-3.1835,-3.2961,-3.3707,-3.4187,-3.48,-3.5528,-3.5048,-3.4857,-3.488,-3.4423,-3.4236,-3.4334,-3.3913,-3.379,-3.3893,-3.3443,-3.3153,-3.2949,-3.2154,-3.0987,-2.9702,-2.9702,-2.9414,-2.9061,-2.9533,-3.0006,-3.0482,-3.0956,-3.1388,-3.1591,-3.0999,-3.0563,-3.0132,-2.9376,-2.9084,-2.9055,-2.9324,-2.937,-2.9417,-2.9682,-2.9748,-2.9748,-2.9748,-2.9748,-2.9748,-2.9748,-2.9383,-2.882,-2.8025,-2.6533,-2.5193,-2.4448,-2.3702,-2.3222,-2.3222,-2.3222,-2.3305,-2.357,-2.4481,-2.511,-2.511,-2.4862,-2.453,-2.405,-2.3104,-2.234,-2.1873,-2.045,-1.9641,-1.9641,-1.7548,-1.6055,-1.5309,-1.4311,-1.3209,0.0,0.0,0.0,0.0,0.0,0.0,0.0,0.0,0.0,0.0,0.0,0.0,0.0,0.0,0.0,0.0,0.0,0.0,0.0,0.0,0.0,0.0,0.0,0.0,0.0,0.0,-2.7257,-2.92,-3.0012,-3.0649,-3.1311,-3.1606,-3.1717,-3.162,-3.2525,-3.3071,-3.3071,-3.4253,-3.5131,-3.5628,-3.6125,-3.6622,-3.7102,-3.6622,-3.6373,-3.6357,-3.5628,-3.5328,-3.5367,-3.4698,-3.4464,-3.46,-3.4174,-3.3907,-3.3778,-3.3778,-3.2763,-3.1224,-3.1224,-3.092,-3.055,-3.1038,-3.1529,-3.2019,-3.2452,-3.2858,-3.3067,-3.2431,-3.2195,-3.2009,-3.1506,-3.1314,-3.1255,-3.1255,-3.1255,-3.1255,-3.1255,-3.1255,-3.1189,-3.0936,-3.087,-3.0803,-3.0555,-3.0125,-2.9694,-2.9446,-2.7876,-2.6419,-2.5922,-2.5027,-2.4381,-2.4381,-2.4381,-2.4381,-2.4381,-2.501,-2.5457,-2.5457,-2.5259,-2.4812,-2.4067,-2.3321,-2.2576,-2.1862,-2.0409,-1.9601,-1.9601,-1.7773,-1.642,-1.569,-1.495,-1.3963,-1.2729,0.0,0.0,0.0,0.0,0.0,0.0,0.0,0.0,0.0,0.0,0.0,0.0,0.0,0.0,0.0,0.0,0.0,0.0,0.0,0.0,0.0,0.0,0.0,-2.5631,-2.7372,-2.9201,-3.0671,-3.147,-3.2147,-3.2785,-3.3475,-3.3889,-3.3889,-3.523,-3.6025,-3.6025,-3.6738,-3.7135,-3.7135,-3.7168,-3.7168,-3.7168,-3.7152,-3.7135,-3.7135,-3.639,-3.6025,-3.5976,-3.5383,-3.5192,-3.5314,-3.5446,-3.5121,-3.4523,-3.4523,-3.4117,-3.3474,-3.3423,-3.3406,-3.3406,-3.3406,-3.3423,-3.3419,-3.3308,-3.3235,-3.3143,-3.3012,-3.2868,-3.2768,-3.2768,-3.2768,-3.2768,-3.2768,-3.2752,-3.2735,-3.2735,-3.2718,-3.2497,-3.178,-3.1598,-3.1399,-3.0654,-3.0506,-3.029,-2.9562,-2.831,-2.7315,-2.7298,-2.6087,-2.5143,-2.5143,-2.5143,0.0,-2.5143,-2.5755,-2.6202,-2.6202,-2.5574,-2.4829,-2.4067,-2.3338,-2.2609,-2.1862,-2.0409,-1.9601,-1.9601,-1.8253,-1.7138,-1.642,-1.5674,-1.495,-1.4225,0.0,0.0,0.0,0.0,0.0,0.0,0.0,0.0,0.0,0.0,0.0,0.0,0.0,0.0,0.0,0.0,0.0,0.0,0.0,0.0,0.0,0.0,-2.8503,-2.8544,-2.9451,-3.1058,-3.3589,-3.3964,-3.4525,-3.5777,-3.6075,-3.6191,-3.6191,-3.6572,-3.6804,-3.6804,-3.75,-3.7914,-3.7914,-3.8411,-3.8702,-3.8702,-3.8162,-3.7914,-3.7897,-3.7152,-3.6522,-3.5992,-3.5818,-3.558,-3.5291,-3.5337,-3.5317,-3.5295,-3.5295,-3.5177,-3.489,-3.3829,-3.3406,-3.3406,-3.3406,-3.3744,-3.4247,-3.46,-3.4711,-3.4666,-3.4436,-3.4326,-3.4286,-3.4286,-3.4286,-3.4286,-3.4286,-3.3905,-3.3491,-3.3491,-3.3094,-3.2497,-3.178,-3.1598,-3.1399,-3.0654,-3.0506,-3.0439,-3.0241,-2.9052,-2.7928,-2.7381,-2.6518,-2.5887,-2.5887,-2.5887,0.0,-2.5887,-2.607,-2.6202,-2.6202,-2.6003,-2.5374,-2.4116,-2.3818,-2.3156,0.0,-2.0409,-1.9601,-1.9601,-1.8253,-1.7138,-1.642,-1.5674,-1.5189,0.0,0.0,0.0,0.0,0.0,0.0,0.0,0.0,0.0,0.0,0.0,0.0,0.0,0.0,0.0,0.0,0.0,0.0,0.0,0.0,0.0,0.0,-2.9776,-3.1187,-3.1791,-3.2209,-3.3101,-3.4818,-3.5494,-3.6158,-3.7036,-3.7384,-3.7566,-3.7566,-3.7847,-3.8013,-3.8013,-3.8427,-3.8659,-3.8659,-3.9083,-3.9299,-3.9299,-3.8858,-3.8659,-3.8642,-3.7914,-3.735,-3.6903,-3.629,-3.5922,0.0,-3.5425,-3.5412,-3.56,-3.56,-3.56,0.0,0.0,0.0,0.0,0.0,-3.459,-3.4986,-3.5232,-3.5492,-3.5713,-3.5459,-3.5578,-3.5827,-3.5827,-3.5827,-3.576,-3.5446,-3.5048,-3.4651,-3.4336,-3.3938,-3.3359,-3.2315,-3.2067,-3.1763,-3.0721,-3.0506,-3.0506,-3.0506,0.0,0.0,-2.7829,-2.6882,-2.6202,-2.6202,-2.6202,-2.6202,-2.6202,-2.6202,-2.6202,-2.6202,-2.5921,-2.5259,-2.41,-2.3719,0.0,0.0,0.0,-1.9349,-1.8737,-1.7934,0.0,0.0,0.0,-1.6578,-1.6532,0.0,0.0,0.0,-1.5548,-1.5838,0.0,0.0,0.0,0.0,0.0,0.0,0.0,0.0,0.0,0.0,0.0,0.0,0.0,0.0,0.0,0.0,-3.2347,-3.3688,-3.4973,-3.5214,-3.5263,-3.5263,-3.6439,-3.7268,-3.735,-3.7947,-3.8328,-3.8328,-3.8924,-3.9299,-3.9299,0.0,0.0,0.0,0.0,-3.9299,-3.9299,-3.9299,-3.9299,-3.9299,-3.8642,-3.8295,-3.8179,-3.6854,-3.6355,-3.6496,-3.5767,-3.557,-3.5718,-3.5633,-3.56,-3.56,-3.56,-3.56,-3.56,-3.56,-3.56,-3.5577,-3.5383,0.0,0.0,-3.6082,-3.6506,-3.7102,-3.7102,-3.7102,-3.697,-3.6307,-3.6059,-3.5843,-3.5197,-3.4965,-3.4551,-3.3143,-3.2768,-3.2315,-3.0919,-3.0555,-3.0506,-3.0506,-2.9417,-2.8492,-2.8409,-2.7181,-2.6202,-2.6202,-2.6202,-2.6202,-2.6202,-2.6202,-2.6202,-2.6202,0.0,0.0,-2.4067,-2.3321,-2.2576,-2.1862,-2.0492,-1.9118,-1.7785,-1.7735,-1.7735,-1.7723,-1.8248,-1.8526,-1.8513,-1.9031,-1.9335,-1.937,-1.799,-1.7704,0.0,0.0,0.0,0.0,0.0,0.0,0.0,0.0,0.0,0.0,0.0,0.0,0.0,0.0,0.0,-3.3868,-3.4823,-3.5702,-3.6555,-3.7201,-3.7566,-3.7566,-3.7814,-3.8228,-3.8834,-3.9017,-3.91,-3.91,-3.9232,-3.9299,-3.9299,-3.9299,0.0,-3.9299,-3.9299,-3.9299,-3.9299,-3.9299,-3.9299,-3.9299,0.0,0.0,-3.8195,-3.8026,-3.7686,-3.7257,-3.6616,-3.6437,-3.6502,-3.5876,-3.56,-3.56,-3.56,-3.56,-3.56,-3.56,-3.56,-3.5577,-3.5383,-3.5777,-3.6365,-3.6082,-3.6506,-3.7102,-3.7102,-3.7102,0.0,-3.6936,-3.6456,-3.5976,-3.5827,-3.5346,-3.4667,-3.3789,-3.3127,-3.2448,-3.1581,-3.0919,-3.0506,-3.0506,-2.9794,-2.9036,-2.8492,-2.7181,-2.6202,-2.6202,-2.6202,-2.6202,-2.6202,-2.6202,-2.6202,-2.6202,-2.554,-2.4812,-2.4067,-2.3321,-2.2576,-2.1862,-2.0969,-2.0108,-1.9234,-1.92,-1.9174,-1.9111,-1.9229,-1.9241,-1.9132,-1.9235,-1.9583,-2.0093,-1.92,-1.9169,0.0,0.0,0.0,0.0,0.0,0.0,0.0,0.0,0.0,0.0,0.0,-3.11,0.0,0.0,-3.4804,-3.5827,-3.6622,-3.7235,-3.7615,-3.8295,-3.8609,-3.8245,-3.8526,-3.8891,-3.9265,-3.9299,-3.9299,-3.9299,-3.9299,-3.9299,-3.9299,-3.9299,-3.9299,-3.9299,-3.9299,-3.9299,-3.9299,-3.9299,-3.9299,-3.9299,-3.9352,-3.9196,-3.883,-3.862,-3.8363,-3.8102,-3.7436,-3.7017,-3.6745,-3.5943,-3.56,-3.56,-3.56,-3.56,-3.56,-3.56,-3.56,-3.5628,-3.578,-3.6322,-3.6959,-3.7062,-3.7599,-3.8195,-3.8195,-3.8195,-3.8112,-3.7765,-3.74,-3.6936,-3.6191,-3.5727,-3.5164,-3.4054,-3.3249,-3.2497,-3.1763,-3.1019,-3.0506,-3.0506,-2.9893,-2.9201,-2.8525,-2.7481,-2.6617,-2.6252,-2.6202,-2.6202,-2.6202,-2.6202,-2.6202,-2.6202,-2.5209,-2.4398,-2.4033,-2.299,-2.2029,-2.1298,-2.0901,-2.0373,-1.9634,-1.9601,-1.9587,-1.9547,-1.9841,-1.9982,-1.9894,-2.0166,-2.0659,-2.1341,-2.0969,-2.1,0.0,0.0,0.0,0.0,0.0,0.0,0.0,0.0,-3.0996,-3.2347,-3.2995,-3.3822,-3.5446,-3.6241,-3.692,-3.7798,-3.8444,-3.8791,-3.8659,-3.9123,-3.9249,-3.851,-3.895,-3.9299,-3.9299,-3.9299,-3.9299,-3.9299,-3.9431,-3.9514,-3.9514,-3.9647,-3.9713,-3.9713,-3.9757,-3.9783,-3.9783,-3.9794,-3.981,-3.9794,-3.9768,-3.9754,-3.9737,-3.9133,-3.8925,-3.8967,-3.8259,-3.759,-3.6965,-3.6293,-3.5955,-3.5819,-3.5819,-3.5735,-3.56,-3.56,-3.5701,-3.5898,-3.6266,-3.6974,-3.7761,-3.8091,-3.8692,-3.9299,-3.9299,-3.9299,-3.9183,-3.8576,-3.8328,-3.7947,-3.6738,-3.6224,-3.5694,-3.4502,-3.3541,-3.2696,-3.1962,-3.1234,-3.0671,-3.0522,-3.0009,-2.9417,-2.8704,-2.7995,-2.7216,-2.6336,-2.6202,-2.6202,-2.6202,-2.6202,-2.6202,-2.6202,-2.4878,-2.3884,-2.3603,-2.2492,-2.1547,-2.095,-2.0917,-2.0638,-2.0061,-2.0028,-2.0014,-2.0001,-2.0482,-2.077,-2.0903,-2.1306,-2.1892,-2.2604,-2.2604,-2.2604,-2.876,-2.8913,-2.9426,-3.0055,-3.1174,-3.2144,0.0,0.0,-3.4542,-3.537,-3.5578,-3.6274,-3.842,-3.8884,-3.9381,-4.0713,-4.0994,-4.0845,-4.026,-4.0227,-4.0011,-3.9265,-3.9249,-3.9299,-3.9299,-3.9299,-3.9299,-3.9299,-3.9912,-4.0293,-4.0293,-4.0845,-4.1177,-4.1177,-4.1333,-4.1433,-4.1433,-4.1554,-4.1619,-4.1592,-4.0956,-4.0638,-4.0648,-4.0042,-3.9741,-3.9732,-3.9117,-3.8447,-3.777,-3.7686,-3.7263,-3.6677,-3.6677,-3.6231,-3.56,-3.56,-3.6062,-3.6648,-3.6451,-3.7317,-3.8455,-3.8257,-3.8692,-3.9299,-3.9299,-3.9299,-3.9282,-3.9199,-3.8709,-3.8153,-3.8013,-3.6986,-3.5959,-3.5794,-3.4684,-3.3458,-3.2752,-3.2,-3.1283,-3.0621,-3.0423,-3.0141,-2.9397,-2.874,-2.7812,-2.6419,-2.6202,-2.6202,-2.6202,-2.6202,-2.6202,-2.6202,-2.4878,-2.347,-2.216,-2.1895,-2.1763,-2.168,-2.168,-2.1647,-2.1549,-2.1549,-2.152,-2.1462,-2.1469,-2.1738,-2.228,-2.2281,-2.2669,-2.3366,-2.3366,-2.3366,-3.1186,-3.1608,0.0,0.0,-3.3879,-3.5263,-3.5263,-3.639,-3.7674,-3.842,-3.8543,-3.8957,-4.0282,-4.0514,-4.0713,0.0,-4.1409,-4.1309,-4.1011,-4.0658,-4.0293,-3.9978,-3.9564,-3.9299,-3.9299,-3.9299,-3.9481,-3.9912,-4.0243,-4.0591,-4.0961,-4.1259,-4.1453,-4.1566,-4.1666,-4.1722,-4.1832,-4.1871,-4.1898,-4.1898,-4.1678,-4.1335,-4.0899,-4.0727,-4.0434,-3.9978,-3.9285,-3.8819,-3.8514,-3.8091,-3.7719,-3.7432,-3.7432,-3.7229,-3.6817,-3.5921,-3.6113,-3.684,-3.7066,-3.7785,-3.8648,-3.8876,-3.912,-3.9299,-3.9299,-3.9299,-3.9299,-3.9299,-3.9083,-3.8742,-3.8328,-3.7433,-3.6539,-3.6108,-3.4866,-3.3707,-3.3415,-3.2431,-3.1515,-3.1201,-3.0787,-3.0257,-2.9529,-2.9168,-2.8489,-2.7048,-2.6468,-2.6202,-2.6202,-2.6202,-2.6036,-2.5624,-2.463,-2.357,-2.2542,-2.2061,-2.1812,-2.1812,-2.1812,-2.1812,-2.1812,-2.1812,-2.1996,-2.2381,-2.2274,-2.2523,-2.321,-2.3093,-2.3399,-2.4079,-2.4079,-2.4322,-3.3301,0.0,0.0,-3.4965,-3.6522,-3.8013,-3.8013,-3.8974,-3.9995,-4.0343,-4.0409,-4.0558,-4.1028,-4.1127,0.0,-4.1375,-4.1562,-4.1612,-4.1413,-4.116,-4.0829,-4.0459,-3.9928,-3.9597,-3.9597,-3.9431,-3.9613,-4.0343,-4.0591,-4.0978,-4.1662,-4.1951,-4.2152,-4.2282,-4.2395,-4.2462,-4.2556,-4.2629,-4.2656,-4.2639,-4.2536,-4.2176,-4.1647,-4.1338,-4.0798,-4.0079,-3.9554,-3.9292,-3.9242,-3.8717,-3.8396,-3.821,-3.821,-3.8091,-3.777,-3.6648,-3.6738,-3.7466,-3.7862,-3.8413,-3.9017,-3.937,-3.9432,-3.9352,-3.9299,-3.9299,-3.9299,-3.9299,-3.9299,-3.9183,-3.8642,-3.7963,-3.7218,-3.6489,-3.533,-3.4286,-3.3889,-3.2796,-3.183,-3.1648,-3.1002,-3.0323,-2.9794,-2.9529,-2.9003,-2.7779,-2.6984,-2.6435,-2.6236,-2.6202,-2.5921,-2.5193,-2.463,-2.4,-2.3272,-2.2542,-2.2111,-2.2111,-2.2111,-2.2111,-2.2111,-2.2294,-2.2659,-2.3189,-2.3045,-2.3293,-2.3997,-2.3893,-2.4162,-2.479,-2.479,-2.5098,0.0,0.0,-3.7185,-3.7897,-3.9189,-4.031,-4.031,-4.0829,-4.116,-4.0542,-4.0409,-4.0409,-4.0442,-4.0442,-4.063,-4.1309,-4.1993,-4.2208,-4.1508,-4.1993,-4.1939,-4.0575,-4.0393,-4.0376,0.0,-3.973,-3.9613,-4.0343,-4.0994,-4.1707,-4.2423,-4.3327,-4.3831,-4.3831,-4.4088,-4.4226,-4.4243,-4.4401,-4.4502,-4.4502,-4.3713,-4.3341,-4.3274,-4.1863,-4.0798,-4.0096,-4.0079,-4.0079,-4.0062,-4.0045,-3.9622,-3.8954,-3.8954,-3.8531,-3.7905,-3.7855,-3.8311,-3.8913,-3.8798,-3.9236,-3.9816,-3.9563,-3.9501,-3.9475,-3.9325,-3.9299,-3.9299,-3.9299,-3.9299,-3.9299,-3.9265,-3.8709,-3.7996,-3.7251,-3.6489,-3.5545,-3.4104,-3.3216,-3.2448,-3.1747,-3.1002,-3.0489,-3.0472,-2.986,-2.9168,-2.8475,-2.7729,-2.7017,-2.6285,-2.6202,-2.5921,-2.5193,-2.5094,-2.4779,-2.4033,-2.3288,-2.2857,-2.2857,-2.2857,-2.2857,-2.2857,-2.3553,-2.3934,-2.3967,-2.3902,-2.4164,-2.4767,-2.4695,-2.4962,-2.5565,-2.5565,-2.5581,-3.6771,0.0,-3.8725,-3.9471,-4.0729,-4.1789,-4.1789,-4.1988,-4.2088,-4.1839,-4.1409,-4.1061,-4.1061,-4.1061,-4.1143,-4.1375,-4.1624,-4.1844,-4.2092,-4.191,-4.1789,-4.1789,-4.1359,0.0,0.0,0.0,0.0,-4.1707,-4.1993,-4.2514,-4.3377,-4.3735,-4.3969,-4.4155,-4.4253,-4.4367,-4.4514,-4.457,-4.4615,-4.4598,-4.3792,-4.3392,-4.3341,-4.188,-4.1068,-4.0798,-4.0316,-4.0096,-4.0096,-4.0096,-3.996,-3.974,-3.974,-3.9588,-3.9343,-3.9343,-3.9537,-3.9648,-3.9125,-3.9354,-3.9875,-3.9798,-3.9993,-4.0207,-4.018,-4.0414,-4.0597,-4.016,-4.0028,-3.9928,-3.9431,-3.8742,-3.8146,-3.7897,-3.6903,-3.586,-3.5363,-3.4286,-3.3193,-3.2464,-3.173,-3.1068,-3.0572,-3.029,-2.9748,-2.8575,-2.7365,-2.6485,-2.6219,-2.6202,-2.6103,-2.5854,-2.5391,-2.5011,-2.4762,-2.405,-2.3619,-2.3619,-2.3619,-2.3619,-2.3619,-2.3868,-2.4232,-2.4729,-2.4611,-2.4871,-2.552,-2.5413,-2.5433,-2.5597,-2.5597,-2.5597,-3.8344,-3.9686,-4.0878,-4.1094,-4.2237,-4.3164,-4.2605,-4.2489,-4.2274,-4.1508,-4.0978,-4.0498,-3.9967,-3.9841,-3.9967,-4.0205,-4.0481,-4.0994,-4.196,-4.1939,-4.196,-4.2423,-4.2059,0.0,0.0,0.0,0.0,-4.2423,-4.2489,-4.2908,-4.3864,-4.3956,-4.4068,-4.4293,-4.4367,-4.4468,-4.4615,-4.4615,-4.4615,-4.4598,-4.4079,-4.369,-4.3358,-4.2151,-4.1457,-4.117,-4.0434,-4.0096,-4.0096,-4.0096,-4.0096,-4.0096,-4.0096,-4.0096,-4.0096,-4.0096,-4.0096,-4.0028,-3.9571,-3.9648,-4.0011,-4.0229,-4.0503,-4.0769,-4.0927,-4.1244,-4.141,-4.0906,-4.0564,-4.0293,-3.9829,-3.9166,-3.8526,-3.8278,-3.7483,-3.6655,-3.6108,-3.5048,-3.3955,-3.3249,-3.2282,-3.1449,-3.0969,-3.0456,-2.9731,-2.8575,-2.7381,-2.6501,-2.6219,-2.6202,-2.6202,-2.6202,-2.5772,-2.549,-2.549,-2.4829,-2.4398,-2.4398,-2.4398,-2.4398,-2.4398,-2.4646,-2.5011,-2.5491,-2.5405,-2.5547,-2.5897,-2.5809,-2.5715,-2.5597,-2.5597,-2.5597,-3.9481,-4.1524,-4.3433,-4.2771,-4.3661,-4.4307,-4.285,-4.2423,-4.1806,-3.968,-3.9183,-3.8702,0.0,0.0,-3.7284,-3.7954,-3.8725,-3.9702,-4.111,-4.1972,-4.2456,0.0,0.0,0.0,0.0,0.0,0.0,-4.2585,0.0,-4.2941,-4.3864,-4.4027,-4.4184,-4.431,-4.4497,-4.4615,-4.4615,-4.4615,-4.4615,-4.4615,-4.4615,-4.4198,-4.3453,-4.2692,-4.1948,-4.1221,-4.0485,-4.013,-4.0096,-4.0096,-4.013,-4.0163,-4.0163,-4.018,-4.0214,-4.0214,-4.0214,-4.0214,-4.0214,-4.0197,-4.0257,-4.0871,-4.1088,-4.1204,-4.1627,-4.1794,-4.1766,-4.152,-4.0994,-4.0492,-4.0426,-3.9879,-3.9183,-3.8444,-3.8245,-3.7814,-3.6373,-3.5479,-3.4717,-3.3938,-3.2613,-3.1598,-3.1548,-3.0357,-2.9168,-2.8508,-2.7763,-2.7033,-2.6285,-2.6202,-2.6202,-2.6202,-2.6202,-2.6202,-2.6202,-2.5574,-2.5176,-2.5176,-2.5176,-2.5176,-2.5176,-2.5821,-2.6202,-2.6202,-2.6202,-2.6096,-2.5915,-2.5897,-2.5805,-2.5616,-2.5597,-2.5597,-4.1922,-4.3035,-4.3681,-4.4042,-4.4406,-4.4307,-4.285,-4.169,-4.0464,-3.8825,-3.7615,-3.6555,0.0,0.0,0.0,-3.6539,-3.7649,0.0,-3.973,-4.0895,0.0,-4.2423,0.0,-4.3317,-4.3317,-4.3317,0.0,0.0,-4.3539,-4.3681,-4.4039,-4.4184,-4.431,-4.4514,-4.457,-4.4615,-4.4615,-4.4615,-4.4615,-4.4615,-4.4615,-4.4496,-4.4265,-4.3487,-4.2726,-4.1965,-4.1238,-4.0595,-4.0096,-4.0096,-4.0409,-4.0916,-4.0916,-4.1255,-4.1728,-4.1728,-4.1728,-4.1728,-4.1728,-4.1373,-4.1035,-4.1753,-4.2271,-4.2623,-4.2657,-4.2996,-4.3186,-4.2431,-4.2092,-4.1723,-4.0691,-4.026,-3.9945,-3.9199,-3.8593,-3.7963,-3.7036,-3.6241,-3.5346,-3.4038,-3.2613,-3.1432,-3.0886,-3.0009,-2.9168,-2.8508,-2.7763,-2.7033,-2.6285,-2.6202,-2.6202,-2.6202,-2.6202,-2.6202,-2.6202,-2.602,-2.5921,-2.5921,-2.5921,-2.5921,-2.5921,-2.6103,-2.6202,-2.6202,-2.6202,-2.6132,-2.5956,-2.5917,-2.5826,-2.568,-2.5619,-2.5597,-4.3151,-4.4293,-4.5003,-4.4754,-4.4688,-4.4141,-4.2054,-4.0464,-3.8924,-3.7119,-3.5578,0.0,0.0,0.0,0.0,0.0,0.0,0.0,-3.9067,-4.0249,-4.1342,0.0,-4.3135,0.0,-4.3598,-4.388,-4.4168,0.0,-4.4081,-4.3969,-4.4184,-4.4253,-4.4395,-4.4598,-4.4615,-4.4615,-4.4615,-4.4615,-4.4615,-4.4615,-4.4615,-4.4615,-4.4581,-4.3775,-4.3156,-4.2743,0.0,-4.1441,-4.1077,-4.1077,-4.1305,-4.1677,-4.1677,-4.1931,-4.2286,-4.2286,-4.2286,-4.2337,-4.2675,-4.2523,-4.2236,-4.2658,-4.3,-4.3322,-4.3502,-4.3762,-4.3856,-4.3277,-4.2812,-4.2224,-4.1127,-4.0641,-4.021,-3.9481,-3.8974,-3.8394,-3.7334,-3.6771,-3.586,-3.3746,-3.2646,-3.1752,-3.0671,-3.0158,-2.9549,-2.8558,-2.8044,-2.7398,-2.6334,-2.6202,-2.6202,-2.6202,-2.6202,-2.6202,-2.6202,-2.6202,-2.6202,-2.6202,-2.6202,-2.6202,-2.6202,-2.6202,-2.6202,-2.6202,-2.6202,-2.6115,-2.5992,-2.5954,-2.5864,-2.5701,-2.5661,-2.5637,-4.383,-4.5301,-4.6444,-4.5152,-4.4688,-4.381,-4.1039,-3.9172,-3.7417,-3.5081,0.0,-3.215,-3.1317,0.0,-3.1747,-3.3143,0.0,-3.5711,-3.8486,-3.968,-4.0763,-4.2175,-4.3002,-4.3482,-4.3582,-4.4304,-4.4826,-4.5023,-4.454,-4.434,-4.4567,-4.4625,-4.4699,-4.4902,-4.4902,-4.4902,-4.4902,-4.4801,-4.475,-4.475,-4.4649,-4.4615,-4.4581,-4.3876,-4.3494,-4.3358,0.0,0.0,-4.2286,-4.2286,-4.2354,-4.2439,-4.2439,-4.2506,-4.2591,-4.2591,-4.2591,-4.2692,-4.3352,-4.3572,-4.3572,-4.3572,-4.3572,-4.3663,-4.4136,-4.4212,-4.4068,-4.3956,-4.3298,-4.244,-4.1612,-4.0961,-4.0326,-3.9497,-3.9299,-3.8934,-3.7549,-3.7102,-3.6141,-3.3398,-3.2768,-3.2249,-3.087,-3.0555,-3.0029,-2.8608,-2.8392,-2.7879,-2.6402,-2.6202,-2.6202,-2.6202,-2.6202,-2.6202,-2.6202,-2.6202,-2.6202,-2.6202,-2.6202,-2.6202,-2.6202,-2.6202,-2.6202,-2.6202,-2.6202,-2.615,-2.6026,-2.6026,-2.5901,-2.5719,-2.5719,-2.5661,-4.5086,-4.5698,-4.5914,-4.5665,-4.4705,-4.3214,-4.0912,-3.8791,0.0,0.0,0.0,-3.0493,-2.9185,-2.9417,0.0,-3.0919,0.0,0.0,0.0,0.0,-4.0028,0.0,0.0,0.0,0.0,0.0,0.0,0.0,0.0,0.0,-4.6127,-4.6262,-4.6367,-4.6413,-4.6413,-4.6413,-4.6413,-4.5805,-4.5517,-4.55,-4.4874,-4.4615,-4.4615,-4.4479,-4.4028,-4.3375,0.0,0.0,-4.2286,-4.2286,-4.2658,-4.3189,-4.3189,-4.3623,-4.4209,-4.4209,-4.4209,-4.4225,-4.4361,-4.4384,-4.4384,-4.4384,-4.4384,-4.4373,-4.4333,-4.4212,-4.4068,-4.3956,-4.3663,-4.3085,-4.1728,-4.1326,-4.0895,-3.9613,-3.9299,-3.9067,-3.8212,-3.7052,-3.5678,-3.3938,-3.3133,-3.2431,-3.1548,-3.0903,-3.0029,-2.8608,-2.8392,-2.7879,-2.6402,-2.6202,-2.6202,-2.6202,-2.6202,-2.6202,-2.6202,-2.6202,-2.6202,-2.6202,-2.6202,-2.6202,-2.6202,-2.6202,-2.6202,-2.6202,-2.6202,-2.6185,-2.6168,-2.6045,-2.5937,-2.5862,-2.5738,-2.5661,-4.492,-4.55,-4.5616,-4.4854,-4.3562,-4.1778,-3.9255,0.0,0.0,0.0,-2.9814,-2.8056,-2.7379,0.0,0.0,0.0,0.0,0.0,0.0,0.0,0.0,0.0,0.0,0.0,0.0,0.0,0.0,0.0,0.0,0.0,-4.6684,-4.6756,-4.6786,-4.6786,-4.6786,-4.6786,-4.6786,-4.6447,-4.6075,-4.5703,-4.5331,-4.4959,-4.4615,-4.4615,-4.4395,-4.4012,-4.4012,0.0,-4.3515,-4.3515,-4.369,-4.4012,-4.4012,-4.4248,-4.4615,-4.4615,-4.4615,-4.4615,-4.4615,-4.4615,-4.4615,-4.4615,-4.4615,-4.457,-4.4468,-4.4298,-4.4085,-4.4027,-4.3822,-4.3251,-4.1761,-4.1409,-4.1061,-3.963,-3.9017,-3.8526,-3.7798,-3.6771,-3.5562,-3.4087,-3.3216,-3.2464,-3.173,-3.0986,-3.0125,-2.9085,-2.8624,-2.8011,-2.6899,-2.6452,-2.6202,-2.6202,-2.6202,-2.6202,-2.6202,-2.6202,-2.6202,-2.6202,-2.6202,-2.6202,-2.6202,-2.6202,-2.6202,-2.6202,-2.6202,-2.6202,-2.6202,-2.615,-2.6043,-2.5897,-2.5844,-2.5733,-4.4257,-4.4986,-4.5251,-4.3913,-4.2373,-4.0481,-3.7731,-3.4816,0.0,0.0,-2.799,-2.6103,-2.5788,0.0,0.0,0.0,0.0,0.0,0.0,0.0,0.0,0.0,0.0,0.0,0.0,0.0,0.0,0.0,0.0,0.0,-4.7327,-4.7259,-4.7259,-4.7259,-4.7259,-4.7259,-4.7259,-4.7107,-4.6735,-4.6177,-4.5855,-4.5399,-4.4852,-4.4682,-4.4615,-4.4615,-4.4615,0.0,0.0,-4.4615,-4.4615,-4.4615,-4.4615,-4.4615,-4.4615,-4.4615,-4.4615,-4.4615,-4.4615,-4.4615,-4.4615,-4.4615,-4.4615,-4.4615,-4.4615,-4.44,-4.4126,-4.4097,-4.3777,-4.3127,-4.1756,-4.1309,-4.0878,-3.9613,-3.8858,-3.8195,-3.7301,-3.6655,-3.5794,-3.4319,-3.3292,-3.2514,-3.1951,-3.1085,-3.0241,-2.9496,-2.882,-2.8127,-2.7381,-2.6651,-2.6202,-2.6202,-2.6202,-2.6202,-2.6202,-2.6202,-2.6202,-2.6202,-2.6202,-2.6202,-2.6202,-2.6202,-2.6202,-2.6202,-2.6202,-2.6202,-2.6202,-2.6168,-2.6078,-2.5897,-2.5862,-2.5768,-4.3499,-4.4241,-4.4605,-4.378,-4.2038,-3.9912,-3.7632,0.0,0.0,-2.9155,-2.7313,-2.5788,-2.4448,-2.4199,-2.4696,0.0,0.0,-2.9602,0.0,0.0,0.0,0.0,0.0,0.0,0.0,0.0,0.0,0.0,0.0,0.0,0.0,-4.8798,-4.8798,-4.8798,-4.8798,-4.8798,-4.8798,-4.8139,-4.7753,-4.7669,-4.6346,-4.5669,-4.5585,-4.4919,-4.4615,-4.4615,0.0,0.0,0.0,-4.4615,-4.4615,-4.4615,-4.4615,-4.4615,-4.4615,-4.4615,-4.4615,-4.4615,-4.4615,-4.4615,-4.4615,-4.4615,-4.4615,-4.4615,-4.4615,-4.444,-4.4253,-4.4126,-4.3514,-4.2641,-4.1652,-4.0945,-4.0293,-3.9497,-3.9249,-3.8818,-3.74,-3.7052,-3.6572,-3.5081,-3.3657,-3.2685,-3.2619,-3.1437,-3.0241,-2.9496,-2.882,-2.8127,-2.7381,-2.6651,-2.6202,-2.6202,-2.6202,-2.6202,-2.6202,-2.6202,-2.6202,-2.6202,-2.6202,-2.6202,-2.6202,-2.6202,-2.6202,-2.6202,-2.6202,-2.6202,-2.6202,-2.6079,-2.5972,-2.5897,-2.5791,-2.5677,-4.1475,-4.2187,-4.2435,-4.1293,-3.9702,-3.7715,-3.5048,0.0,-3.0013,-2.7578,-2.5905,-2.4564,-2.3537,-2.3338,-2.3818,-2.5292,0.0,0.0,0.0,0.0,0.0,0.0,0.0,0.0,0.0,0.0,0.0,0.0,0.0,0.0,0.0,-4.9001,-4.9001,-4.9001,-4.9001,-4.9001,-4.9001,-4.8714,-4.8359,-4.7872,-4.6853,-4.6126,-4.5669,-4.4953,-4.4615,-4.4615,0.0,0.0,0.0,-4.4615,-4.4615,-4.4615,-4.4615,-4.4615,-4.4615,-4.4615,-4.4615,-4.4615,-4.4615,-4.4615,-4.4615,-4.4615,-4.4615,-4.4615,-4.4615,-4.4468,-4.418,-4.3602,-4.3113,-4.2487,-4.115,-4.0276,-3.9663,-3.9365,-3.9299,-3.8901,-3.7417,-3.7102,-3.6671,-3.5181,-3.4054,-3.3249,-3.2885,-3.1955,-3.1066,-3.0399,-2.9699,-2.8984,-2.8233,-2.7499,-2.6864,-2.643,-2.6257,-2.6202,-2.6202,-2.6202,-2.6202,-2.6202,-2.6202,-2.6202,-2.6202,-2.6202,-2.6202,-2.6202,-2.6202,-2.6202,-2.6202,-2.6063,-2.5972,-2.5897,-2.5772,-2.5661,-3.9206,-4.0083,-4.0448,-3.899,-3.7698,-3.6009,0.0,0.0,-2.8489,-2.6318,-2.4713,-2.3454,-2.2708,-2.2559,-2.3056,-2.453,0.0,-2.7793,0.0,0.0,0.0,0.0,0.0,0.0,0.0,0.0,0.0,0.0,0.0,0.0,0.0,-4.9001,-4.9001,-4.9001,-4.9001,-4.9001,-4.9001,-4.9001,-4.8748,-4.8193,-4.7259,-4.6532,-4.5991,-4.5055,-4.4615,-4.4615,0.0,0.0,0.0,-4.4615,-4.4615,-4.4615,-4.4615,-4.4733,-4.4919,-4.4682,-4.475,-4.4874,-4.4682,-4.4615,-4.4615,-4.4615,-4.4615,-4.4615,-4.4615,-4.4497,-4.4187,-4.3278,-4.2579,-4.1765,-4.0437,-3.9696,-3.9299,-3.9299,-3.9159,-3.8688,-3.7434,-3.7012,-3.6505,-3.5267,-3.4419,-3.3711,-3.3062,-3.235,-3.1642,-3.1009,-3.0272,-2.9599,-2.9099,-2.8178,-2.7408,-2.6888,-2.6496,-2.6274,-2.6222,-2.6203,-2.6202,-2.6202,-2.6202,-2.6202,-2.6202,-2.6202,-2.6202,-2.6202,-2.6202,-2.6168,-2.615,-2.6026,-2.5936,-2.5844,-2.5717,-2.5753,-3.6936,-3.8195,-3.8984,-3.75,-3.6572,-3.5247,0.0,0.0,-2.7779,-2.5574,-2.3934,-2.2691,-2.1961,-2.1812,-2.2293,-2.3768,-2.5259,0.0,0.0,0.0,0.0,0.0,0.0,0.0,0.0,0.0,0.0,0.0,0.0,0.0,0.0,-4.9001,-4.9001,-4.9001,-4.9001,-4.9001,-4.9001,-4.9001,-4.9001,-4.8968,-4.7496,-4.6786,-4.6735,-4.5275,-4.4615,0.0,0.0,0.0,0.0,-4.4615,-4.4615,-4.4615,-4.4615,-4.5043,-4.5602,-4.4886,-4.5043,-4.5585,-4.4869,-4.4615,-4.4615,-4.4615,-4.4615,-4.4615,-4.4615,-4.4615,-4.4361,-4.3306,-4.1761,-4.026,-3.9514,-3.9315,-3.9299,-3.9299,-3.884,-3.8202,-3.7444,-3.6827,-3.6195,-3.5442,-3.4688,-3.3974,-3.3232,-3.2479,-3.1746,-3.1009,-3.0272,-2.98,-2.9783,-2.8513,-2.7593,-2.7593,-2.6921,-2.6434,-2.6313,-2.624,-2.6202,-2.6202,-2.6202,-2.6202,-2.6202,-2.6202,-2.6202,-2.6202,-2.6202,-2.6115,-2.5992,-2.5936,-2.5844,-2.5701,-2.5621,-2.6005,-3.3889,-3.4783,-3.5321,-3.4336,-3.3541,-3.2227,-2.9317,0.0,-2.627,-2.405,-2.3222,-2.2675,-2.1945,-2.221,-2.2857,-2.3835,-2.5657,0.0,0.0,0.0,0.0,0.0,0.0,0.0,0.0,0.0,0.0,0.0,0.0,0.0,0.0,-4.9001,-4.9001,-4.9001,-4.9001,-4.9001,-4.9001,-4.8511,-4.8257,-4.824,-4.6752,-4.6058,-4.6024,-4.5055,0.0,0.0,0.0,0.0,0.0,-4.4615,-4.4919,-4.5348,-4.5348,-4.5805,-4.6413,-4.6177,-4.5923,-4.5669,-4.5432,-4.501,-4.4615,-4.4615,-4.4615,-4.4513,-4.3944,-4.3792,-4.3466,-4.2038,-4.0809,-3.9874,-3.964,-3.9573,-3.9573,-3.9573,-3.9048,-3.8338,-3.7602,-3.6891,-3.6195,-3.5442,-3.5107,-3.456,-3.3369,-3.2971,-3.2442,-3.1277,-3.0906,-3.0569,-3.008,-2.9591,-2.89,-2.7854,-2.7481,-2.7039,-2.6346,-2.6294,-2.6258,-2.6203,-2.6202,-2.6202,-2.6202,-2.6202,-2.6202,-2.6202,-2.6115,-2.6045,-2.5992,-2.5846,-2.5977,-2.6386,-2.6364,-2.6717,0.0,-3.1867,-3.2442,-3.1658,-3.0924,0.0,0.0,0.0,-2.4911,-2.3238,-2.2675,-2.2327,-2.1879,-2.2409,-2.3222,-2.4249,-2.6039,0.0,0.0,0.0,0.0,0.0,0.0,0.0,0.0,0.0,0.0,0.0,0.0,0.0,0.0,0.0,-4.8883,-4.8595,-4.8595,-4.8595,-4.8595,-4.7868,-4.7496,-4.7479,-4.6278,-4.5703,-4.5669,-4.4953,0.0,0.0,0.0,0.0,0.0,-4.4615,-4.5026,-4.5703,-4.5703,-4.6329,-4.7175,-4.6904,-4.6498,-4.6075,-4.5805,-4.5213,-4.4615,-4.4615,-4.4384,-4.3944,-4.2895,-4.252,-4.2281,-4.1283,-4.0378,-3.9703,-3.9703,-3.9703,-3.9703,-3.9703,-3.8958,-3.8128,-3.7658,-3.6793,-3.5944,-3.5513,-3.5412,-3.4964,-3.3532,-3.3279,-3.2816,-3.141,-3.119,-3.1021,-3.0581,-3.0277,-2.9717,-2.877,-2.8109,-2.7498,-2.6869,-2.6498,-2.6278,-2.624,-2.6203,-2.6202,-2.6202,-2.6202,-2.6202,-2.6202,-2.6115,-2.6026,-2.5954,-2.6031,-2.6289,-2.6701,-2.696,-2.7446,0.0,-2.919,0.0,0.0,0.0,0.0,0.0,0.0,0.0,-2.2973,-2.2293,-2.1829,-2.1879,-2.2492,-2.3454,-2.4944,-2.647,0.0,0.0,0.0,0.0,0.0,0.0,0.0,0.0,0.0,0.0,0.0,0.0,0.0,0.0,0.0,-4.8612,-4.7906,-4.7787,-4.7753,-4.7804,-4.709,-4.6718,-4.6701,-4.5974,-4.5618,-4.5602,-4.4891,0.0,0.0,0.0,0.0,0.0,-4.4615,-4.5026,-4.572,-4.5771,-4.6633,-4.7767,-4.7107,-4.6802,-4.6616,-4.594,-4.5213,-4.4598,-4.4547,-4.3961,-4.3064,-4.1644,-4.1109,-4.0987,-4.0937,-4.0354,-3.9729,-3.9729,-3.9729,-3.9713,-3.9662,-3.8648,-3.7704,-3.7653,-3.6561,-3.56,-3.56,-3.56,-3.5143,-3.3728,-3.344,-3.2916,-3.1478,-3.1224,-3.119,-3.119,-3.0598,-3.0176,-3.0125,-2.877,-2.7839,-2.7718,-2.6852,-2.6313,-2.6295,-2.624,-2.6202,-2.6202,-2.6202,-2.6202,-2.6202,-2.6185,-2.6112,-2.5981,-2.6477,-2.6769,-2.6882,-2.7494,-2.8174,-2.4203,0.0,-2.6443,-2.6242,-2.6023,-2.5491,0.0,0.0,0.0,0.0,0.0,0.0,0.0,-2.3238,-2.4216,-2.5689,0.0,0.0,0.0,0.0,0.0,0.0,0.0,0.0,0.0,0.0,0.0,0.0,0.0,0.0,0.0,0.0,-4.8075,-4.7889,-4.6819,-4.6498,-4.7056,-4.6329,-4.5957,-4.5957,-4.5196,-4.4869,-4.4869,-4.4682,0.0,0.0,0.0,0.0,-4.4615,-4.4615,-4.5026,-4.5771,-4.6312,-4.6752,-4.7107,-4.7513,-4.6938,-4.594,-4.5771,-4.5213,-4.4513,-4.3876,-4.3166,-4.2388,-4.1491,-4.1178,-4.1034,-4.0485,-4.0155,-4.0011,-4.0011,-4.0011,-3.986,-3.9302,-3.8492,-3.7706,-3.7138,-3.6276,-3.56,-3.56,-3.56,-3.5295,-3.4404,-3.3778,-3.3085,-3.2192,-3.1546,-3.119,-3.119,-3.1055,-3.0734,-3.0176,-2.9262,-2.8467,-2.7822,-2.6957,-2.6416,-2.6313,-2.624,-2.6202,-2.6202,-2.6202,-2.6202,-2.6202,-2.6097,-2.627,-2.6751,-2.6779,-2.7351,-2.8461,-2.8524,-2.894,-2.2234,-2.3565,-2.4812,-2.4713,-2.4414,-2.3933,-2.3089,0.0,0.0,0.0,0.0,0.0,0.0,0.0,0.0,0.0,0.0,0.0,0.0,0.0,0.0,0.0,0.0,0.0,0.0,0.0,0.0,0.0,0.0,0.0,0.0,0.0,-4.7584,-4.6891,-4.6126,-4.5889,-4.6295,-4.5551,-4.5196,-4.5179,-4.4801,-4.4615,-4.4615,-4.4615,0.0,0.0,0.0,0.0,-4.4615,-4.4615,-4.5026,-4.5737,-4.6143,-4.6498,-4.6836,-4.7259,-4.6684,-4.5703,-4.5703,-4.4976,-4.391,-4.3149,-4.2405,-4.166,-4.0916,-4.0696,-4.0595,-4.0214,-4.0096,-4.0096,-4.0096,-4.0096,-3.991,-3.9174,-3.8447,-3.7702,-3.6965,-3.6163,-3.56,-3.56,-3.56,-3.5363,-3.4624,-3.3897,-3.3152,-3.2412,-3.1684,-3.119,-3.119,-3.119,-3.1055,-3.0649,-2.9939,-2.9194,-2.8416,-2.7514,-2.6837,-2.6415,-2.6274,-2.6202,-2.6202,-2.6202,-2.6202,-2.6202,-2.6409,-2.6681,-2.7054,-2.7594,-2.827,-2.9037,-2.9258,-2.9572,-2.1113,-2.2509,-2.3885,-2.3945,-2.3464,-2.3016,-2.3055,0.0,0.0,0.0,0.0,0.0,0.0,0.0,0.0,0.0,0.0,0.0,0.0,0.0,0.0,0.0,0.0,0.0,0.0,0.0,0.0,0.0,0.0,0.0,0.0,0.0,0.0,-4.5737,-4.5602,-4.5534,-4.5534,-4.4891,-4.4615,-4.4615,-4.4615,-4.4615,-4.4615,-4.4615,-4.4615,0.0,0.0,0.0,-4.4542,-4.4514,-4.4902,-4.5464,-4.5595,-4.5949,-4.6406,-4.6553,-4.6131,-4.5505,-4.5534,-4.4604,-4.3274,-4.254,-4.1796,-4.1068,-4.0333,-4.0096,-4.0096,-4.0096,-4.0096,-4.0096,-4.0096,-4.0096,-3.9893,-3.9022,-3.8345,-3.7669,-3.6789,-3.6079,-3.56,-3.56,-3.56,-3.5397,-3.4776,-3.3964,-3.3186,-3.2564,-3.1752,-3.119,-3.119,-3.119,-3.119,-3.119,-3.0548,-2.9803,-2.9061,-2.8138,-2.7291,-2.6553,-2.631,-2.6202,-2.6202,-2.6202,-2.6252,-2.6369,-2.6873,-2.7248,-2.7443,-2.8578,-2.9177,-2.9309,-2.9804,-3.0038,-2.0696,-2.127,-2.1795,-2.2971,-2.3127,-2.315,-2.3702,-2.3867,0.0,0.0,0.0,0.0,0.0,0.0,0.0,0.0,0.0,0.0,0.0,0.0,0.0,0.0,0.0,0.0,0.0,0.0,0.0,0.0,0.0,0.0,0.0,0.0,0.0,-4.572,-4.5077,-4.4784,-4.4784,-4.4666,-4.4615,-4.4615,-4.4615,-4.4615,-4.4615,-4.4615,-4.4615,0.0,0.0,-4.4338,-4.4338,-4.4212,-4.4222,-4.439,-4.5039,-4.4955,-4.4603,-4.5336,-4.5159,-4.4535,-4.4711,-4.4164,-4.3274,-4.254,-4.1796,-4.1068,-4.0333,-4.0096,-4.0096,-4.0096,-4.0096,-4.0096,-4.0096,-4.0096,-3.9757,-3.8396,-3.799,-3.7516,-3.609,-3.5684,-3.56,-3.56,-3.56,-3.5566,-3.5447,-3.4298,-3.3372,-3.3254,-3.207,-3.119,-3.119,-3.119,-3.119,-3.119,-3.0548,-2.9803,-2.9061,-2.8138,-2.7291,-2.6553,-2.631,-2.6202,-2.6202,-2.6202,-2.6501,-2.7116,-2.7214,-2.7857,-2.9046,-2.9209,-2.9597,-3.021,-3.0182,-3.0167,-2.0056,-2.0659,-2.1429,-2.3209,-2.3313,-2.3282,-2.4398,-2.498,0.0,0.0,0.0,0.0,0.0,0.0,0.0,0.0,0.0,0.0,0.0,0.0,0.0,0.0,0.0,0.0,0.0,0.0,0.0,0.0,0.0,0.0,0.0,0.0,0.0,0.0,-4.4784,-4.4615,-4.4615,-4.4615,-4.4615,-4.4615,-4.4615,-4.4615,-4.4615,-4.4615,-4.4615,-4.4598,0.0,-4.431,-4.431,-4.4155,-4.4097,-4.4131,-4.4465,-4.4398,-4.4176,-4.4623,-4.4653,-4.4485,-4.457,-4.3792,-4.276,-4.2405,-4.1525,-4.0527,-4.0214,-4.0096,-4.0096,-4.0096,-4.0096,-4.0096,-4.0096,-3.9808,-3.9225,-3.8159,-3.7601,-3.6992,-3.5836,-3.56,-3.56,-3.56,-3.56,-3.56,-3.56,-3.4366,-3.3406,-3.3406,-3.2138,-3.119,-3.119,-3.119,-3.119,-3.119,-3.0903,-3.0395,-2.9651,-2.9134,-2.8129,-2.6445,-2.6239,-2.6202,-2.6202,-2.6584,-2.695,-2.7282,-2.8061,-2.8754,-2.9397,-2.977,-3.0129,-3.0443,-3.0338,-3.0312,-1.9503,-2.0204,-2.1208,-2.3499,0.0,-2.3697,-2.5346,-2.6198,0.0,0.0,0.0,0.0,0.0,0.0,0.0,0.0,0.0,0.0,0.0,0.0,0.0,0.0,0.0,0.0,0.0,0.0,0.0,0.0,0.0,0.0,0.0,0.0,0.0,0.0,-4.4615,-4.4615,-4.4615,-4.4615,-4.4615,-4.4615,-4.4615,-4.4615,-4.4615,-4.4615,-4.4615,-4.4598,-4.4395,-4.4281,-4.4253,-4.4097,-4.4027,-4.3981,-4.3981,-4.4039,-4.4126,-4.4253,-4.444,-4.4581,-4.4395,-4.342,-4.2252,-4.21,-4.1179,-4.0096,-4.0096,-4.0096,-4.0096,-4.0096,-3.9977,-3.9842,-3.9842,-3.9436,-3.8768,-3.7855,-3.7195,-3.6592,-3.5769,-3.56,-3.56,-3.56,-3.56,-3.56,-3.56,-3.4366,-3.3406,-3.3406,-3.2138,-3.119,-3.119,-3.119,-3.119,-3.119,-3.119,-3.0903,-3.0121,-2.9791,-2.8835,-2.6907,-2.6735,-2.6717,-2.6717,-2.7265,-2.763,-2.7796,-2.8853,-2.9479,-2.9645,-3.0208,-3.0506,-3.0506,-3.0443,-3.0422,-1.9247,-1.9647,-2.039,-2.3288,-2.4048,-2.4662,-2.6763,-2.7423,0.0,-2.945,0.0,0.0,0.0,0.0,0.0,0.0,0.0,0.0,0.0,0.0,0.0,0.0,0.0,0.0,0.0,0.0,0.0,0.0,0.0,0.0,0.0,0.0,0.0,0.0,0.0,-4.4615,-4.4615,-4.4615,-4.4615,-4.4615,-4.4615,-4.4615,-4.4615,-4.4615,-4.4615,-4.4598,-4.4395,-4.4224,-4.4097,-4.3969,-4.3793,-4.3628,-4.3628,-4.3835,-4.4126,-4.4253,-4.444,-4.4496,-4.3758,-4.298,-4.2185,-4.1508,-4.073,-4.0096,-4.0096,-4.0096,-4.0096,-4.0096,-3.9622,-3.9073,-3.9073,-3.9039,-3.8633,-3.7218,-3.6846,-3.6592,-3.5769,-3.56,-3.56,-3.56,-3.56,-3.56,-3.56,-3.4366,-3.3406,-3.3406,-3.2138,-3.119,-3.119,-3.119,-3.119,-3.119,-3.119,-3.0847,-2.9991,-2.9282,-2.8772,-2.8544,-2.8341,-2.8243,-2.8243,-2.8293,-2.8624,-2.9251,-2.9347,-2.9728,-3.0423,-3.0472,-3.0506,-3.0506,-3.0506,-3.0489,-1.9217,-1.9601,-2.0309,-2.3272,-2.448,0.0,0.0,-2.9022,-3.0061,-3.1165,-3.2016,0.0,0.0,0.0,0.0,0.0,0.0,0.0,0.0,0.0,0.0,0.0,0.0,0.0,0.0,0.0,0.0,0.0,0.0,0.0,0.0,0.0,0.0,0.0,0.0,-4.435,-4.3859,-4.3859,-4.3623,-4.3166,-4.3623,-4.3606,-4.3176,-4.3176,-4.3176,-4.3149,-4.2985,-4.3171,-4.3524,-4.3382,-4.358,-4.3923,-4.3923,-4.4039,-4.4174,-4.3777,-4.3721,-4.3741,-4.298,-4.2236,-4.1576,-4.1288,-4.0696,-4.0096,-4.0096,-4.0096,-4.0011,-3.9554,-3.9282,-3.9103,-3.9012,-3.8311,-3.7506,-3.6931,-3.6417,-3.5977,-3.5667,-3.56,-3.56,-3.56,-3.56,-3.56,-3.56,-3.4366,-3.3406,-3.3406,-3.2138,-3.119,-3.119,-3.119,-3.119,-3.119,-3.119,-3.1072,-3.0726,-3.0381,-3.0171,-3.0132,-2.9161,-2.8584,-2.8584,-2.9034,-2.9382,-2.9649,-3.0102,-3.0429,-3.063,-3.063,-3.0589,-3.0506,-3.0506,-3.0506,-1.9151,-1.978,-2.0591,-2.3321,0.0,0.0,-2.8615,-3.0087,-3.1483,-3.3034,-3.4134,0.0,0.0,0.0,0.0,0.0,0.0,0.0,0.0,0.0,0.0,0.0,0.0,0.0,0.0,0.0,0.0,0.0,0.0,0.0,0.0,0.0,0.0,0.0,0.0,0.0,-4.3491,-4.321,-4.2675,-4.1948,-4.2472,-4.2574,-4.2286,-4.2286,-4.2286,-4.2286,-4.2196,-4.2419,-4.2852,-4.2752,-4.2998,-4.3411,-4.3468,-4.3536,-4.3553,-4.3075,-4.2955,-4.2963,-4.2202,-4.1627,-4.117,-4.0933,-4.0493,-4.0096,-4.0096,-3.9943,-3.9656,-3.9189,-3.8788,-3.8462,-3.8398,-3.7628,-3.6751,-3.6491,-3.6011,-3.56,-3.56,-3.56,-3.56,-3.56,-3.56,-3.56,-3.56,-3.4573,-3.3677,-3.344,-3.2341,-3.1464,-3.1224,-3.119,-3.119,-3.119,-3.119,-3.119,-3.119,-3.1112,-3.1055,-3.1055,-3.0073,-2.946,-2.9401,-2.9886,-3.0154,-3.0154,-3.064,-3.0851,-3.0753,-3.0712,-3.0651,-3.0568,-3.0526,-3.0506,-1.9018,-2.0141,-2.1232,0.0,0.0,0.0,-2.947,-3.0549,-3.2053,-3.4991,0.0,0.0,0.0,0.0,0.0,0.0,0.0,0.0,0.0,0.0,0.0,0.0,0.0,0.0,0.0,0.0,0.0,0.0,0.0,0.0,0.0,0.0,0.0,0.0,0.0,0.0,-4.3671,-4.2756,-4.1914,-4.1187,-4.1187,-4.1576,-4.2269,-4.2269,-4.2269,-4.2269,-4.2269,-4.2206,-4.2088,-4.2088,-4.2024,-4.1904,-4.2051,-4.2105,-4.2132,-4.2233,-4.2286,-4.2168,-4.1457,-4.1187,-4.1068,-4.035,-4.0096,-4.0096,-4.0096,-3.9571,-3.9012,-3.9134,-3.8095,-3.6928,-3.7058,-3.6996,-3.6673,-3.5814,-3.56,-3.56,-3.56,-3.56,-3.56,-3.56,-3.56,-3.56,-3.56,-3.4996,-3.4252,-3.3508,-3.2763,-3.2039,-3.1275,-3.119,-3.119,-3.119,-3.119,-3.119,-3.119,-3.119,-3.119,-3.119,-3.119,-3.1112,-3.0912,-3.0892,-3.0892,-3.0892,-3.0892,-3.0892,-3.0892,-3.077,-3.0692,-3.0692,-3.0551,-3.0506,-1.9005,-2.0141,0.0,-2.41,0.0,0.0,0.0,-3.2083,0.0,0.0,0.0,0.0,0.0,0.0,0.0,0.0,0.0,0.0,0.0,0.0,0.0,0.0,0.0,0.0,0.0,0.0,0.0,0.0,0.0,0.0,0.0,0.0,0.0,0.0,0.0,0.0,-4.2864,-4.2081,-4.1239,-4.0434,-4.0434,-4.0553,-4.0756,-4.0756,-4.0756,-4.0756,-4.0756,-4.1009,-4.1497,-4.203,-4.2223,-4.2196,-4.2223,-4.225,-4.2182,-4.1685,-4.1525,-4.1424,-4.0663,-4.0434,-4.04,-4.018,-3.9757,-3.9326,-3.9326,-3.8802,-3.8149,-3.7708,-3.7325,-3.6939,-3.6454,-3.6295,-3.6183,-3.5824,-3.5667,-3.56,-3.56,-3.56,-3.56,-3.56,-3.56,-3.56,-3.56,-3.4996,-3.4252,-3.3508,-3.2763,-3.2039,-3.1275,-3.1232,-3.1274,-3.1274,-3.1274,-3.1274,-3.1274,-3.123,-3.119,-3.119,-3.119,-3.1171,-3.1112,-3.1112,-3.1112,-3.1112,-3.1112,-3.1072,-3.0955,-3.0935,-3.0834,-3.0692,-3.0651,-3.0589,-1.8897,-2.0329,0.0,-2.4448,-2.6474,-2.8665,-3.1804,0.0,0.0,0.0,0.0,0.0,0.0,0.0,0.0,0.0,0.0,0.0,0.0,0.0,0.0,0.0,0.0,0.0,0.0,0.0,0.0,0.0,0.0,0.0,0.0,0.0,0.0,0.0,0.0,0.0,-4.2142,-4.1376,-4.0679,-4.0096,-4.0096,-4.0096,-4.0096,-4.0096,-4.0096,-4.0096,-4.0096,-4.0367,-4.0798,-4.1221,-4.1433,-4.1433,-4.1433,-4.1433,-4.1382,-4.0916,-4.0747,-4.0696,-4.0265,-3.991,-3.9673,-3.9673,-3.9157,-3.8565,-3.8565,-3.8041,-3.7411,-3.7081,-3.6831,-3.6578,-3.6177,-3.6041,-3.5954,-3.5839,-3.5689,-3.56,-3.56,-3.56,-3.56,-3.56,-3.56,-3.56,-3.56,-3.5228,-3.4692,-3.3947,-3.3008,-3.2218,-3.1758,-3.1516,-3.1387,-3.1387,-3.1387,-3.1387,-3.1387,-3.1346,-3.1308,-3.1308,-3.1269,-3.1232,-3.1232,-3.121,-3.119,-3.119,-3.119,-3.1151,-3.1092,-3.1015,-3.0935,-3.0814,-3.0794,-3.0749,-1.8643,0.0,0.0,-2.4547,0.0,0.0,0.0,0.0,0.0,0.0,0.0,0.0,0.0,0.0,0.0,0.0,0.0,0.0,0.0,0.0,0.0,0.0,0.0,0.0,0.0,0.0,0.0,0.0,0.0,0.0,0.0,0.0,0.0,0.0,0.0,0.0,-4.1629,-4.0762,-4.0238,0.0,-4.0113,-4.0096,-4.0096,-4.0096,-4.0096,-4.0096,-4.0096,-4.0096,-4.0096,-4.0096,-4.0096,-4.0096,-4.0096,-4.0096,-4.0096,-4.0096,-4.0062,-4.0011,-4.0011,-3.9537,-3.8903,-3.8903,-3.8396,-3.7804,-3.7804,-3.728,-3.674,-3.6928,-3.65,-3.5997,-3.6144,-3.6079,-3.5954,-3.5839,-3.5689,-3.56,-3.56,-3.56,-3.56,-3.56,-3.56,-3.56,-3.56,-3.56,-3.5351,-3.4629,-3.3426,-3.257,-3.2519,-3.1988,-3.1585,-3.1517,-3.1517,-3.1551,-3.1602,-3.1619,-3.1634,-3.1703,-3.1592,-3.1536,-3.1536,-3.1317,-3.119,-3.119,-3.119,-3.119,-3.119,-3.1092,-3.1015,-3.0995,-3.0952,-3.0912,-1.805,-2.0229,0.0,0.0,0.0,0.0,0.0,0.0,0.0,0.0,0.0,0.0,0.0,0.0,0.0,0.0,0.0,0.0,0.0,0.0,0.0,0.0,0.0,0.0,0.0,0.0,0.0,0.0,0.0,0.0,0.0,0.0,0.0,0.0,0.0,-4.1894,-4.177,-4.0886,-4.0387,0.0,-4.0163,-4.0096,-4.0096,-4.0096,-4.0096,-4.0096,-4.0096,-4.0096,-4.0096,-4.0096,-4.0096,-4.0096,-4.0096,-4.0096,-4.0096,-4.0096,-3.974,-3.9225,-3.9225,-3.8751,-3.8142,-3.8142,-3.7635,-3.7049,-3.7049,-3.6485,-3.5898,-3.6033,-3.5958,-3.5883,-3.6014,-3.5932,-3.5839,-3.5795,-3.5689,-3.56,-3.56,-3.56,-3.56,-3.56,-3.56,-3.56,-3.56,-3.56,-3.5391,-3.4754,-3.393,-3.3169,-3.2653,-3.2549,-3.2282,-3.1646,-3.1578,-3.1836,-3.2471,-3.2427,-3.2644,-3.3259,-3.3294,-3.3256,-3.3256,-3.1936,-3.119,-3.119,-3.119,-3.119,-3.119,-3.1171,-3.1112,-3.0995,-3.0975,-3.0952,0.0,0.0,0.0,0.0,0.0,0.0,0.0,0.0,0.0,0.0,0.0,0.0,0.0,0.0,0.0,0.0,0.0,0.0,0.0,0.0,0.0,0.0,0.0,0.0,0.0,0.0,0.0,0.0,0.0,0.0,0.0,0.0,0.0,0.0,-4.1688,-4.1409,-4.1263,-4.0813,-4.0502,-4.0305,-4.0213,-4.0163,-4.0096,-4.0096,-4.0096,-4.0096,-4.0096,-4.0096,-4.0096,-4.0096,-4.0096,-4.0096,-4.0096,-4.0096,-4.0062,-3.9706,-3.9326,-3.8937,-3.8599,-3.799,-3.7364,-3.7364,-3.684,-3.6231,-3.6231,-3.5943,-3.5622,-3.5773,-3.5795,-3.5817,-3.5883,-3.5861,-3.5795,-3.5728,-3.5644,-3.56,-3.56,-3.56,-3.56,-3.56,-3.56,-3.56,-3.56,-3.5644,-3.5593,-3.5268,-3.4678,-3.4151,-3.3782,-3.3213,-3.2689,-3.2257,-3.2206,-3.2378,-3.281,-3.313,-3.3505,-3.3917,-3.3877,-3.3853,-3.3853,-3.2943,-3.2434,-3.2434,-3.2434,-3.2434,-3.2434,-3.2434,-3.2374,-3.2236,-3.2236,-3.2195,0.0,0.0,-2.1092,0.0,0.0,0.0,0.0,0.0,0.0,0.0,0.0,0.0,0.0,0.0,0.0,0.0,0.0,0.0,0.0,0.0,0.0,0.0,0.0,0.0,0.0,0.0,0.0,0.0,0.0,0.0,0.0,0.0,-4.0912,-4.0912,-4.0912,-4.084,-4.0745,-4.0697,-4.06,-4.0379,-4.033,-4.0213,-4.0096,-4.0096,-4.0096,-4.0096,-4.0096,-4.0096,-4.0096,-4.0096,-4.0096,-4.0096,-3.996,-3.991,-3.9825,-3.9073,-3.8717,-3.8531,-3.7922,-3.7212,-3.6586,-3.6586,-3.6146,-3.56,-3.56,-3.56,-3.5622,-3.5728,-3.5773,-3.5773,-3.5773,-3.5773,-3.5751,-3.5622,-3.5622,-3.5622,-3.56,-3.56,-3.56,-3.56,-3.56,-3.56,-3.5622,-3.5728,-3.5817,-3.5861,-3.5489,-3.5173,-3.5036,-3.4017,-3.3248,-3.3128,-3.311,-3.3162,-3.3283,-3.3904,-3.4355,-3.4476,-3.4375,-3.4297,-3.4297,-3.4271,-3.4247,-3.4247,-3.3949,-3.3809,-3.3809,-3.3809,-3.3731,-3.3632,-3.3632,-3.3569,0.0,0.0,0.0,0.0,0.0,0.0,0.0,0.0,0.0,0.0,0.0,0.0,0.0,0.0,0.0,0.0,0.0,0.0,0.0,0.0,0.0,0.0,0.0,0.0,0.0,0.0,0.0,0.0,0.0,0.0,0.0,-4.0912,-4.0912,-4.0912,-4.0912,-4.0888,-4.0871,-4.0769,-4.0673,-4.0648,-4.0404,-4.0213,-4.0096,-4.0096,-4.0096,-4.0096,-4.0096,-4.0096,-4.0096,-4.0096,-4.0096,-4.0045,-3.9394,-3.914,-3.9056,-3.8328,-3.7635,-3.7083,-3.6981,-3.6417,-3.5752,-3.5752,-3.5684,-3.56,-3.56,-3.56,-3.56,-3.5622,-3.5622,-3.5622,-3.5622,-3.5622,-3.5622,-3.56,-3.5706,-3.5751,-3.5622,-3.56,-3.56,-3.56,-3.56,-3.5644,-3.5751,-3.5795,-3.5883,-3.6101,-3.6079,-3.5813,-3.5263,-3.5007,-3.4645,-3.4007,-3.3941,-3.4217,-3.4835,-3.499,-3.5318,-3.5973,-3.6008,-3.5987,-3.5987,-3.5966,-3.5966,-3.5966,-3.4525,-3.3809,-3.3809,-3.3809,-3.3789,-3.3772,-3.3772,-3.3751,-1.4468,0.0,0.0,0.0,0.0,0.0,0.0,0.0,0.0,0.0,0.0,0.0,0.0,0.0,0.0,0.0,0.0,0.0,0.0,0.0,0.0,0.0,0.0,0.0,0.0,0.0,0.0,0.0,0.0,0.0,-3.9618,-3.9618,-3.9618,-3.9618,-4.0008,-4.0239,-4.0239,-4.0617,-4.0745,-4.0583,-4.0387,-4.0213,-4.0096,-3.9673,-3.9723,-4.0096,-4.0096,-3.9876,-3.9486,-3.9486,-3.9225,-3.8836,-3.8514,-3.8379,-3.8294,-3.755,-3.7083,-3.6745,-3.6282,-3.591,-3.56,-3.56,-3.56,-3.56,-3.56,-3.56,-3.5622,-3.5689,-3.5711,-3.5728,-3.58,-3.5822,-3.5822,-3.5822,-3.5866,-3.5905,-3.5844,-3.5822,-3.5822,-3.5822,-3.5822,-3.5844,-3.5888,-3.5971,-3.6058,-3.6182,-3.6229,-3.6155,-3.5852,-3.5517,-3.5195,-3.4866,-3.4874,-3.5015,-3.5344,-3.5778,-3.6177,-3.6506,-3.6523,-3.6523,-3.6523,-3.6523,-3.6523,-3.6523,-3.5659,-3.5191,-3.5191,-3.5191,-3.517,-3.5145,-3.5145,-3.5103,0.0,0.0,0.0,0.0,0.0,0.0,0.0,0.0,0.0,0.0,0.0,0.0,0.0,0.0,0.0,0.0,0.0,0.0,0.0,0.0,0.0,0.0,0.0,0.0,0.0,0.0,0.0,0.0,0.0,0.0,-3.8594,-3.8594,-3.8594,-3.8594,-3.9129,-3.9422,-3.9422,-4.0032,-4.0167,-3.9904,-3.9808,-3.9702,-3.9537,-3.8954,-3.9005,-3.9529,-3.9529,-3.9249,-3.8717,-3.8717,-3.8396,-3.7889,-3.7702,-3.7618,-3.7533,-3.6755,-3.6485,-3.64,-3.5847,-3.5644,-3.5667,-3.5689,-3.5711,-3.5711,-3.5711,-3.5711,-3.5711,-3.5839,-3.5861,-3.5866,-3.5975,-3.5997,-3.5997,-3.5997,-3.6019,-3.6041,-3.5997,-3.5997,-3.5997,-3.5997,-3.5997,-3.6019,-3.6041,-3.6122,-3.6225,-3.6229,-3.6276,-3.6322,-3.636,-3.5959,-3.5691,-3.5729,-3.5792,-3.5797,-3.5797,-3.6354,-3.6702,-3.6702,-3.6702,-3.6702,-3.6702,-3.6702,-3.6702,-3.6702,-3.6502,-3.6402,-3.6402,-3.6381,-3.6318,-3.6289,-3.6229,-3.617,0.0,0.0,0.0,0.0,0.0,0.0,0.0,0.0,0.0,0.0,0.0,0.0,0.0,0.0,0.0,0.0,0.0,0.0,0.0,0.0,0.0,0.0,0.0,0.0,0.0,0.0,0.0,0.0,0.0,0.0,-3.8594,-3.8594,-3.8594,-3.8594,-3.8629,-3.8646,-3.8646,-3.8703,-3.8602,-3.8333,-3.831,-3.821,-3.8024,-3.7973,-3.799,-3.8024,-3.8024,-3.799,-3.7973,-3.7973,-3.7939,-3.7838,-3.7134,-3.6863,-3.6761,-3.596,-3.565,-3.5673,-3.5768,-3.5795,-3.5817,-3.5932,-3.5975,-3.5975,-3.5975,-3.5975,-3.5975,-3.5997,-3.5997,-3.5997,-3.5997,-3.5997,-3.5997,-3.5997,-3.6101,-3.6144,-3.6019,-3.5997,-3.5997,-3.5997,-3.5997,-3.6041,-3.6182,-3.6204,-3.6208,-3.628,-3.6301,-3.636,-3.6464,-3.6468,-3.6492,-3.6612,-3.665,-3.6632,-3.6632,-3.6684,-3.6702,-3.6702,-3.6702,-3.6702,-3.6702,-3.6702,-3.6702,-3.6702,-3.6681,-3.6681,-3.6681,-3.6544,-3.6502,-3.6482,-3.636,-3.6301,0.0,0.0,0.0,0.0,0.0,0.0,0.0,0.0,0.0,0.0,0.0,0.0,0.0,0.0,0.0,0.0,0.0,0.0,0.0,0.0,0.0,0.0,0.0,0.0,0.0,0.0,0.0,0.0,0.0,0.0,-3.7111,-3.7111,-3.7111,-3.7111,-3.7611,-3.8134,-3.8594,-3.8594,-3.8482,-3.8213,-3.8213,-3.8091,-3.7889,-3.7398,-3.7178,-3.7161,-3.6654,-3.6721,-3.7178,-3.7178,-3.6891,-3.6394,-3.6146,-3.609,-3.6124,-3.583,-3.5778,-3.5866,-3.591,-3.5932,-3.5949,-3.5975,-3.5997,-3.5997,-3.5997,-3.5997,-3.6019,-3.6101,-3.6122,-3.6144,-3.6191,-3.6195,-3.6195,-3.6195,-3.6233,-3.6255,-3.6195,-3.6195,-3.6195,-3.6195,-3.6195,-3.6195,-3.6255,-3.6255,-3.6259,-3.6301,-3.6364,-3.6444,-3.6502,-3.6609,-3.6708,-3.6748,-3.6829,-3.6888,-3.6888,-3.6888,-3.6888,-3.6888,-3.6888,-3.6888,-3.6888,-3.6888,-3.6888,-3.6888,-3.6888,-3.6826,-3.6702,-3.6643,-3.6623,-3.6623,-3.6582,-3.6523,-1.087,0.0,0.0,0.0,0.0,0.0,0.0,0.0,0.0,0.0,0.0,0.0,0.0,0.0,0.0,0.0,0.0,0.0,0.0,0.0,0.0,0.0,0.0,0.0,0.0,0.0,0.0,0.0,0.0,0.0,-3.6025,-3.6025,-3.6125,-3.6364,-3.6839,-3.7318,-3.7818,-3.7818,-3.773,-3.7529,-3.7484,-3.7365,-3.7174,-3.6643,-3.64,-3.6366,-3.5819,-3.591,-3.64,-3.64,-3.6118,-3.5667,-3.5667,-3.5734,-3.5861,-3.5861,-3.591,-3.5997,-3.6041,-3.6079,-3.6062,-3.6105,-3.6105,-3.6105,-3.6105,-3.6105,-3.6127,-3.6208,-3.6229,-3.6233,-3.628,-3.6301,-3.6301,-3.6301,-3.6301,-3.6301,-3.6301,-3.6301,-3.6301,-3.6301,-3.6301,-3.6301,-3.6301,-3.6343,-3.6381,-3.6381,-3.6482,-3.6564,-3.6606,-3.6728,-3.6829,-3.6869,-3.6948,-3.7007,-3.7007,-3.7007,-3.7007,-3.7007,-3.7007,-3.7007,-3.7007,-3.7007,-3.7007,-3.7007,-3.7007,-3.6928,-3.6806,-3.6745,-3.6725,-3.6725,-3.6722,-3.6623,0.0,0.0,0.0,0.0,0.0,0.0,0.0,0.0,0.0,0.0,0.0,0.0,0.0,0.0,0.0,0.0,0.0,0.0,0.0,0.0,0.0,0.0,0.0,0.0,0.0,0.0,0.0,0.0,0.0,-3.5484,-3.5484,-3.5484,-3.5754,-3.6416,-3.6329,-3.6266,-3.6266,-3.6284,-3.6276,-3.6204,-3.6079,-3.5949,-3.5795,-3.5667,-3.5622,-3.5622,-3.5622,-3.5622,-3.5622,-3.56,-3.5689,-3.5795,-3.5795,-3.5883,-3.5997,-3.5997,-3.5997,-3.6019,-3.6144,-3.6187,-3.6208,-3.628,-3.6301,-3.6301,-3.6301,-3.6301,-3.6301,-3.6301,-3.6301,-3.6301,-3.6322,-3.6322,-3.6322,-3.6322,-3.6322,-3.6322,-3.6322,-3.6322,-3.6322,-3.6301,-3.6301,-3.6301,-3.6322,-3.6423,-3.6502,-3.6502,-3.6623,-3.6725,-3.6788,-3.6791,-3.6869,-3.6987,-3.7007,-3.7007,-3.7007,-3.7007,-3.7007,-3.7007,-3.7007,-3.7007,-3.7007,-3.7007,-3.7007,-3.7007,-3.7007,-3.7007,-3.7007,-3.6869,-3.6809,-3.6791,-3.6725,-3.6623,-1.1197,0.0,0.0,0.0,0.0,0.0,0.0,0.0,0.0,0.0,0.0,0.0,0.0,0.0,0.0,0.0,0.0,0.0,0.0,0.0,0.0,0.0,0.0,0.0,0.0,0.0,0.0,0.0,-3.4861,-3.4699,-3.4699,-3.4699,-3.4747,-3.4822,-3.5319,-3.5555,-3.549,-3.6025,-3.6276,-3.6204,-3.6144,-3.6079,-3.5932,-3.591,-3.5888,-3.5888,-3.5888,-3.5888,-3.5888,-3.5778,-3.5839,-3.5932,-3.5932,-3.6036,-3.6144,-3.6144,-3.6187,-3.6216,-3.6276,-3.6259,-3.6276,-3.6301,-3.6301,-3.6301,-3.6301,-3.6301,-3.6301,-3.6301,-3.6381,-3.6482,-3.6564,-3.6602,-3.6602,-3.6602,-3.6602,-3.6602,-3.6602,-3.6602,-3.6544,-3.6464,-3.6444,-3.6482,-3.6564,-3.6623,-3.6643,-3.6643,-3.6725,-3.6788,-3.6809,-3.6871,-3.6968,-3.7007,-3.7007,-3.7007,-3.7007,-3.7007,-3.7007,-3.7007,-3.7007,-3.7007,-3.7007,-3.7007,-3.7007,-3.7007,-3.7007,-3.7007,-3.7007,-3.695,-3.693,-3.6948,-3.6829,-3.6748,0.0,0.0,0.0,0.0,0.0,0.0,0.0,-1.6858,0.0,0.0,0.0,0.0,0.0,0.0,0.0,0.0,0.0,0.0,0.0,0.0,0.0,0.0,0.0,0.0,0.0,0.0,0.0,0.0,-3.4242,-3.403,-3.403,-3.401,-3.4093,-3.4316,-3.4653,-3.4973,-3.5224,-3.5632,-3.5987,-3.6251,-3.6208,-3.6144,-3.6079,-3.6019,-3.5997,-3.5997,-3.5997,-3.6019,-3.6079,-3.5993,-3.6014,-3.6062,-3.6062,-3.6165,-3.6233,-3.6233,-3.6297,-3.6364,-3.6364,-3.6423,-3.6482,-3.6482,-3.6482,-3.6482,-3.6482,-3.6482,-3.6482,-3.6482,-3.6523,-3.6602,-3.6681,-3.6702,-3.6702,-3.6702,-3.6702,-3.6702,-3.6702,-3.6702,-3.6681,-3.6602,-3.6564,-3.6602,-3.6681,-3.6725,-3.6745,-3.6745,-3.6829,-3.6891,-3.693,-3.6989,-3.7068,-3.7124,-3.7124,-3.7124,-3.7124,-3.7124,-3.7124,-3.7124,-3.7124,-3.7124,-3.7124,-3.7068,-3.7048,-3.7048,-3.7009,-3.7007,-3.7007,-3.7007,-3.7007,-3.7007,-3.6928,-3.6851,0.0,0.0,0.0,0.0,0.0,0.0,-1.4315,-1.584,-1.7272,0.0,0.0,0.0,0.0,0.0,0.0,0.0,0.0,0.0,0.0,0.0,0.0,0.0,0.0,0.0,0.0,0.0,-3.4179,-3.4179,-3.36,-3.3248,-3.3248,-3.3264,-3.3577,-3.4224,-3.414,-3.4441,-3.5186,-3.5189,-3.5559,-3.6301,-3.6251,-3.6208,-3.6208,-3.6084,-3.6041,-3.6041,-3.6041,-3.6084,-3.6208,-3.6208,-3.6208,-3.6208,-3.6208,-3.6251,-3.6301,-3.6322,-3.6402,-3.6502,-3.6523,-3.6602,-3.6702,-3.6702,-3.6702,-3.6702,-3.6702,-3.6702,-3.6702,-3.6722,-3.6722,-3.6705,-3.6742,-3.6725,-3.6725,-3.6725,-3.6725,-3.6725,-3.6725,-3.6725,-3.6725,-3.6725,-3.6722,-3.6722,-3.6742,-3.6768,-3.6811,-3.6831,-3.693,-3.7048,-3.7108,-3.7127,-3.7184,-3.7278,-3.7297,-3.7297,-3.7297,-3.7297,-3.7297,-3.7297,-3.7297,-3.7297,-3.7297,-3.7184,-3.7127,-3.7108,-3.7029,-3.7007,-3.7007,-3.7007,-3.7007,-3.7007,-3.7007,-3.6948,0.0,0.0,0.0,0.0,0.0,0.0,-1.5011,-1.5094,-1.521,0.0,0.0,0.0,0.0,0.0,0.0,0.0,0.0,0.0,0.0,0.0,0.0,0.0,0.0,0.0,0.0,0.0,-3.1001,-3.1001,-3.1405,-3.165,-3.165,-3.2248,-3.2617,-3.2651,-3.3117,-3.3718,-3.4406,-3.4947,-3.5559,-3.6301,-3.628,-3.628,-3.628,-3.6259,-3.6237,-3.6237,-3.6237,-3.6259,-3.628,-3.628,-3.628,-3.628,-3.628,-3.628,-3.6322,-3.6423,-3.6482,-3.6523,-3.6623,-3.6681,-3.6702,-3.6702,-3.6702,-3.6702,-3.6702,-3.6702,-3.6722,-3.6768,-3.6788,-3.6809,-3.6908,-3.6948,-3.6948,-3.6948,-3.6948,-3.6948,-3.6948,-3.6948,-3.6948,-3.6948,-3.6849,-3.6809,-3.6928,-3.6948,-3.697,-3.7031,-3.7069,-3.7108,-3.7259,-3.7259,-3.7278,-3.7297,-3.7297,-3.7297,-3.7297,-3.7297,-3.7297,-3.7297,-3.7297,-3.7297,-3.7297,-3.7278,-3.7203,-3.7108,-3.7029,-3.7007,-3.7007,-3.7007,-3.7007,-3.7007,-3.7007,-3.6987,0.0,0.0,0.0,-1.5398,0.0,0.0,0.0,-1.5213,-1.51,0.0,0.0,0.0,0.0,0.0,0.0,0.0,0.0,0.0,0.0,0.0,0.0,0.0,0.0,0.0,0.0,0.0,-2.9667,-3.0071,-3.044,-3.065,-3.065,-3.137,-3.1774,-3.1706,-3.2336,-3.3012,-3.3685,-3.4369,-3.5051,-3.5749,-3.6111,-3.6301,-3.6301,-3.6301,-3.6301,-3.6301,-3.6301,-3.6301,-3.6301,-3.6301,-3.6301,-3.6301,-3.6301,-3.6301,-3.6322,-3.6444,-3.6544,-3.6623,-3.6725,-3.6788,-3.6846,-3.6846,-3.6846,-3.6846,-3.6846,-3.6846,-3.6866,-3.6888,-3.6908,-3.6928,-3.697,-3.7007,-3.7007,-3.7007,-3.7007,-3.7007,-3.7007,-3.7029,-3.7048,-3.7048,-3.7048,-3.7066,-3.7048,-3.7048,-3.7069,-3.7184,-3.7203,-3.7241,-3.7353,-3.7336,-3.7391,-3.7447,-3.7447,-3.7447,-3.7447,-3.7447,-3.7625,-3.8033,-3.8051,-3.8211,-3.8584,-3.8544,-3.8486,-3.8353,-3.8294,-3.8289,-3.8247,-3.8247,-3.7822,-3.7007,-3.7007,-3.7007,0.0,0.0,0.0,0.0,0.0,-1.5711,0.0,0.0,0.0,-1.5426,0.0,0.0,0.0,0.0,0.0,0.0,0.0,0.0,0.0,0.0,0.0,0.0,0.0,0.0,0.0,0.0,-2.8509,-2.9158,-2.9336,-2.9492,-2.9632,-3.0352,-3.0878,-3.1177,-3.1707,-3.2388,-3.3186,-3.3718,-3.4399,-3.5197,-3.5801,-3.6163,-3.6301,-3.6301,-3.6301,-3.6301,-3.6301,-3.6301,-3.6301,-3.6301,-3.6301,-3.6301,-3.6301,-3.6301,-3.6322,-3.6444,-3.6564,-3.6722,-3.6768,-3.6888,-3.7007,-3.7007,-3.7007,-3.7007,-3.7007,-3.7007,-3.7007,-3.7007,-3.7007,-3.7007,-3.7007,-3.7007,-3.7007,-3.7007,-3.7007,-3.6989,-3.7009,-3.705,-3.7143,-3.7341,-3.7452,-3.7455,-3.7182,-3.7147,-3.7166,-3.7297,-3.7316,-3.7353,-3.7429,-3.7448,-3.7485,-3.7577,-3.7595,-3.7595,-3.7595,-3.7738,-3.8112,-3.8772,-3.8914,-3.927,-3.9877,-3.9834,-3.9755,-3.964,-3.962,-3.9578,-3.9511,-3.9511,-3.8798,-3.7446,-3.7446,-3.7446,0.0,0.0,0.0,0.0,-1.6909,0.0,0.0,0.0,-1.5409,-1.4757,0.0,0.0,0.0,0.0,0.0,0.0,0.0,0.0,0.0,0.0,0.0,0.0,0.0,0.0,0.0,0.0,0.0,-2.5928,-2.6581,-2.728,-2.7929,-2.8737,-2.979,-3.1159,-3.1216,-3.1865,-3.3184,-3.3233,-3.39,-3.5197,-3.5283,-3.5663,-3.6301,-3.6301,-3.6301,-3.6301,-3.6301,-3.6301,-3.6301,-3.6301,-3.6301,-3.6301,-3.6301,-3.6301,-3.6322,-3.6444,-3.6564,-3.6722,-3.6768,-3.6888,-3.7007,-3.7007,-3.7007,-3.7007,-3.7007,-3.7007,-3.7007,-3.7007,-3.7007,-3.7007,-3.7007,-3.7007,-3.7007,-3.7007,-3.7007,-3.7009,-3.7069,-3.7089,-3.7358,-3.818,-3.8341,-3.8129,-3.7401,-3.7278,-3.7297,-3.7373,-3.7392,-3.7429,-3.7558,-3.7594,-3.7577,-3.7595,-3.7595,-3.7595,-3.7595,-3.8255,-3.8701,-3.8789,-3.9395,-3.9805,-3.9895,-3.9834,-3.9775,-3.9775,-3.9658,-3.96,-3.958,-3.958,-3.9408,-3.9041,-3.9041,-3.9041,0.0,0.0,0.0,0.0,0.0,0.0,0.0,0.0,-1.6147,0.0,0.0,0.0,0.0,0.0,0.0,0.0,0.0,0.0,0.0,0.0,0.0,0.0,0.0,0.0,0.0,0.0,0.0,0.0,0.0,-2.5536,-2.6332,-2.7526,-2.8491,-2.9141,-3.046,-3.1393,-3.1846,-3.2731,-3.3401,-3.3869,-3.4335,-3.4714,-3.5007,-3.5007,-3.5007,-3.5007,-3.5007,-3.5007,-3.5059,-3.549,-3.5663,-3.5697,-3.6128,-3.6301,-3.6322,-3.6444,-3.6523,-3.6585,-3.6748,-3.6849,-3.6908,-3.697,-3.7007,-3.7007,-3.7007,-3.7007,-3.7007,-3.7007,-3.7007,-3.7007,-3.7007,-3.7007,-3.7009,-3.7048,-3.7068,-3.7087,-3.7184,-3.726,-3.7528,-3.8383,-3.8618,-3.8692,-3.8781,-3.8405,-3.8084,-3.8197,-3.7806,-3.754,-3.7595,-3.7595,-3.7595,-3.7595,-3.8005,-3.829,-3.829,-3.9004,-3.9646,-4.011,-4.086,-4.1288,-4.1288,-4.1266,-4.1245,-4.1245,-4.1187,-4.1146,-4.1047,-4.1047,-4.0982,-4.0831,-3.9917,-3.9453,-1.9396,0.0,0.0,0.0,0.0,0.0,0.0,0.0,0.0,0.0,0.0,0.0,0.0,0.0,0.0,0.0,0.0,0.0,0.0,0.0,0.0,0.0,0.0,0.0,0.0,0.0,0.0,0.0,-2.32,0.0,-2.469,-2.5809,-2.6795,-2.7654,-2.932,-3.043,-3.0872,-3.1984,-3.2656,-3.2904,-3.349,-3.3889,-3.4113,-3.4113,-3.4113,-3.4113,-3.4113,-3.4113,-3.4148,-3.468,-3.5007,-3.5249,-3.5783,-3.6111,-3.6322,-3.6402,-3.6482,-3.6523,-3.6667,-3.6751,-3.6829,-3.6968,-3.7007,-3.7007,-3.7007,-3.7007,-3.7007,-3.7007,-3.7007,-3.7007,-3.7007,-3.7007,-3.7009,-3.7089,-3.7108,-3.7147,-3.7279,-3.7373,-3.7714,-3.8765,-3.9036,-3.9414,-4.0433,-3.9697,-3.8909,-3.8825,-3.829,-3.7863,-3.7631,-3.7595,-3.7684,-3.7916,-3.8451,-3.8897,-3.9149,-3.9846,-4.0633,-4.1457,-4.2067,-4.2389,-4.2389,-4.2389,-4.2389,-4.2389,-4.2348,-4.2305,-4.2205,-4.2166,-4.2121,-4.2037,-4.0825,-4.0232,0.0,0.0,0.0,-1.8676,0.0,0.0,0.0,0.0,-1.7557,0.0,0.0,0.0,0.0,0.0,0.0,-1.4805,0.0,0.0,0.0,0.0,0.0,0.0,0.0,0.0,0.0,0.0,0.0,-2.0709,-2.0709,0.0,-2.2993,-2.3115,-2.4519,-2.7497,-2.7672,-2.8711,-3.0786,-3.0855,-3.1564,-3.2904,-3.2938,-3.3352,-3.4113,-3.4113,-3.4113,-3.4113,-3.4113,-3.4113,-3.4113,-3.413,-3.4562,-3.5197,-3.5214,-3.5663,-3.6301,-3.6301,-3.6402,-3.6502,-3.6502,-3.6647,-3.6829,-3.6968,-3.7007,-3.7007,-3.7007,-3.7007,-3.7007,-3.7007,-3.7007,-3.7007,-3.7007,-3.7007,-3.7009,-3.7089,-3.7108,-3.7166,-3.7337,-3.7411,-3.7892,-3.9536,-3.9859,-4.0415,-4.2105,-4.099,-3.9609,-3.8896,-3.879,-3.8487,-3.7702,-3.7595,-3.7898,-3.8683,-3.879,-3.9149,-3.9996,-4.0803,-4.1631,-4.25,-4.2571,-4.2589,-4.2589,-4.2589,-4.2589,-4.2589,-4.2526,-4.2483,-4.2483,-4.2366,-4.2287,-4.2287,-4.204,-4.1934,0.0,0.0,-1.9913,-1.8943,0.0,0.0,0.0,0.0,0.0,0.0,0.0,0.0,0.0,0.0,-1.5365,-1.4874,-1.4123,0.0,0.0,0.0,0.0,0.0,0.0,0.0,0.0,0.0,0.0,-1.9002,-1.9083,-1.9765,0.0,-2.2377,-2.3663,-2.5237,-2.6757,-2.8107,-2.9262,-3.0283,-3.1027,-3.1438,-3.1938,-3.23,-3.2576,-3.2576,-3.2576,-3.2576,-3.2576,-3.2576,-3.261,-3.3093,-3.3455,-3.3783,-3.48,-3.5335,-3.5628,-3.6111,-3.6322,-3.6402,-3.6564,-3.6705,-3.6829,-3.6968,-3.7007,-3.7007,-3.7007,-3.7007,-3.7007,-3.7007,-3.7007,-3.7007,-3.7007,-3.7007,-3.7046,-3.7201,-3.7222,-3.7279,-3.7485,-3.7522,-3.7861,-3.8949,-3.9556,-4.0273,-4.15,-4.166,-4.1372,-4.0643,-4.0106,-3.9695,-3.9407,-3.9389,-3.9479,-3.9766,-4.0232,-4.0645,-4.0934,-4.1688,-4.2282,-4.2591,-4.2609,-4.2609,-4.2609,-4.2609,-4.2609,-4.2609,-4.2588,-4.2568,-4.2568,-4.251,-4.251,-4.251,-4.243,-4.2284,-2.1216,-2.1,0.0,-1.9712,-1.9391,0.0,-1.8696,0.0,0.0,0.0,0.0,0.0,0.0,0.0,0.0,-1.5305,-1.4537,-1.3933,0.0,-1.3605,0.0,0.0,0.0,0.0,0.0,0.0,-1.6331,-1.7364,-1.7693,-1.8416,0.0,0.0,-2.2541,-2.3589,-2.5591,-2.7109,-2.8053,-2.9315,-3.0197,-3.0714,-3.1179,-3.1541,-3.18,-3.18,-3.18,-3.18,-3.18,-3.18,-3.1834,-3.2317,-3.2662,-3.3007,-3.399,-3.4714,-3.5283,-3.6025,-3.6301,-3.6322,-3.6544,-3.6684,-3.6768,-3.6888,-3.6968,-3.7007,-3.7007,-3.7007,-3.7007,-3.7007,-3.7007,-3.7007,-3.7007,-3.7007,-3.7046,-3.7239,-3.7297,-3.7353,-3.7558,-3.7595,-3.7845,-3.8647,-3.9395,-4.0203,-4.1163,-4.2008,-4.2297,-4.1511,-4.0991,-4.0596,-4.0327,-4.0291,-4.0399,-4.065,-4.1117,-4.153,-4.1876,-4.2382,-4.2709,-4.2709,-4.2709,-4.2709,-4.2709,-4.2709,-4.2709,-4.2709,-4.2688,-4.2668,-4.2668,-4.2629,-4.2609,-4.2609,-4.2609,-4.2472]},{"header":{"parameterUnit":"m.s-1","parameterCategory":1,"la1":30.6,"la2":29.2853,"lo1":-89.7004,"lo2":-87.6739,"dy":0.0162,"dx":0.0183,"nx":112,"ny":82,"refTime":"2023-07-16T00:00:00:Z","depth":0,"parameterNumber":3,"parameterNumberName":"V-component_of_WINDS"},"data":[0.0,0.0,0.0,0.0,0.0,0.0,0.0,0.0,0.0,0.0,0.0,0.0,0.0,0.0,0.0,0.0,0.0,0.0,0.0,0.0,0.0,0.0,0.0,0.0,0.0,0.0,0.0,0.0,0.0,0.0,0.0,0.0,0.0,0.0,0.0,0.0,0.0,0.0,0.0,0.0,0.0,0.0,0.0,0.0,0.0,0.0,0.0,0.0,0.0,0.0,0.0,0.0,0.0,0.0,0.0,0.0,0.0,0.0,0.0,0.0,0.0,0.0,0.0,0.0,0.0,0.0,0.0,0.0,0.0,0.0,0.0,0.0,0.0,0.0,0.0,0.0,0.0,0.0,0.0,0.0,0.0,0.0,0.0,0.0,0.0,0.0,0.0,0.0,0.0,0.0,0.0,-1.0294,-1.1226,-1.1805,-1.1858,-1.1033,-1.0183,-0.9392,0.0,0.0,0.0,0.0,0.0,0.0,0.0,0.0,0.0,0.0,0.0,0.0,0.0,0.0,0.0,0.0,0.0,0.0,0.0,0.0,0.0,0.0,0.0,0.0,0.0,0.0,0.0,0.0,0.0,0.0,0.0,0.0,0.0,0.0,0.0,0.0,0.0,0.0,0.0,0.0,0.0,0.0,0.0,0.0,0.0,0.0,0.0,0.0,0.0,0.0,0.0,0.0,0.0,0.0,0.0,0.0,0.0,0.0,0.0,0.0,0.0,0.0,0.0,0.0,0.0,0.0,0.0,0.0,0.0,0.0,0.0,0.0,0.0,0.0,0.0,0.0,0.0,0.0,0.0,0.0,0.0,0.0,0.0,0.0,0.0,0.0,0.0,0.0,0.0,0.0,0.0,0.0,0.0,0.0,0.0,0.0,0.0,0.0,0.0,0.0,0.0,0.0,0.0,0.0,-0.9776,-1.1608,-1.1941,-1.2189,-1.2518,-1.1398,-1.0335,-0.9533,0.0,0.0,0.0,0.0,0.0,0.0,0.0,0.0,0.0,0.0,0.0,0.0,0.0,0.0,0.0,0.0,0.0,0.0,0.0,0.0,0.0,0.0,0.0,0.0,0.0,0.0,0.0,0.0,0.0,0.0,0.0,0.0,0.0,0.0,0.0,0.0,0.0,0.0,0.0,0.0,0.0,0.0,0.0,0.0,0.0,0.0,0.0,0.0,0.0,0.0,0.0,0.0,0.0,0.0,0.0,0.0,0.0,0.0,0.0,0.0,0.0,0.0,0.0,0.0,0.0,0.0,0.0,0.0,0.0,0.0,0.0,0.0,0.0,0.0,0.0,0.0,0.0,0.0,0.0,0.0,0.0,0.0,0.0,0.0,0.0,0.0,0.0,0.0,0.0,0.0,0.0,0.0,0.0,0.0,0.0,0.0,0.0,0.0,0.0,0.0,0.0,0.0,0.0,-0.9624,-1.0711,-1.2257,-1.2229,-1.2257,-1.2661,-1.153,-1.0474,-0.9651,-0.8514,0.0,0.0,0.0,0.0,0.0,0.0,0.0,0.0,0.0,0.0,0.0,0.0,0.0,0.0,0.0,0.0,0.0,0.0,0.0,0.0,0.0,0.0,0.0,0.0,0.0,0.0,0.0,0.0,0.0,0.0,0.0,0.0,0.0,0.0,0.0,0.0,0.0,0.0,0.0,0.0,0.0,0.0,0.0,0.0,0.0,0.0,0.0,0.0,0.0,0.0,0.0,0.0,0.0,0.0,0.0,0.0,0.0,0.0,0.0,0.0,0.0,0.0,0.0,0.0,0.0,0.0,0.0,0.0,0.0,0.0,0.0,0.0,0.0,0.0,0.0,0.0,0.0,0.0,0.0,0.0,0.0,0.0,0.0,0.0,0.0,0.0,0.0,0.0,0.0,0.0,0.0,0.0,0.0,0.0,0.0,0.0,0.0,0.0,0.0,0.0,0.0,0.0,-1.054,-1.1533,-1.2793,-1.2496,-1.2378,-1.2851,-1.1713,-1.0582,-0.9749,-0.8448,0.0,0.0,0.0,0.0,0.0,0.0,0.0,0.0,0.0,0.0,0.0,0.0,0.0,0.0,0.0,0.0,0.0,0.0,0.0,0.0,0.0,0.0,0.0,0.0,0.0,0.0,0.0,0.0,0.0,0.0,0.0,0.0,0.0,0.0,0.0,0.0,0.0,0.0,0.0,0.0,0.0,0.0,0.0,0.0,0.0,0.0,0.0,0.0,0.0,0.0,0.0,0.0,0.0,0.0,0.0,0.0,0.0,0.0,0.0,0.0,0.0,0.0,0.0,0.0,0.0,0.0,0.0,0.0,0.0,0.0,0.0,0.0,0.0,0.0,0.0,0.0,0.0,0.0,0.0,0.0,0.0,0.0,0.0,0.0,0.0,0.0,0.0,0.0,0.0,0.0,0.0,0.0,0.0,0.0,0.0,0.0,0.0,0.0,0.0,0.0,0.0,0.0,-1.07,-1.1803,-1.3448,-1.2944,-1.2726,-1.3401,-1.2,-1.0699,-0.9749,-0.8492,0.0,0.0,0.0,0.0,0.0,0.0,0.0,0.0,0.0,0.0,0.0,0.0,0.0,0.0,0.0,0.0,0.0,0.0,0.0,0.0,0.0,0.0,0.0,0.0,0.0,0.0,0.0,0.0,0.0,0.0,0.0,0.0,0.0,0.0,0.0,0.0,0.0,0.0,0.0,0.0,0.0,0.0,0.0,0.0,0.0,0.0,0.0,0.0,0.0,0.0,0.0,0.0,0.0,0.0,0.0,0.0,0.0,0.0,0.0,0.0,0.0,0.0,0.0,0.0,0.0,0.0,0.0,0.0,0.0,0.0,0.0,0.0,0.0,0.0,0.0,0.0,0.0,0.0,0.0,0.0,0.0,0.0,0.0,0.0,0.0,0.0,0.0,0.0,0.0,0.0,0.0,0.0,0.0,0.0,0.0,0.0,0.0,0.0,0.0,0.0,0.0,0.0,-1.0815,-1.183,0.0,-1.2837,-1.2707,-1.3206,-1.1978,-1.0775,-0.9877,0.0,0.0,0.0,0.0,0.0,0.0,0.0,0.0,0.0,0.0,0.0,0.0,0.0,0.0,0.0,0.0,0.0,0.0,0.0,0.0,0.0,0.0,0.0,0.0,0.0,0.0,0.0,0.0,0.0,0.0,0.0,0.0,0.0,0.0,0.0,0.0,0.0,0.0,0.0,0.0,0.0,0.0,0.0,0.0,0.0,0.0,0.0,0.0,0.0,0.0,0.0,0.0,0.0,0.0,0.0,0.0,0.0,0.0,0.0,0.0,0.0,0.0,0.0,0.0,0.0,0.0,0.0,0.0,0.0,0.0,0.0,0.0,0.0,0.0,0.0,0.0,0.0,0.0,0.0,0.0,0.0,0.0,0.0,0.0,0.0,0.0,0.0,0.0,0.0,0.0,0.0,0.0,0.0,0.0,0.0,0.0,0.0,0.0,0.0,0.0,0.0,0.0,-1.0051,-1.0919,-1.192,0.0,-1.2876,-1.2765,-1.3125,-1.2001,-1.0873,-0.9987,0.0,0.0,0.0,0.0,0.0,0.0,0.0,0.0,0.0,0.0,0.0,0.0,0.0,0.0,0.0,0.0,0.0,0.0,0.0,0.0,0.0,0.0,0.0,0.0,0.0,0.0,0.0,0.0,0.0,0.0,0.0,0.0,0.0,0.0,0.0,0.0,0.0,0.0,0.0,0.0,0.0,0.0,0.0,0.0,0.0,0.0,0.0,0.0,0.0,0.0,0.0,0.0,0.0,0.0,0.0,0.0,0.0,0.0,0.0,0.0,0.0,0.0,0.0,0.0,0.0,0.0,0.0,0.0,0.0,0.0,0.0,0.0,0.0,0.0,0.0,0.0,0.0,0.0,0.0,0.0,0.0,0.0,0.0,0.0,0.0,0.0,0.0,0.0,0.0,0.0,0.0,0.0,0.0,0.0,0.0,0.0,0.0,0.0,0.0,0.0,0.0,0.0,-1.0195,-1.1056,-1.2083,-1.3359,-1.3135,-1.2998,-1.3279,-1.2132,-1.1001,0.0,0.0,0.0,0.0,0.0,0.0,0.0,0.0,0.0,0.0,0.0,0.0,0.0,0.0,0.0,0.0,0.0,0.0,0.0,0.0,0.0,0.0,0.0,0.0,0.0,0.0,0.0,0.0,0.0,0.0,0.0,0.0,0.0,0.0,0.0,0.0,0.0,0.0,0.0,0.0,0.0,0.0,0.0,0.0,0.0,0.0,0.0,0.0,0.0,0.0,0.0,0.0,0.0,0.0,0.0,0.0,0.0,0.0,0.0,0.0,0.0,0.0,0.0,0.0,0.0,0.0,0.0,0.0,0.0,0.0,0.0,0.0,0.0,0.0,0.0,0.0,0.0,0.0,0.0,0.0,0.0,0.0,0.0,0.0,0.0,0.0,0.0,0.0,0.0,0.0,0.0,0.0,0.0,0.0,0.0,0.0,0.0,0.0,0.0,0.0,0.0,0.0,0.0,-1.0195,-1.1056,-1.1988,-1.2959,-1.2983,-1.293,-1.2998,-1.2116,-1.1138,-1.0195,0.0,0.0,0.0,0.0,0.0,0.0,0.0,0.0,0.0,0.0,0.0,0.0,0.0,0.0,0.0,0.0,0.0,0.0,0.0,0.0,0.0,0.0,0.0,0.0,0.0,0.0,0.0,0.0,0.0,0.0,0.0,0.0,0.0,0.0,0.0,0.0,0.0,0.0,0.0,0.0,0.0,0.0,0.0,0.0,0.0,0.0,0.0,0.0,0.0,0.0,0.0,0.0,0.0,0.0,0.0,0.0,0.0,0.0,0.0,0.0,0.0,0.0,0.0,0.0,0.0,0.0,0.0,0.0,0.0,0.0,0.0,0.0,0.0,0.0,0.0,0.0,0.0,0.0,0.0,0.0,0.0,0.0,0.0,0.0,0.0,0.0,0.0,0.0,0.0,0.0,0.0,0.0,0.0,0.0,0.0,0.0,0.0,0.0,0.0,0.0,0.0,0.0,-1.04,-1.1154,-1.1917,-1.2817,-1.2905,-1.2905,-1.2905,-1.2093,-1.1291,-1.0526,0.0,0.0,0.0,0.0,0.0,0.0,0.0,0.0,0.0,0.0,0.0,0.0,0.0,0.0,0.0,0.0,0.0,0.0,0.0,0.0,0.0,0.0,0.0,0.0,0.0,0.0,0.0,0.0,0.0,0.0,0.0,0.0,0.0,0.0,0.0,0.0,0.0,0.0,0.0,0.0,0.0,0.0,0.0,0.0,0.0,0.0,0.0,0.0,0.0,0.0,0.0,0.0,0.0,0.0,0.0,0.0,0.0,0.0,0.0,0.0,0.0,0.0,0.0,0.0,0.0,0.0,0.0,0.0,0.0,0.0,0.0,0.0,0.0,0.0,0.0,0.0,0.0,0.0,0.0,0.0,0.0,0.0,0.0,0.0,0.0,0.0,0.0,0.0,0.0,0.0,0.0,0.0,0.0,0.0,0.0,0.0,0.0,0.0,0.0,0.0,0.0,0.0,-1.0752,-1.131,-1.1959,-1.2866,-1.2925,-1.2925,-1.2964,-1.2152,-1.1438,-1.0937,0.0,0.0,0.0,0.0,0.0,0.0,0.0,0.0,0.0,0.0,0.0,0.0,0.0,0.0,0.0,0.0,0.0,0.0,0.0,0.0,0.0,0.0,0.0,0.0,0.0,0.0,0.0,0.0,0.0,0.0,0.0,0.0,0.0,0.0,0.0,0.0,0.0,0.0,0.0,0.0,0.0,0.0,0.0,0.0,0.0,0.0,0.0,0.0,0.0,0.0,0.0,0.0,0.0,0.0,0.0,0.0,0.0,0.0,0.0,0.0,-1.0329,0.0,0.0,0.0,0.0,0.0,0.0,0.0,0.0,0.0,0.0,0.0,0.0,0.0,0.0,0.0,0.0,0.0,0.0,0.0,0.0,0.0,0.0,0.0,0.0,0.0,0.0,0.0,0.0,0.0,0.0,0.0,0.0,0.0,0.0,0.0,0.0,0.0,0.0,0.0,0.0,0.0,-1.0752,-1.131,-1.2044,-1.3242,-1.3076,-1.3042,-1.335,-1.2554,-1.1726,-1.0936,0.0,0.0,0.0,0.0,0.0,0.0,0.0,0.0,0.0,0.0,0.0,0.0,0.0,0.0,0.0,0.0,0.0,0.0,0.0,0.0,0.0,0.0,0.0,0.0,0.0,0.0,0.0,0.0,0.0,0.0,0.0,0.0,0.0,0.0,0.0,0.0,0.0,0.0,0.0,0.0,0.0,0.0,0.0,0.0,0.0,0.0,0.0,0.0,0.0,0.0,0.0,0.0,0.0,0.0,0.0,0.0,0.0,0.0,0.0,0.0,0.0,-1.1327,0.0,0.0,0.0,0.0,0.0,0.0,0.0,0.0,0.0,0.0,0.0,0.0,0.0,0.0,0.0,0.0,0.0,0.0,0.0,0.0,0.0,0.0,0.0,0.0,0.0,0.0,0.0,0.0,0.0,0.0,0.0,0.0,0.0,0.0,0.0,0.0,0.0,0.0,0.0,0.0,-1.1241,-1.1798,-1.2493,-1.3581,-1.3273,-1.3155,-1.3553,-1.2749,-1.1921,-1.1281,-1.0655,0.0,0.0,0.0,0.0,0.0,0.0,0.0,0.0,0.0,0.0,0.0,0.0,0.0,0.0,0.0,0.0,0.0,0.0,0.0,0.0,0.0,0.0,0.0,0.0,0.0,0.0,0.0,0.0,0.0,0.0,0.0,0.0,0.0,0.0,0.0,0.0,0.0,0.0,0.0,0.0,0.0,0.0,0.0,0.0,0.0,0.0,0.0,0.0,0.0,0.0,0.0,0.0,0.0,-1.4128,-1.4473,-1.4475,-1.5283,-1.5644,-1.5537,-1.416,-1.3223,-1.2642,0.0,0.0,0.0,0.0,0.0,0.0,0.0,0.0,0.0,0.0,0.0,0.0,0.0,0.0,0.0,0.0,0.0,0.0,0.0,0.0,0.0,0.0,0.0,0.0,0.0,-1.3419,-1.3337,0.0,0.0,0.0,0.0,0.0,0.0,0.0,0.0,0.0,0.0,0.0,0.0,-1.189,-1.2436,-1.305,-1.3927,-1.3556,-1.3412,-1.3814,-1.2939,-1.2171,-1.1765,-1.0979,-0.9999,0.0,0.0,0.0,0.0,0.0,0.0,0.0,0.0,0.0,0.0,0.0,0.0,0.0,0.0,0.0,0.0,0.0,0.0,0.0,0.0,0.0,0.0,0.0,0.0,0.0,0.0,0.0,0.0,0.0,0.0,0.0,0.0,-0.9273,-0.9406,0.0,0.0,0.0,0.0,0.0,0.0,0.0,0.0,0.0,0.0,0.0,0.0,0.0,0.0,-1.5103,-1.558,-1.5636,-1.5335,-1.5792,-1.596,-1.586,-1.6328,-1.6531,-1.6521,-1.6297,0.0,-1.4394,-1.3617,0.0,0.0,0.0,0.0,0.0,0.0,0.0,0.0,0.0,0.0,0.0,0.0,0.0,0.0,0.0,0.0,0.0,0.0,0.0,0.0,0.0,0.0,-1.3918,-1.4004,-1.4414,-1.4723,0.0,-1.3155,-1.1892,-1.1468,0.0,0.0,0.0,0.0,0.0,0.0,0.0,0.0,-1.2335,-1.2923,-1.3538,-1.4401,-1.4073,-1.3982,-1.4435,-1.3556,-1.2788,-1.2322,-1.1802,-1.11,-1.0172,-0.9071,0.0,0.0,0.0,0.0,0.0,0.0,0.0,0.0,0.0,0.0,0.0,0.0,0.0,0.0,0.0,0.0,0.0,0.0,0.0,0.0,0.0,0.0,0.0,0.0,0.0,0.0,0.0,0.0,0.0,-0.9742,-1.0457,-1.0961,-1.1463,-1.1783,0.0,0.0,0.0,0.0,0.0,0.0,0.0,0.0,0.0,-1.618,-1.6397,-1.6822,-1.741,-1.7615,-1.7592,-1.7329,-1.777,-1.7915,-1.7728,-1.7915,-1.7904,-1.774,-1.7305,-1.6777,-1.6172,-1.5332,-1.4658,-1.4209,0.0,0.0,0.0,0.0,0.0,-1.4011,-1.4219,-1.4307,0.0,0.0,0.0,0.0,0.0,0.0,0.0,0.0,0.0,0.0,0.0,0.0,0.0,-1.5773,-1.6141,-1.6438,-1.6169,-1.5318,-1.4308,0.0,-1.2534,-1.1943,-1.1706,0.0,0.0,0.0,0.0,0.0,-1.2687,-1.3416,-1.4113,-1.4758,-1.4343,-1.4201,-1.4684,-1.3751,-1.2976,-1.2549,-1.2063,-1.1424,-1.0555,-0.9529,-0.8698,0.0,0.0,0.0,0.0,0.0,0.0,0.0,0.0,0.0,0.0,0.0,0.0,0.0,0.0,0.0,0.0,0.0,0.0,0.0,0.0,0.0,0.0,0.0,0.0,0.0,0.0,0.0,0.0,-1.0974,-1.176,-1.2665,-1.318,-1.356,0.0,0.0,0.0,0.0,0.0,0.0,-1.5553,-1.6541,-1.7429,-1.8194,-1.8257,-1.8565,-1.9267,-1.9267,-1.9199,-1.9018,-1.9353,-1.9409,-1.9233,-1.9163,-1.9057,-1.884,-1.8179,-1.7812,-1.7627,-1.6672,-1.5859,-1.5283,-1.5283,-1.5078,-1.4816,-1.5166,-1.5283,-1.5332,-1.5644,-1.5722,-1.5752,-1.5782,0.0,-1.5199,-1.4894,0.0,0.0,0.0,0.0,-1.5482,-1.5943,-1.6628,-1.7192,-1.7192,-1.7451,-1.7606,-1.7265,-1.6924,-1.6312,0.0,-1.4003,-1.339,-1.3276,0.0,0.0,0.0,0.0,-1.3121,-1.3235,-1.4086,-1.479,-1.5132,-1.4682,-1.4461,-1.4835,-1.3866,-1.3125,-1.2825,-1.2278,-1.1672,-1.1004,-1.0059,-0.9199,-0.847,0.0,0.0,0.0,0.0,0.0,0.0,0.0,0.0,0.0,0.0,0.0,0.0,0.0,0.0,0.0,0.0,0.0,0.0,0.0,0.0,0.0,0.0,0.0,0.0,0.0,0.0,0.0,0.0,0.0,-1.4162,-1.4705,0.0,0.0,0.0,0.0,-1.603,-1.6868,-1.7431,-1.7533,-1.8444,-1.9191,-1.9679,-1.9689,-1.9882,-2.0312,-2.0323,-2.0262,-2.014,-2.0124,-2.0053,-1.9853,-1.9647,-1.9574,-1.9538,-1.9318,-1.8955,-1.8442,-1.7184,-1.6638,-1.6599,-1.6599,-1.659,-1.657,-1.6599,-1.6599,-1.6609,-1.6629,-1.6629,-1.666,-1.6849,-1.6727,-1.6426,-1.6051,-1.5975,0.0,0.0,-1.6764,-1.6987,-1.7482,-1.7637,-1.7668,-1.7668,-1.7688,-1.7699,-1.7668,-1.7657,-1.7234,0.0,-1.5225,-1.4749,-1.4314,0.0,-1.3524,-1.3524,-1.3545,-1.3721,-1.4179,-1.5049,-1.5628,-1.5649,-1.5245,-1.4966,-1.4997,-1.4014,-1.3386,-1.3355,-1.2562,-1.2084,-1.2033,-1.0813,-0.9925,-0.9441,-0.8586,0.0,0.0,0.0,0.0,0.0,0.0,0.0,0.0,0.0,0.0,0.0,0.0,0.0,0.0,0.0,0.0,0.0,0.0,0.0,0.0,0.0,0.0,0.0,0.0,0.0,0.0,0.0,0.0,-1.593,-1.6567,0.0,0.0,-1.7869,-1.7933,-1.8049,-1.8616,-1.9,-1.9034,-1.9893,-2.0596,-2.1062,-2.1362,-2.1745,-2.2201,-2.1901,-2.1728,-2.169,-2.1353,-2.1135,-2.0937,-2.0579,-2.0253,-1.9964,-1.965,-1.9334,-1.9023,-1.8564,-1.7891,-1.7148,-1.7148,-1.6982,-1.6736,-1.7051,-1.7324,-1.7555,-1.7828,-1.8213,-1.8562,-1.8488,-1.8455,-1.8375,-1.8002,-1.7954,-1.8112,-1.8235,-1.8308,-1.8382,-1.8547,-1.8589,-1.8589,-1.8589,-1.8589,-1.8589,-1.8589,-1.8361,-1.8009,-1.7512,-1.662,-1.5742,-1.5277,-1.4811,-1.4511,-1.4511,-1.4511,-1.4562,-1.4728,-1.5297,-1.5691,-1.5691,-1.5535,-1.5328,-1.5028,-1.4367,-1.3858,-1.3536,-1.2717,-1.2243,-1.2243,-1.0912,-0.9984,-0.952,-0.8942,-0.8274,0.0,0.0,0.0,0.0,0.0,0.0,0.0,0.0,0.0,0.0,0.0,0.0,0.0,0.0,0.0,0.0,0.0,0.0,0.0,0.0,0.0,0.0,0.0,0.0,0.0,0.0,-1.6297,-1.7502,-1.8122,-1.869,-1.9329,-1.9558,-1.9675,-1.9758,-2.0373,-2.0715,-2.0715,-2.1404,-2.1952,-2.2263,-2.2573,-2.2884,-2.3184,-2.2884,-2.2729,-2.2718,-2.2263,-2.1968,-2.1832,-2.1315,-2.0913,-2.0534,-2.018,-1.9824,-1.9502,-1.9502,-1.8916,-1.8027,-1.8027,-1.7852,-1.7594,-1.792,-1.8203,-1.8486,-1.8831,-1.9258,-1.9673,-1.9631,-1.9681,-1.976,-1.9497,-1.9472,-1.953,-1.953,-1.953,-1.953,-1.953,-1.953,-1.9489,-1.9378,-1.9336,-1.9295,-1.9139,-1.887,-1.86,-1.8445,-1.7419,-1.6508,-1.6198,-1.5639,-1.5235,-1.5235,-1.5235,-1.5235,-1.5235,-1.5666,-1.5946,-1.5946,-1.5784,-1.5504,-1.5038,-1.4573,-1.4107,-1.3628,-1.2784,-1.2307,-1.2307,-1.1106,-1.0211,-0.9757,-0.9319,-0.8725,-0.7973,0.0,0.0,0.0,0.0,0.0,0.0,0.0,0.0,0.0,0.0,0.0,0.0,0.0,0.0,0.0,0.0,0.0,0.0,0.0,0.0,0.0,0.0,0.0,-1.5173,-1.6447,-1.7763,-1.8841,-1.9332,-1.9796,-2.0436,-2.0917,-2.1176,-2.1176,-2.2014,-2.2511,-2.2511,-2.2956,-2.3205,-2.3205,-2.3225,-2.3225,-2.3225,-2.3215,-2.3205,-2.3205,-2.2739,-2.2511,-2.248,-2.1842,-2.1407,-2.1167,-2.0984,-2.0534,-1.9932,-1.9932,-1.9697,-1.9326,-1.9297,-1.9287,-1.9287,-1.9287,-1.9297,-1.9343,-1.9571,-1.9773,-1.9964,-2.018,-2.0339,-2.0426,-2.0426,-2.0426,-2.0426,-2.0426,-2.0416,-2.0405,-2.0405,-2.0395,-2.0307,-1.9907,-1.9793,-1.9668,-1.9202,-1.9108,-1.8973,-1.8517,-1.7647,-1.7027,-1.7017,-1.6301,-1.5711,-1.5711,-1.5711,0.0,-1.5711,-1.6133,-1.6413,-1.6413,-1.598,-1.5515,-1.5038,-1.4583,-1.4128,-1.3628,-1.2784,-1.2307,-1.2307,-1.1406,-1.0683,-1.0211,-0.9747,-0.9319,-0.8932,0.0,0.0,0.0,0.0,0.0,0.0,0.0,0.0,0.0,0.0,0.0,0.0,0.0,0.0,0.0,0.0,0.0,0.0,0.0,0.0,0.0,0.0,-1.7296,-1.7151,-1.7916,-1.9032,-2.0584,-2.1018,-2.1521,-2.2356,-2.2542,-2.2615,-2.2615,-2.2853,-2.2998,-2.2998,-2.3432,-2.3691,-2.3691,-2.4002,-2.4125,-2.4125,-2.3846,-2.3691,-2.3681,-2.3215,-2.2822,-2.249,-2.2327,-2.1857,-2.1205,-2.1128,-2.0855,-2.0429,-2.0429,-2.0361,-2.0194,-1.9531,-1.9287,-1.9287,-1.9287,-1.9482,-1.9822,-2.0534,-2.0805,-2.0881,-2.1258,-2.1397,-2.1424,-2.1424,-2.1424,-2.1424,-2.1424,-2.1186,-2.0928,-2.0928,-2.0679,-2.0307,-1.9907,-1.9793,-1.9668,-1.9202,-1.9108,-1.9067,-1.8942,-1.8154,-1.7409,-1.7068,-1.657,-1.6216,-1.6216,-1.6216,0.0,-1.6216,-1.633,-1.6413,-1.6413,-1.6288,-1.5894,-1.507,-1.4883,-1.4469,0.0,-1.2784,-1.2307,-1.2307,-1.1406,-1.0683,-1.0211,-0.9747,-0.9491,0.0,0.0,0.0,0.0,0.0,0.0,0.0,0.0,0.0,0.0,0.0,0.0,0.0,0.0,0.0,0.0,0.0,0.0,0.0,0.0,0.0,0.0,-1.8247,-1.9158,-1.9481,-1.9883,-2.0483,-2.1494,-2.2072,-2.2594,-2.3143,-2.336,-2.3474,-2.3474,-2.365,-2.3753,-2.3753,-2.4012,-2.4157,-2.4157,-2.4363,-2.4497,-2.4497,-2.4281,-2.4157,-2.4146,-2.3691,-2.3339,-2.306,-2.2677,-2.2121,0.0,-2.1286,-2.0964,-2.0605,-2.0605,-2.0605,0.0,0.0,0.0,0.0,0.0,-1.9971,-2.0301,-2.0961,-2.1326,-2.1565,-2.1943,-2.2232,-2.2387,-2.2387,-2.2387,-2.2346,-2.2149,-2.1901,-2.1652,-2.1455,-2.1207,-2.0845,-2.0193,-2.0038,-1.9896,-1.9243,-1.9108,-1.9108,-1.9108,0.0,0.0,-1.7347,-1.6798,-1.6413,-1.6413,-1.6413,-1.6413,-1.6413,-1.6413,-1.6413,-1.6413,-1.6236,-1.5822,-1.5059,-1.4821,0.0,0.0,0.0,-1.212,-1.1737,-1.1179,0.0,0.0,0.0,-1.051,-1.0583,0.0,0.0,0.0,-1.034,-1.0608,0.0,0.0,0.0,0.0,0.0,0.0,0.0,0.0,0.0,0.0,0.0,0.0,0.0,0.0,0.0,0.0,-1.9919,-2.0796,-2.18,-2.2004,-2.2035,-2.2035,-2.277,-2.3287,-2.3339,-2.3712,-2.395,-2.395,-2.4322,-2.4497,-2.4497,0.0,0.0,0.0,0.0,-2.4497,-2.4497,-2.4497,-2.4497,-2.4497,-2.4146,-2.3929,-2.3857,-2.3029,-2.2388,-2.1929,-2.1438,-2.1004,-2.0674,-2.0625,-2.0605,-2.0605,-2.0605,-2.0605,-2.0605,-2.0605,-2.0605,-2.0644,-2.1051,0.0,0.0,-2.2383,-2.2811,-2.3184,-2.3184,-2.3184,-2.3101,-2.2687,-2.2532,-2.2397,-2.1994,-2.1849,-2.159,-2.071,-2.0426,-2.0193,-1.9367,-1.9139,-1.9108,-1.9108,-1.8382,-1.7761,-1.7709,-1.6984,-1.6413,-1.6413,-1.6413,-1.6413,-1.6413,-1.6413,-1.6413,-1.6413,0.0,0.0,-1.5038,-1.4573,-1.4107,-1.3628,-1.2836,-1.1975,-1.1086,-1.1055,-1.1055,-1.1074,-1.1597,-1.1888,-1.1908,-1.2507,-1.2828,-1.2881,-1.1992,-1.1858,0.0,0.0,0.0,0.0,0.0,0.0,0.0,0.0,0.0,0.0,0.0,0.0,0.0,0.0,0.0,-2.1061,-2.1707,-2.2255,-2.2842,-2.3246,-2.3474,-2.3474,-2.3629,-2.3888,-2.4208,-2.4321,-2.4373,-2.4373,-2.4456,-2.4497,-2.4497,-2.4497,0.0,-2.4497,-2.4497,-2.4497,-2.4497,-2.4497,-2.4497,-2.4497,0.0,0.0,-2.3867,-2.3474,-2.2981,-2.2331,-2.173,-2.1303,-2.1074,-2.0713,-2.0605,-2.0605,-2.0605,-2.0605,-2.0605,-2.0605,-2.0605,-2.0644,-2.1051,-2.1497,-2.1958,-2.2383,-2.2811,-2.3184,-2.3184,-2.3184,0.0,-2.308,-2.278,-2.248,-2.2387,-2.2087,-2.1662,-2.1114,-2.07,-2.0276,-1.9782,-1.9367,-1.9108,-1.9108,-1.8662,-1.8143,-1.7761,-1.6984,-1.6413,-1.6413,-1.6413,-1.6413,-1.6413,-1.6413,-1.6413,-1.6413,-1.5998,-1.5504,-1.5038,-1.4573,-1.4107,-1.3628,-1.3103,-1.2565,-1.2048,-1.2027,-1.2069,-1.2205,-1.231,-1.2436,-1.2603,-1.2731,-1.3054,-1.3521,-1.2889,-1.2899,0.0,0.0,0.0,0.0,0.0,0.0,0.0,0.0,0.0,0.0,0.0,-1.9151,0.0,0.0,-2.159,-2.2387,-2.2884,-2.3267,-2.3505,-2.3929,-2.4126,-2.3898,-2.4074,-2.4302,-2.4476,-2.4497,-2.4497,-2.4497,-2.4497,-2.4497,-2.4497,-2.4497,-2.4497,-2.4497,-2.4497,-2.4497,-2.4497,-2.4497,-2.4497,-2.4497,-2.4411,-2.4255,-2.4029,-2.3551,-2.3108,-2.2669,-2.2107,-2.1587,-2.1161,-2.0752,-2.0605,-2.0605,-2.0605,-2.0605,-2.0605,-2.0605,-2.0605,-2.0673,-2.134,-2.1878,-2.2372,-2.299,-2.3494,-2.3867,-2.3867,-2.3867,-2.3815,-2.3598,-2.337,-2.308,-2.2615,-2.2325,-2.1973,-2.128,-2.0726,-2.0307,-1.9896,-1.943,-1.9108,-1.9108,-1.8725,-1.8247,-1.7781,-1.713,-1.6632,-1.6444,-1.6413,-1.6413,-1.6413,-1.6413,-1.6413,-1.6413,-1.5753,-1.5245,-1.5018,-1.4366,-1.3765,-1.3276,-1.3029,-1.273,-1.2328,-1.2307,-1.2329,-1.2393,-1.2731,-1.2945,-1.3043,-1.3411,-1.3869,-1.4395,-1.4144,-1.4132,0.0,0.0,0.0,0.0,0.0,0.0,0.0,0.0,-1.9134,-1.9919,-2.0468,-2.1135,-2.2149,-2.2646,-2.307,-2.3619,-2.4022,-2.424,-2.4157,-2.4447,-2.4466,-2.4064,-2.428,-2.4497,-2.4497,-2.4497,-2.4497,-2.4497,-2.458,-2.4631,-2.4631,-2.4714,-2.4755,-2.4755,-2.4722,-2.4679,-2.4679,-2.4625,-2.4635,-2.4625,-2.437,-2.4242,-2.4232,-2.3571,-2.3158,-2.3011,-2.248,-2.1922,-2.1288,-2.1006,-2.0811,-2.0732,-2.0732,-2.0683,-2.0605,-2.0605,-2.0664,-2.083,-2.163,-2.2271,-2.2858,-2.3629,-2.4178,-2.4497,-2.4497,-2.4497,-2.4425,-2.4105,-2.395,-2.3712,-2.2956,-2.2635,-2.2304,-2.1559,-2.0959,-2.0431,-2.0021,-1.9564,-1.9212,-1.9119,-1.8797,-1.8382,-1.7936,-1.7451,-1.6965,-1.6456,-1.6413,-1.6413,-1.6413,-1.6413,-1.6413,-1.6413,-1.5546,-1.4925,-1.4749,-1.402,-1.3431,-1.306,-1.3039,-1.2896,-1.2566,-1.2545,-1.2567,-1.2589,-1.3143,-1.3488,-1.3607,-1.4236,-1.4766,-1.5247,-1.5247,-1.5247,-1.6941,-1.7372,-1.8032,-1.8463,-1.9291,-1.9988,0.0,0.0,-2.1532,-2.2048,-2.2232,-2.2666,-2.3949,-2.4239,-2.4549,-2.544,-2.5616,-2.5523,-2.5096,-2.5075,-2.4941,-2.4476,-2.4466,-2.4497,-2.4497,-2.4497,-2.4497,-2.4497,-2.4879,-2.5117,-2.5117,-2.5523,-2.573,-2.573,-2.5515,-2.539,-2.539,-2.5154,-2.5007,-2.5053,-2.467,-2.4478,-2.4424,-2.3763,-2.3467,-2.3404,-2.2755,-2.2197,-2.1807,-2.1758,-2.1514,-2.1122,-2.1122,-2.0918,-2.0605,-2.0605,-2.082,-2.1212,-2.174,-2.2422,-2.322,-2.3732,-2.4178,-2.4497,-2.4497,-2.4497,-2.4487,-2.4435,-2.4188,-2.3898,-2.3753,-2.3111,-2.247,-2.2366,-2.1673,-2.0907,-2.0416,-1.9996,-1.9596,-1.9181,-1.9056,-1.888,-1.8414,-1.7915,-1.7337,-1.6508,-1.6413,-1.6413,-1.6413,-1.6413,-1.6413,-1.6413,-1.5546,-1.4666,-1.3814,-1.3648,-1.3566,-1.3514,-1.3514,-1.3493,-1.3465,-1.3465,-1.3512,-1.364,-1.381,-1.4185,-1.4712,-1.4923,-1.5255,-1.5724,-1.5724,-1.5724,-1.8785,-1.9369,0.0,0.0,-2.1118,-2.2035,-2.2035,-2.2739,-2.3484,-2.3949,-2.4084,-2.4343,-2.5171,-2.5316,-2.544,0.0,-2.5875,-2.5813,-2.5627,-2.5344,-2.5117,-2.4921,-2.4662,-2.4497,-2.4497,-2.4497,-2.4611,-2.4879,-2.5086,-2.5303,-2.5595,-2.5782,-2.584,-2.5659,-2.5533,-2.5442,-2.526,-2.5158,-2.5113,-2.5113,-2.4796,-2.4531,-2.4272,-2.3871,-2.3521,-2.3256,-2.2738,-2.2412,-2.2236,-2.1992,-2.1777,-2.1611,-2.1611,-2.1494,-2.131,-2.0791,-2.085,-2.1269,-2.1888,-2.2591,-2.3279,-2.3881,-2.4267,-2.4497,-2.4497,-2.4497,-2.4497,-2.4497,-2.4363,-2.4209,-2.395,-2.3391,-2.2832,-2.2563,-2.1787,-2.1062,-2.0829,-2.0265,-1.9741,-1.9544,-1.9285,-1.8953,-1.8497,-1.8226,-1.7802,-1.6901,-1.6539,-1.6413,-1.6413,-1.6413,-1.6309,-1.6011,-1.539,-1.4728,-1.4051,-1.3752,-1.3597,-1.3597,-1.3597,-1.3597,-1.3597,-1.3597,-1.3745,-1.4087,-1.4292,-1.4662,-1.5181,-1.5394,-1.5745,-1.6203,-1.6203,-1.6367,-2.0457,0.0,0.0,-2.1849,-2.2822,-2.3753,-2.3753,-2.4353,-2.4931,-2.5148,-2.5189,-2.5282,-2.5637,-2.5699,0.0,-2.5854,-2.6034,-2.6065,-2.5941,-2.572,-2.5513,-2.522,-2.489,-2.4683,-2.4683,-2.458,-2.4693,-2.5148,-2.5303,-2.5606,-2.6096,-2.615,-2.6085,-2.5911,-2.5726,-2.5577,-2.5381,-2.5298,-2.5252,-2.5242,-2.4993,-2.472,-2.4349,-2.3987,-2.3555,-2.3081,-2.2779,-2.2685,-2.2656,-2.2353,-2.2168,-2.206,-2.206,-2.1992,-2.1807,-2.1212,-2.1211,-2.1631,-2.2192,-2.2796,-2.3386,-2.4008,-2.4282,-2.4411,-2.4497,-2.4497,-2.4497,-2.4497,-2.4497,-2.4425,-2.4146,-2.3722,-2.3256,-2.2801,-2.2076,-2.1424,-2.1176,-2.0493,-1.9938,-1.9824,-1.9419,-1.8994,-1.8662,-1.8497,-1.8123,-1.7316,-1.682,-1.6519,-1.6394,-1.6413,-1.6236,-1.5742,-1.539,-1.4997,-1.4542,-1.4051,-1.3783,-1.3783,-1.3783,-1.3783,-1.3783,-1.3931,-1.4159,-1.449,-1.4717,-1.509,-1.5584,-1.5814,-1.6221,-1.6721,-1.6721,-1.6929,0.0,0.0,-2.3236,-2.3681,-2.4488,-2.5127,-2.5127,-2.5513,-2.572,-2.5272,-2.5189,-2.5189,-2.521,-2.521,-2.5388,-2.5813,-2.6304,-2.6438,-2.5937,-2.6304,-2.6206,-2.5292,-2.5179,-2.5168,0.0,-2.4766,-2.4693,-2.5148,-2.5616,-2.6061,-2.6573,-2.6746,-2.686,-2.686,-2.636,-2.6051,-2.6061,-2.5829,-2.5693,-2.5693,-2.5302,-2.5086,-2.5047,-2.417,-2.3555,-2.3091,-2.3081,-2.3081,-2.3071,-2.3062,-2.2818,-2.249,-2.249,-2.2246,-2.1885,-2.1855,-2.2119,-2.2523,-2.2797,-2.3169,-2.357,-2.4067,-2.4206,-2.4249,-2.4454,-2.4497,-2.4497,-2.4497,-2.4497,-2.4497,-2.4476,-2.4188,-2.3743,-2.3277,-2.2801,-2.2211,-2.1311,-2.0705,-2.0276,-1.9886,-1.9419,-1.9098,-1.9088,-1.8704,-1.8226,-1.775,-1.7285,-1.6841,-1.6464,-1.6413,-1.6236,-1.5742,-1.568,-1.5484,-1.5018,-1.4552,-1.4283,-1.4283,-1.4283,-1.4283,-1.4283,-1.4718,-1.4956,-1.4976,-1.5117,-1.5469,-1.6084,-1.6229,-1.664,-1.7284,-1.7284,-1.7295,-2.2977,0.0,-2.4198,-2.4664,-2.5451,-2.6113,-2.6113,-2.6237,-2.6299,-2.6144,-2.5875,-2.5658,-2.5658,-2.5658,-2.5709,-2.5854,-2.6009,-2.621,-2.6366,-2.6252,-2.6113,-2.6113,-2.5844,0.0,0.0,0.0,0.0,-2.6061,-2.6304,-2.6501,-2.6777,-2.6867,-2.6747,-2.64,-2.6197,-2.6004,-2.583,-2.5732,-2.5693,-2.5684,-2.5283,-2.5116,-2.5086,-2.418,-2.3711,-2.3555,-2.3218,-2.3091,-2.3091,-2.3091,-2.3013,-2.2886,-2.2886,-2.2799,-2.2715,-2.2715,-2.2769,-2.2891,-2.2703,-2.3008,-2.3547,-2.3677,-2.4149,-2.4699,-2.4743,-2.507,-2.5368,-2.5034,-2.4952,-2.489,-2.458,-2.4209,-2.3836,-2.3681,-2.306,-2.2408,-2.2097,-2.1424,-2.0741,-2.0286,-1.9876,-1.9461,-1.915,-1.8973,-1.8589,-1.7812,-1.7058,-1.655,-1.6423,-1.6413,-1.635,-1.6195,-1.5905,-1.5628,-1.5473,-1.5028,-1.4759,-1.4759,-1.4759,-1.4759,-1.4759,-1.4914,-1.5142,-1.5452,-1.5604,-1.5959,-1.6573,-1.6701,-1.6954,-1.7306,-1.7306,-1.7306,-2.396,-2.4799,-2.5544,-2.5678,-2.6392,-2.6972,-2.6687,-2.6615,-2.648,-2.5937,-2.5606,-2.5306,-2.4974,-2.4956,-2.4974,-2.5184,-2.5295,-2.5616,-2.6283,-2.6206,-2.6283,-2.6573,-2.6345,0.0,0.0,0.0,0.0,-2.6573,-2.6615,-2.6682,-2.688,-2.6805,-2.6544,-2.6091,-2.6004,-2.5868,-2.5693,-2.5693,-2.5693,-2.5684,-2.5449,-2.5225,-2.5096,-2.4336,-2.3935,-2.3769,-2.3286,-2.3091,-2.3091,-2.3091,-2.3091,-2.3091,-2.3091,-2.3091,-2.3091,-2.3091,-2.3091,-2.3052,-2.2789,-2.3006,-2.3392,-2.3638,-2.4097,-2.4678,-2.5019,-2.5399,-2.5688,-2.5499,-2.5347,-2.5117,-2.4828,-2.4414,-2.4074,-2.3919,-2.3422,-2.2904,-2.2563,-2.1901,-2.1217,-2.0726,-2.0172,-1.9699,-1.9399,-1.9077,-1.8578,-1.7812,-1.7068,-1.656,-1.6423,-1.6413,-1.6413,-1.6413,-1.6143,-1.5967,-1.5967,-1.5515,-1.5245,-1.5245,-1.5245,-1.5245,-1.5245,-1.5401,-1.5628,-1.5929,-1.6029,-1.6315,-1.6818,-1.6881,-1.706,-1.7306,-1.7306,-1.7306,-2.4611,-2.5947,-2.7206,-2.6791,-2.7282,-2.7686,-2.6775,-2.6573,-2.6123,-2.4735,-2.4425,-2.4125,0.0,0.0,-2.3298,-2.3774,-2.4198,-2.4809,-2.5689,-2.6227,-2.6594,0.0,0.0,0.0,0.0,0.0,0.0,-2.661,0.0,-2.6702,-2.688,-2.6651,-2.6352,-2.61,-2.582,-2.5693,-2.5693,-2.5693,-2.5693,-2.5693,-2.5693,-2.5518,-2.5088,-2.4648,-2.4219,-2.3799,-2.3315,-2.311,-2.3091,-2.3091,-2.311,-2.313,-2.313,-2.314,-2.3159,-2.3159,-2.3159,-2.3159,-2.3159,-2.3149,-2.3242,-2.3895,-2.4143,-2.4331,-2.526,-2.5549,-2.5594,-2.5881,-2.5616,-2.5241,-2.5199,-2.4859,-2.4425,-2.4022,-2.3898,-2.3629,-2.2729,-2.217,-2.1694,-2.1207,-2.0379,-1.9793,-1.9761,-1.9015,-1.8226,-1.7771,-1.7306,-1.6851,-1.6464,-1.6413,-1.6413,-1.6413,-1.6413,-1.6413,-1.6413,-1.598,-1.5732,-1.5732,-1.5732,-1.5732,-1.5732,-1.6174,-1.6413,-1.6413,-1.6413,-1.6545,-1.679,-1.6818,-1.6959,-1.7278,-1.7306,-1.7306,-2.6196,-2.6957,-2.7361,-2.7521,-2.7748,-2.7686,-2.6775,-2.6051,-2.5285,-2.426,-2.3505,-2.2842,0.0,0.0,0.0,-2.2832,-2.3525,0.0,-2.4766,-2.5554,0.0,-2.6573,0.0,-2.7133,-2.7133,-2.7133,0.0,0.0,-2.6812,-2.6768,-2.6592,-2.6352,-2.61,-2.583,-2.5732,-2.5693,-2.5693,-2.5693,-2.5693,-2.5693,-2.5693,-2.5625,-2.5557,-2.5107,-2.4668,-2.4228,-2.3809,-2.3437,-2.3091,-2.3091,-2.333,-2.3623,-2.3623,-2.3818,-2.4092,-2.4092,-2.4092,-2.4092,-2.4092,-2.3887,-2.3691,-2.4167,-2.4713,-2.5232,-2.5631,-2.6091,-2.6529,-2.645,-2.6366,-2.6072,-2.5365,-2.5096,-2.49,-2.4435,-2.4115,-2.3722,-2.3143,-2.2646,-2.2087,-2.1269,-2.0379,-1.9689,-1.9347,-1.8797,-1.8226,-1.7771,-1.7306,-1.6851,-1.6464,-1.6413,-1.6413,-1.6413,-1.6413,-1.6413,-1.6413,-1.6299,-1.6236,-1.6236,-1.6236,-1.6236,-1.6236,-1.635,-1.6413,-1.6413,-1.6413,-1.6488,-1.6655,-1.6751,-1.6892,-1.7078,-1.7239,-1.7306,-2.7029,-2.7745,-2.8121,-2.7966,-2.7924,-2.7583,-2.6279,-2.5285,-2.4322,-2.3194,-2.2232,0.0,0.0,0.0,0.0,0.0,0.0,0.0,-2.4352,-2.515,-2.5834,0.0,-2.7019,0.0,-2.7309,-2.7486,-2.7466,0.0,-2.7013,-2.6747,-2.6352,-2.6197,-2.5955,-2.5684,-2.5693,-2.5693,-2.5693,-2.5693,-2.5693,-2.5693,-2.5693,-2.5693,-2.5674,-2.5273,-2.4979,-2.4678,0.0,-2.3926,-2.3656,-2.3656,-2.3848,-2.4062,-2.4062,-2.4209,-2.4414,-2.4414,-2.4414,-2.4443,-2.4639,-2.4551,-2.4385,-2.4629,-2.5014,-2.5391,-2.5817,-2.6295,-2.6744,-2.6716,-2.6687,-2.6449,-2.5699,-2.5334,-2.5065,-2.4611,-2.4353,-2.3991,-2.3329,-2.2977,-2.2408,-2.1036,-2.04,-1.9841,-1.9212,-1.8891,-1.8464,-1.7802,-1.7482,-1.7079,-1.6496,-1.6413,-1.6413,-1.6413,-1.6413,-1.6413,-1.6413,-1.6413,-1.6413,-1.6413,-1.6413,-1.6413,-1.6413,-1.6413,-1.6413,-1.6413,-1.6413,-1.6477,-1.6599,-1.6694,-1.6797,-1.7011,-1.7106,-1.7211,-2.7455,-2.8307,-2.9021,-2.8214,-2.7924,-2.7376,-2.5582,-2.4478,-2.3381,-2.1921,0.0,-2.0089,-1.9616,0.0,-1.9886,-2.071,0.0,-2.2315,-2.3991,-2.4735,-2.5471,-2.6418,-2.6936,-2.7237,-2.7299,-2.7617,-2.7739,-2.7455,-2.7161,-2.6774,-2.6318,-2.622,-2.6133,-2.5859,-2.5859,-2.5859,-2.5859,-2.5801,-2.5771,-2.5771,-2.5713,-2.5693,-2.5674,-2.5332,-2.5174,-2.5096,0.0,0.0,-2.4414,-2.4414,-2.4453,-2.4502,-2.4502,-2.4541,-2.459,-2.459,-2.459,-2.4648,-2.5029,-2.5156,-2.5156,-2.5156,-2.5156,-2.5272,-2.5933,-2.6304,-2.6544,-2.6805,-2.6794,-2.6584,-2.6065,-2.5595,-2.5137,-2.4621,-2.4497,-2.427,-2.3463,-2.3184,-2.2584,-2.0819,-2.0426,-2.0151,-1.9336,-1.9139,-1.8764,-1.7833,-1.7699,-1.7378,-1.6498,-1.6413,-1.6413,-1.6413,-1.6413,-1.6413,-1.6413,-1.6413,-1.6413,-1.6413,-1.6413,-1.6413,-1.6413,-1.6413,-1.6413,-1.6413,-1.6413,-1.6459,-1.6581,-1.6581,-1.674,-1.6983,-1.6983,-1.7106,-2.8173,-2.8556,-2.869,-2.8535,-2.7935,-2.7003,-2.5564,-2.424,0.0,0.0,0.0,-1.9054,-1.8237,-1.8382,0.0,-1.9367,0.0,0.0,0.0,0.0,-2.4952,0.0,0.0,0.0,0.0,0.0,0.0,0.0,0.0,0.0,-2.7171,-2.6979,-2.6838,-2.6797,-2.6797,-2.6797,-2.6797,-2.6445,-2.6279,-2.6269,-2.5908,-2.5693,-2.5693,-2.5615,-2.542,-2.5106,0.0,0.0,-2.4414,-2.4414,-2.4629,-2.4998,-2.4998,-2.5185,-2.546,-2.546,-2.546,-2.5469,-2.5547,-2.5625,-2.5625,-2.5625,-2.5625,-2.5683,-2.5984,-2.6304,-2.6544,-2.6805,-2.702,-2.6988,-2.6138,-2.5823,-2.5554,-2.4693,-2.4497,-2.4352,-2.3877,-2.3153,-2.2294,-2.1207,-2.0653,-2.0265,-1.9761,-1.9357,-1.8764,-1.7833,-1.7699,-1.7378,-1.6498,-1.6413,-1.6413,-1.6413,-1.6413,-1.6413,-1.6413,-1.6413,-1.6413,-1.6413,-1.6413,-1.6413,-1.6413,-1.6413,-1.6413,-1.6413,-1.6413,-1.6402,-1.6431,-1.6552,-1.6684,-1.6835,-1.6955,-1.7106,-2.8069,-2.8431,-2.8504,-2.8028,-2.722,-2.6169,-2.4529,0.0,0.0,0.0,-1.863,-1.7574,-1.7108,0.0,0.0,0.0,0.0,0.0,0.0,0.0,0.0,0.0,0.0,0.0,0.0,0.0,0.0,0.0,0.0,0.0,-2.7225,-2.7063,-2.7012,-2.7012,-2.7012,-2.7012,-2.7012,-2.6816,-2.6602,-2.6387,-2.6172,-2.5957,-2.5693,-2.5693,-2.5567,-2.541,-2.541,0.0,-2.506,-2.506,-2.5225,-2.541,-2.541,-2.5547,-2.5693,-2.5693,-2.5693,-2.5693,-2.5693,-2.5693,-2.5693,-2.5693,-2.5693,-2.5732,-2.5868,-2.6159,-2.6554,-2.6651,-2.6986,-2.7092,-2.6159,-2.5875,-2.5658,-2.4704,-2.4321,-2.4074,-2.3619,-2.2977,-2.2221,-2.13,-2.0705,-2.0286,-1.9876,-1.9409,-1.887,-1.8175,-1.7843,-1.7461,-1.6808,-1.6529,-1.6413,-1.6413,-1.6413,-1.6413,-1.6413,-1.6413,-1.6413,-1.6413,-1.6413,-1.6413,-1.6413,-1.6413,-1.6413,-1.6413,-1.6413,-1.6413,-1.6413,-1.6459,-1.6591,-1.6818,-1.6864,-1.7032,-2.7655,-2.811,-2.8276,-2.7506,-2.6542,-2.5295,-2.3577,-2.1756,0.0,0.0,-1.7532,-1.635,-1.6153,0.0,0.0,0.0,0.0,0.0,0.0,0.0,0.0,0.0,0.0,0.0,0.0,0.0,0.0,0.0,0.0,0.0,-2.7324,-2.7285,-2.7285,-2.7285,-2.7285,-2.7285,-2.7285,-2.7197,-2.6982,-2.666,-2.6475,-2.6211,-2.583,-2.5732,-2.5693,-2.5693,-2.5693,0.0,0.0,-2.5693,-2.5693,-2.5693,-2.5693,-2.5693,-2.5693,-2.5693,-2.5693,-2.5693,-2.5693,-2.5693,-2.5693,-2.5693,-2.5693,-2.5693,-2.5693,-2.6024,-2.6448,-2.6496,-2.6761,-2.6884,-2.6092,-2.5813,-2.5544,-2.4693,-2.4281,-2.3867,-2.3308,-2.2904,-2.2366,-2.1445,-2.0803,-2.0317,-1.9965,-1.9471,-1.8942,-1.8476,-1.8009,-1.7533,-1.7068,-1.6653,-1.6413,-1.6413,-1.6413,-1.6413,-1.6413,-1.6413,-1.6413,-1.6413,-1.6413,-1.6413,-1.6413,-1.6413,-1.6413,-1.6413,-1.6413,-1.6413,-1.6413,-1.6431,-1.6573,-1.6818,-1.6835,-1.7015,-2.7247,-2.7645,-2.7872,-2.7423,-2.6268,-2.4879,-2.3515,0.0,0.0,-1.8174,-1.7067,-1.6153,-1.5277,-1.5121,-1.5432,0.0,0.0,-1.8453,0.0,0.0,0.0,0.0,0.0,0.0,0.0,0.0,0.0,0.0,0.0,0.0,0.0,-2.8174,-2.8174,-2.8174,-2.8174,-2.8174,-2.8174,-2.7793,-2.764,-2.7591,-2.6758,-2.6367,-2.6318,-2.5869,-2.5693,-2.5693,0.0,0.0,0.0,-2.5693,-2.5693,-2.5693,-2.5693,-2.5693,-2.5693,-2.5693,-2.5693,-2.5693,-2.5693,-2.5693,-2.5693,-2.5693,-2.5693,-2.5693,-2.5693,-2.5917,-2.6197,-2.6448,-2.6405,-2.6259,-2.5964,-2.5585,-2.5117,-2.4621,-2.4466,-2.4197,-2.337,-2.3153,-2.2853,-2.1921,-2.1031,-2.0374,-2.0333,-1.9644,-1.8942,-1.8476,-1.8009,-1.7533,-1.7068,-1.6653,-1.6413,-1.6413,-1.6413,-1.6413,-1.6413,-1.6413,-1.6413,-1.6413,-1.6413,-1.6413,-1.6413,-1.6413,-1.6413,-1.6413,-1.6413,-1.6413,-1.6413,-1.6534,-1.6666,-1.6818,-1.6909,-1.7117,-2.5916,-2.6361,-2.6517,-2.5802,-2.4809,-2.3567,-2.1901,0.0,-1.8754,-1.7233,-1.6187,-1.5349,-1.4707,-1.4583,-1.4883,-1.5842,0.0,0.0,0.0,0.0,0.0,0.0,0.0,0.0,0.0,0.0,0.0,0.0,0.0,0.0,0.0,-2.8291,-2.8291,-2.8291,-2.8291,-2.8291,-2.8291,-2.8125,-2.792,-2.7708,-2.7051,-2.6631,-2.6367,-2.5888,-2.5693,-2.5693,0.0,0.0,0.0,-2.5693,-2.5693,-2.5693,-2.5693,-2.5693,-2.5693,-2.5693,-2.5693,-2.5693,-2.5693,-2.5693,-2.5693,-2.5693,-2.5693,-2.5693,-2.5693,-2.5868,-2.6089,-2.6069,-2.6162,-2.61,-2.5589,-2.5106,-2.4724,-2.4538,-2.4497,-2.4249,-2.3381,-2.3184,-2.2915,-2.1983,-2.128,-2.0726,-2.035,-1.9774,-1.9131,-1.8537,-1.811,-1.7631,-1.7175,-1.6728,-1.6382,-1.6117,-1.6288,-1.6413,-1.6413,-1.6413,-1.6413,-1.6413,-1.6413,-1.6413,-1.6413,-1.6413,-1.6413,-1.6413,-1.6413,-1.6413,-1.6413,-1.6524,-1.6666,-1.6818,-1.6937,-1.7106,-2.4498,-2.5047,-2.5275,-2.4364,-2.3557,-2.2501,0.0,0.0,-1.7802,-1.6485,-1.5442,-1.4656,-1.419,-1.4097,-1.4407,-1.5328,0.0,-1.7367,0.0,0.0,0.0,0.0,0.0,0.0,0.0,0.0,0.0,0.0,0.0,0.0,0.0,-2.8291,-2.8291,-2.8291,-2.8291,-2.8291,-2.8291,-2.8291,-2.8144,-2.7894,-2.7285,-2.6865,-2.6553,-2.5947,-2.5693,-2.5693,0.0,0.0,0.0,-2.5693,-2.5693,-2.5693,-2.5693,-2.5762,-2.5869,-2.5732,-2.5771,-2.5908,-2.5732,-2.5693,-2.5693,-2.5693,-2.5693,-2.5693,-2.5693,-2.582,-2.5963,-2.5812,-2.5837,-2.5782,-2.5145,-2.4745,-2.4497,-2.4497,-2.4351,-2.3999,-2.3278,-2.2959,-2.259,-2.1771,-2.1247,-2.0759,-2.0211,-1.9727,-1.9201,-1.8586,-1.8144,-1.7785,-1.7441,-1.6889,-1.6387,-1.6116,-1.6197,-1.6259,-1.6306,-1.6374,-1.6413,-1.6413,-1.6413,-1.6413,-1.6413,-1.6413,-1.6413,-1.6413,-1.6413,-1.6431,-1.6459,-1.6581,-1.6722,-1.6864,-1.7022,-1.7249,-2.308,-2.3867,-2.4301,-2.3432,-2.2853,-2.2025,0.0,0.0,-1.7316,-1.598,-1.4956,-1.4144,-1.369,-1.3597,-1.3896,-1.4852,-1.5784,0.0,0.0,0.0,0.0,0.0,0.0,0.0,0.0,0.0,0.0,0.0,0.0,0.0,0.0,-2.8291,-2.8291,-2.8291,-2.8291,-2.8291,-2.8291,-2.8291,-2.8291,-2.8271,-2.7422,-2.7012,-2.6982,-2.6074,-2.5693,0.0,0.0,0.0,0.0,-2.5693,-2.5693,-2.5693,-2.5693,-2.6006,-2.6328,-2.5849,-2.6006,-2.6318,-2.584,-2.5693,-2.5693,-2.5693,-2.5693,-2.5693,-2.5693,-2.5693,-2.5741,-2.5764,-2.5528,-2.5096,-2.4631,-2.4507,-2.4497,-2.4497,-2.3976,-2.341,-2.3002,-2.2402,-2.1748,-2.1296,-2.0843,-2.0363,-1.9968,-1.9515,-1.9028,-1.8586,-1.8144,-1.7906,-1.7896,-1.709,-1.6497,-1.6497,-1.6136,-1.5961,-1.6085,-1.6278,-1.6413,-1.6413,-1.6413,-1.6413,-1.6413,-1.6413,-1.6413,-1.6413,-1.6413,-1.6477,-1.6599,-1.6722,-1.6864,-1.7011,-1.72,-1.754,-2.1176,-2.1735,-2.2017,-2.1455,-2.0959,-2.0187,-1.8319,0.0,-1.6415,-1.5028,-1.4511,-1.4169,-1.3679,-1.3845,-1.4283,-1.4894,-1.6032,0.0,0.0,0.0,0.0,0.0,0.0,0.0,0.0,0.0,0.0,0.0,0.0,0.0,0.0,-2.8291,-2.8291,-2.8291,-2.8291,-2.8291,-2.8291,-2.8008,-2.7861,-2.7851,-2.6992,-2.6592,-2.6572,-2.5947,0.0,0.0,0.0,0.0,0.0,-2.5693,-2.5869,-2.6182,-2.6182,-2.6445,-2.6797,-2.666,-2.6514,-2.6367,-2.623,-2.5986,-2.5693,-2.5693,-2.5693,-2.5635,-2.5371,-2.5283,-2.5222,-2.4762,-2.446,-2.4196,-2.4054,-2.4013,-2.4013,-2.4013,-2.3637,-2.315,-2.2705,-2.2221,-2.1748,-2.1296,-2.1094,-2.0715,-1.9853,-1.9567,-1.9157,-1.8286,-1.8069,-1.7872,-1.7586,-1.73,-1.6896,-1.6285,-1.6188,-1.6167,-1.6105,-1.6153,-1.6249,-1.6374,-1.6413,-1.6413,-1.6413,-1.6413,-1.6413,-1.6413,-1.6477,-1.6552,-1.6599,-1.6825,-1.7194,-1.7672,-1.7741,-1.8021,0.0,-1.9768,-2.0174,-1.9734,-1.9323,0.0,0.0,0.0,-1.5566,-1.4521,-1.4169,-1.3952,-1.3638,-1.3969,-1.4511,-1.5152,-1.6231,0.0,0.0,0.0,0.0,0.0,0.0,0.0,0.0,0.0,0.0,0.0,0.0,0.0,0.0,0.0,-2.8223,-2.8057,-2.8057,-2.8057,-2.8057,-2.7637,-2.7422,-2.7412,-2.6719,-2.6387,-2.6367,-2.5888,0.0,0.0,0.0,0.0,0.0,-2.5693,-2.5996,-2.6387,-2.6387,-2.6748,-2.7236,-2.708,-2.6846,-2.6602,-2.6445,-2.6103,-2.5693,-2.5693,-2.5625,-2.5371,-2.4766,-2.4673,-2.4657,-2.4196,-2.3963,-2.3797,-2.3797,-2.3797,-2.3797,-2.3797,-2.3293,-2.274,-2.246,-2.189,-2.1331,-2.1023,-2.0964,-2.0647,-1.9653,-1.9505,-1.9137,-1.8135,-1.8008,-1.791,-1.7656,-1.748,-1.72,-1.6652,-1.6352,-1.6198,-1.6185,-1.6119,-1.6142,-1.6278,-1.6374,-1.6413,-1.6413,-1.6413,-1.6413,-1.6413,-1.6477,-1.6581,-1.6694,-1.7148,-1.7607,-1.801,-1.8185,-1.8512,0.0,-1.7931,0.0,0.0,0.0,0.0,0.0,0.0,0.0,-1.4355,-1.3896,-1.3607,-1.3638,-1.402,-1.4656,-1.5587,-1.65,0.0,0.0,0.0,0.0,0.0,0.0,0.0,0.0,0.0,0.0,0.0,0.0,0.0,0.0,0.0,-2.8066,-2.7728,-2.766,-2.764,-2.7669,-2.7187,-2.6973,-2.6963,-2.6543,-2.6338,-2.6328,-2.5918,0.0,0.0,0.0,0.0,0.0,-2.5693,-2.5996,-2.6396,-2.6426,-2.6924,-2.7578,-2.7197,-2.7021,-2.6914,-2.6523,-2.6103,-2.5684,-2.5654,-2.5381,-2.4863,-2.4043,-2.3914,-2.4083,-2.4053,-2.3889,-2.3754,-2.3754,-2.3754,-2.3744,-2.3714,-2.2936,-2.2154,-2.2124,-2.1322,-2.0605,-2.0605,-2.0605,-2.0341,-1.9473,-1.9307,-1.9004,-1.8174,-1.8027,-1.8008,-1.8008,-1.7666,-1.7422,-1.7393,-1.6652,-1.6195,-1.6286,-1.6175,-1.6085,-1.6114,-1.6278,-1.6413,-1.6413,-1.6413,-1.6413,-1.6413,-1.6402,-1.6555,-1.6832,-1.7608,-1.8013,-1.809,-1.8545,-1.9004,-1.4364,0.0,-1.6284,-1.62,-1.6182,-1.5929,0.0,0.0,0.0,0.0,0.0,0.0,0.0,-1.4521,-1.5132,-1.6091,0.0,0.0,0.0,0.0,0.0,0.0,0.0,0.0,0.0,0.0,0.0,0.0,0.0,0.0,0.0,0.0,-2.7826,-2.7718,-2.7031,-2.6846,-2.7168,-2.6748,-2.6533,-2.6533,-2.6094,-2.584,-2.584,-2.5732,0.0,0.0,0.0,0.0,-2.5693,-2.5693,-2.5996,-2.6426,-2.6738,-2.6992,-2.7197,-2.7432,-2.71,-2.6523,-2.6426,-2.6103,-2.5635,-2.5332,-2.4922,-2.4473,-2.3955,-2.3834,-2.381,-2.3433,-2.33,-2.3276,-2.3276,-2.3276,-2.3187,-2.2863,-2.2392,-2.1879,-2.1496,-2.0997,-2.0605,-2.0605,-2.0605,-2.0429,-1.9863,-1.9502,-1.9102,-1.8539,-1.8213,-1.8008,-1.8008,-1.793,-1.7744,-1.7422,-1.6894,-1.6436,-1.6185,-1.6038,-1.599,-1.6085,-1.6278,-1.6413,-1.6413,-1.6413,-1.6413,-1.6413,-1.6506,-1.6816,-1.7331,-1.7682,-1.8232,-1.8927,-1.9149,-1.9475,-1.2934,-1.3985,-1.5019,-1.5144,-1.5071,-1.4846,-1.4392,0.0,0.0,0.0,0.0,0.0,0.0,0.0,0.0,0.0,0.0,0.0,0.0,0.0,0.0,0.0,0.0,0.0,0.0,0.0,0.0,0.0,0.0,0.0,0.0,0.0,-2.7542,-2.7141,-2.6631,-2.6494,-2.6728,-2.6299,-2.6094,-2.6084,-2.5801,-2.5693,-2.5693,-2.5693,0.0,0.0,0.0,0.0,-2.5693,-2.5693,-2.5996,-2.6406,-2.6641,-2.6846,-2.7041,-2.7285,-2.6953,-2.6387,-2.6387,-2.5967,-2.5352,-2.4912,-2.4482,-2.4053,-2.3623,-2.3496,-2.3437,-2.3159,-2.3091,-2.3091,-2.3091,-2.3091,-2.2984,-2.2617,-2.2197,-2.1768,-2.1288,-2.0879,-2.0605,-2.0605,-2.0605,-2.0468,-1.999,-1.957,-1.9141,-1.8666,-1.8247,-1.8008,-1.8008,-1.8008,-1.793,-1.7695,-1.7285,-1.6855,-1.6406,-1.6247,-1.6125,-1.6029,-1.6259,-1.6413,-1.6413,-1.6413,-1.6413,-1.6413,-1.6743,-1.708,-1.7402,-1.8006,-1.8579,-1.9083,-1.9457,-1.976,-1.222,-1.316,-1.421,-1.4566,-1.4379,-1.4139,-1.4372,0.0,0.0,0.0,0.0,0.0,0.0,0.0,0.0,0.0,0.0,0.0,0.0,0.0,0.0,0.0,0.0,0.0,0.0,0.0,0.0,0.0,0.0,0.0,0.0,0.0,0.0,-2.6406,-2.6328,-2.6289,-2.6289,-2.5918,-2.5693,-2.5693,-2.5693,-2.5693,-2.5693,-2.5693,-2.5693,0.0,0.0,0.0,-2.5781,-2.583,-2.6055,-2.6448,-2.6457,-2.6663,-2.6927,-2.6945,-2.6701,-2.6339,-2.6289,-2.5752,-2.5047,-2.456,-2.4131,-2.3711,-2.3227,-2.3091,-2.3091,-2.3091,-2.3091,-2.3091,-2.3091,-2.3091,-2.2974,-2.2529,-2.2139,-2.1748,-2.124,-2.083,-2.0605,-2.0605,-2.0605,-2.0488,-2.0078,-1.9609,-1.916,-1.8754,-1.8286,-1.8008,-1.8008,-1.8008,-1.8008,-1.8008,-1.7637,-1.7207,-1.6736,-1.6574,-1.6317,-1.5915,-1.6202,-1.6413,-1.6413,-1.6413,-1.6444,-1.6477,-1.6997,-1.7317,-1.7483,-1.8426,-1.8903,-1.8988,-1.9587,-1.9835,-1.2313,-1.2686,-1.3063,-1.3837,-1.4069,-1.4256,-1.4775,-1.4805,0.0,0.0,0.0,0.0,0.0,0.0,0.0,0.0,0.0,0.0,0.0,0.0,0.0,0.0,0.0,0.0,0.0,0.0,0.0,0.0,0.0,0.0,0.0,0.0,0.0,-2.6396,-2.6025,-2.5791,-2.5791,-2.5723,-2.5693,-2.5693,-2.5693,-2.5693,-2.5693,-2.5693,-2.5693,0.0,0.0,-2.6052,-2.6052,-2.6304,-2.644,-2.654,-2.6862,-2.6812,-2.6602,-2.6705,-2.6468,-2.6103,-2.5879,-2.5498,-2.5047,-2.456,-2.4131,-2.3711,-2.3227,-2.3091,-2.3091,-2.3091,-2.3091,-2.3091,-2.3091,-2.3091,-2.2896,-2.2168,-2.1934,-2.166,-2.0889,-2.0654,-2.0605,-2.0605,-2.0605,-2.0586,-2.0517,-1.9852,-1.9268,-1.9199,-1.8516,-1.8008,-1.8008,-1.8008,-1.8008,-1.8008,-1.7637,-1.7207,-1.6736,-1.6574,-1.6317,-1.5915,-1.6202,-1.6413,-1.6413,-1.6413,-1.656,-1.6903,-1.7005,-1.7449,-1.8238,-1.8564,-1.8901,-1.9246,-1.9507,-1.9638,-1.2051,-1.2413,-1.2876,-1.4084,-1.4251,-1.4302,-1.5061,-1.5345,0.0,0.0,0.0,0.0,0.0,0.0,0.0,0.0,0.0,0.0,0.0,0.0,0.0,0.0,0.0,0.0,0.0,0.0,0.0,0.0,0.0,0.0,0.0,0.0,0.0,0.0,-2.5791,-2.5693,-2.5693,-2.5693,-2.5693,-2.5693,-2.5693,-2.5693,-2.5693,-2.5693,-2.5693,-2.5684,0.0,-2.61,-2.61,-2.64,-2.6496,-2.6516,-2.6718,-2.6677,-2.6478,-2.6416,-2.6172,-2.5878,-2.5732,-2.5283,-2.4687,-2.4482,-2.3975,-2.3398,-2.3159,-2.3091,-2.3091,-2.3091,-2.3091,-2.3091,-2.3091,-2.2925,-2.2646,-2.2031,-2.1709,-2.1357,-2.0742,-2.0605,-2.0605,-2.0605,-2.0605,-2.0605,-2.0605,-1.9891,-1.9287,-1.9287,-1.8555,-1.8008,-1.8008,-1.8008,-1.8008,-1.8008,-1.7842,-1.7549,-1.7119,-1.7076,-1.6818,-1.6206,-1.6316,-1.6413,-1.6413,-1.6612,-1.68,-1.7006,-1.7492,-1.7968,-1.8414,-1.8738,-1.901,-1.9208,-1.9374,-1.945,-1.1834,-1.226,-1.2901,-1.4471,0.0,-1.4486,-1.5494,-1.5936,0.0,0.0,0.0,0.0,0.0,0.0,0.0,0.0,0.0,0.0,0.0,0.0,0.0,0.0,0.0,0.0,0.0,0.0,0.0,0.0,0.0,0.0,0.0,0.0,0.0,0.0,-2.5693,-2.5693,-2.5693,-2.5693,-2.5693,-2.5693,-2.5693,-2.5693,-2.5693,-2.5693,-2.5693,-2.5684,-2.5955,-2.6149,-2.6197,-2.6496,-2.6651,-2.6688,-2.6688,-2.6592,-2.6448,-2.6197,-2.5917,-2.5674,-2.5567,-2.5068,-2.4394,-2.4307,-2.3715,-2.3091,-2.3091,-2.3091,-2.3091,-2.3091,-2.3023,-2.2945,-2.2945,-2.2711,-2.2383,-2.1855,-2.1475,-2.1073,-2.0703,-2.0605,-2.0605,-2.0605,-2.0605,-2.0605,-2.0605,-1.9891,-1.9287,-1.9287,-1.8555,-1.8008,-1.8008,-1.8008,-1.8008,-1.8008,-1.8008,-1.7842,-1.7478,-1.7461,-1.7198,-1.661,-1.6665,-1.6694,-1.6694,-1.6996,-1.7223,-1.7327,-1.803,-1.8465,-1.8569,-1.8922,-1.9108,-1.9108,-1.9208,-1.9241,-1.2027,-1.2307,-1.2741,-1.4552,-1.4773,-1.4928,-1.636,-1.6477,0.0,-1.7347,0.0,0.0,0.0,0.0,0.0,0.0,0.0,0.0,0.0,0.0,0.0,0.0,0.0,0.0,0.0,0.0,0.0,0.0,0.0,0.0,0.0,0.0,0.0,0.0,0.0,-2.5693,-2.5693,-2.5693,-2.5693,-2.5693,-2.5693,-2.5693,-2.5693,-2.5693,-2.5693,-2.5684,-2.5955,-2.6245,-2.6496,-2.6747,-2.7034,-2.7262,-2.7262,-2.6928,-2.6448,-2.6197,-2.5917,-2.5625,-2.5264,-2.4814,-2.4355,-2.3965,-2.3516,-2.3091,-2.3091,-2.3091,-2.3091,-2.3091,-2.2818,-2.2559,-2.2559,-2.2539,-2.2305,-2.1434,-2.122,-2.1073,-2.0703,-2.0605,-2.0605,-2.0605,-2.0605,-2.0605,-2.0605,-1.9891,-1.9287,-1.9287,-1.8555,-1.8008,-1.8008,-1.8008,-1.8008,-1.8008,-1.8008,-1.7899,-1.7622,-1.7248,-1.7075,-1.7151,-1.741,-1.7606,-1.7606,-1.7637,-1.7843,-1.8278,-1.8383,-1.8621,-1.9056,-1.9088,-1.9108,-1.9108,-1.9108,-1.9098,-1.2037,-1.2307,-1.2722,-1.4542,-1.5001,0.0,0.0,-1.7266,-1.7619,-1.8129,-1.8531,0.0,0.0,0.0,0.0,0.0,0.0,0.0,0.0,0.0,0.0,0.0,0.0,0.0,0.0,0.0,0.0,0.0,0.0,0.0,0.0,0.0,0.0,0.0,0.0,-2.5605,-2.5322,-2.5322,-2.5185,-2.4922,-2.5185,-2.5176,-2.4865,-2.4865,-2.4865,-2.4912,-2.5194,-2.5493,-2.5894,-2.6131,-2.6445,-2.6784,-2.6784,-2.6592,-2.6215,-2.5851,-2.5561,-2.5254,-2.4814,-2.4385,-2.4004,-2.3838,-2.3496,-2.3091,-2.3091,-2.3091,-2.3042,-2.2779,-2.2508,-2.2349,-2.2467,-2.2119,-2.16,-2.1268,-2.1025,-2.0771,-2.0644,-2.0605,-2.0605,-2.0605,-2.0605,-2.0605,-2.0605,-1.9891,-1.9287,-1.9287,-1.8555,-1.8008,-1.8008,-1.8008,-1.8008,-1.8008,-1.8008,-1.7939,-1.7874,-1.7807,-1.7817,-1.7882,-1.7565,-1.7388,-1.7388,-1.7662,-1.7917,-1.808,-1.8311,-1.8601,-1.8908,-1.8908,-1.8975,-1.9108,-1.9108,-1.9108,-1.1996,-1.239,-1.2898,-1.4573,0.0,0.0,-1.7109,-1.7767,-1.836,-1.9072,-1.9707,0.0,0.0,0.0,0.0,0.0,0.0,0.0,0.0,0.0,0.0,0.0,0.0,0.0,0.0,0.0,0.0,0.0,0.0,0.0,0.0,0.0,0.0,0.0,0.0,0.0,-2.4983,-2.4884,-2.4639,-2.4219,-2.4521,-2.458,-2.4414,-2.4414,-2.4414,-2.4414,-2.4608,-2.4924,-2.5305,-2.5435,-2.5708,-2.6084,-2.5989,-2.5837,-2.5654,-2.531,-2.5051,-2.4805,-2.4365,-2.4033,-2.3769,-2.3633,-2.3379,-2.3091,-2.3091,-2.3003,-2.2838,-2.2512,-2.2113,-2.1816,-2.189,-2.1506,-2.1111,-2.1015,-2.0791,-2.0605,-2.0605,-2.0605,-2.0605,-2.0605,-2.0605,-2.0605,-2.0605,-1.9961,-1.9443,-1.9307,-1.8672,-1.812,-1.8027,-1.8008,-1.8008,-1.8008,-1.8008,-1.8008,-1.8008,-1.8144,-1.8202,-1.8202,-1.7714,-1.7484,-1.7622,-1.7913,-1.8074,-1.8074,-1.8365,-1.8583,-1.8707,-1.8774,-1.8875,-1.9008,-1.9075,-1.9108,-1.1913,-1.2586,-1.3235,0.0,0.0,0.0,-1.762,-1.7905,-1.8506,-2.0253,0.0,0.0,0.0,0.0,0.0,0.0,0.0,0.0,0.0,0.0,0.0,0.0,0.0,0.0,0.0,0.0,0.0,0.0,0.0,0.0,0.0,0.0,0.0,0.0,0.0,0.0,-2.4708,-2.4499,-2.4199,-2.3779,-2.3779,-2.4004,-2.4404,-2.4404,-2.4404,-2.4404,-2.4404,-2.4552,-2.4792,-2.4792,-2.494,-2.5178,-2.4894,-2.4802,-2.4756,-2.4506,-2.4414,-2.4346,-2.3935,-2.3779,-2.3711,-2.3237,-2.3091,-2.3091,-2.3091,-2.2789,-2.2467,-2.2254,-2.1553,-2.084,-2.0647,-2.0719,-2.0854,-2.0625,-2.0605,-2.0605,-2.0605,-2.0605,-2.0605,-2.0605,-2.0605,-2.0605,-2.0605,-2.0205,-1.9775,-1.9346,-1.8916,-1.8451,-1.8057,-1.8008,-1.8008,-1.8008,-1.8008,-1.8008,-1.8008,-1.8008,-1.8008,-1.8008,-1.8008,-1.8144,-1.8482,-1.8516,-1.8516,-1.8516,-1.8516,-1.8516,-1.8516,-1.8717,-1.8808,-1.8808,-1.8998,-1.9108,-1.1934,-1.2586,0.0,-1.5059,0.0,0.0,0.0,-1.8804,0.0,0.0,0.0,0.0,0.0,0.0,0.0,0.0,0.0,0.0,0.0,0.0,0.0,0.0,0.0,0.0,0.0,0.0,0.0,0.0,0.0,0.0,0.0,0.0,0.0,0.0,0.0,0.0,-2.419,-2.3869,-2.357,-2.3286,-2.3286,-2.3354,-2.3471,-2.3471,-2.3471,-2.3471,-2.3471,-2.3736,-2.414,-2.4389,-2.4562,-2.4608,-2.4562,-2.4516,-2.4477,-2.4127,-2.3975,-2.3916,-2.3477,-2.3286,-2.3266,-2.314,-2.2896,-2.2705,-2.2705,-2.2402,-2.197,-2.1443,-2.101,-2.0581,-2.0207,-2.0171,-2.0212,-2.0371,-2.0489,-2.0605,-2.0605,-2.0605,-2.0605,-2.0605,-2.0605,-2.0605,-2.0605,-2.0205,-1.9775,-1.9346,-1.8916,-1.8451,-1.8057,-1.7896,-1.7784,-1.7784,-1.7784,-1.7784,-1.7784,-1.794,-1.8008,-1.8008,-1.8008,-1.8042,-1.8144,-1.8144,-1.8144,-1.8144,-1.8144,-1.8212,-1.8371,-1.8405,-1.8573,-1.8808,-1.8875,-1.8975,-1.1923,-1.2764,0.0,-1.5277,-1.6382,-1.748,-1.8968,0.0,0.0,0.0,0.0,0.0,0.0,0.0,0.0,0.0,0.0,0.0,0.0,0.0,0.0,0.0,0.0,0.0,0.0,0.0,0.0,0.0,0.0,0.0,0.0,0.0,0.0,0.0,0.0,0.0,-2.3601,-2.329,-2.3133,-2.3091,-2.3091,-2.3091,-2.3091,-2.3091,-2.3091,-2.3091,-2.3091,-2.3247,-2.3555,-2.3799,-2.3861,-2.3861,-2.3861,-2.3861,-2.3832,-2.3623,-2.3525,-2.3496,-2.3188,-2.2984,-2.2847,-2.2847,-2.2607,-2.2266,-2.2266,-2.1963,-2.1491,-2.0926,-2.0573,-2.0224,-1.9899,-1.9824,-1.9981,-2.0225,-2.045,-2.0605,-2.0605,-2.0605,-2.0605,-2.0605,-2.0605,-2.0605,-2.0605,-2.039,-2.0029,-1.96,-1.8961,-1.8414,-1.8197,-1.7831,-1.7623,-1.7623,-1.7623,-1.7623,-1.7623,-1.7735,-1.7803,-1.7803,-1.7872,-1.7896,-1.7896,-1.7974,-1.8008,-1.8008,-1.8008,-1.8076,-1.8178,-1.8269,-1.8405,-1.8607,-1.864,-1.8751,-1.1849,0.0,0.0,-1.5339,0.0,0.0,0.0,0.0,0.0,0.0,0.0,0.0,0.0,0.0,0.0,0.0,0.0,0.0,0.0,0.0,0.0,0.0,0.0,0.0,0.0,0.0,0.0,0.0,0.0,0.0,0.0,0.0,0.0,0.0,0.0,0.0,-2.2957,-2.2828,-2.2882,0.0,-2.3101,-2.3091,-2.3091,-2.3091,-2.3091,-2.3091,-2.3091,-2.3091,-2.3091,-2.3091,-2.3091,-2.3091,-2.3091,-2.3091,-2.3091,-2.3091,-2.3071,-2.3042,-2.3042,-2.2769,-2.2461,-2.2461,-2.2168,-2.1826,-2.1826,-2.1523,-2.1052,-2.068,-2.0284,-1.9902,-1.9676,-1.9794,-1.9981,-2.0225,-2.045,-2.0605,-2.0605,-2.0605,-2.0605,-2.0605,-2.0605,-2.0605,-2.0605,-2.0605,-2.041,-1.9943,-1.9056,-1.8427,-1.8399,-1.7868,-1.7508,-1.747,-1.747,-1.7489,-1.7517,-1.7527,-1.758,-1.7618,-1.7737,-1.7797,-1.7797,-1.7944,-1.8008,-1.8008,-1.8008,-1.8008,-1.8008,-1.8178,-1.8269,-1.8303,-1.8414,-1.8482,-1.1471,-1.2702,0.0,0.0,0.0,0.0,0.0,0.0,0.0,0.0,0.0,0.0,0.0,0.0,0.0,0.0,0.0,0.0,0.0,0.0,0.0,0.0,0.0,0.0,0.0,0.0,0.0,0.0,0.0,0.0,0.0,0.0,0.0,0.0,0.0,-2.251,-2.2739,-2.2605,-2.2618,0.0,-2.3013,-2.3091,-2.3091,-2.3091,-2.3091,-2.3091,-2.3091,-2.3091,-2.3091,-2.3091,-2.3091,-2.3091,-2.3091,-2.3091,-2.3091,-2.3091,-2.2886,-2.2646,-2.2646,-2.2373,-2.2021,-2.2021,-2.1728,-2.1337,-2.1337,-2.1064,-2.0674,-2.0438,-2.0292,-2.0147,-1.9912,-2.002,-2.0225,-2.0303,-2.045,-2.0605,-2.0605,-2.0605,-2.0605,-2.0605,-2.0605,-2.0605,-2.0605,-2.0605,-2.0381,-1.9763,-1.9197,-1.8718,-1.824,-1.7903,-1.7619,-1.7317,-1.7279,-1.7376,-1.7722,-1.7882,-1.8095,-1.8436,-1.8455,-1.8482,-1.8482,-1.816,-1.8008,-1.8008,-1.8008,-1.8008,-1.8008,-1.8042,-1.8144,-1.8303,-1.8337,-1.8414,0.0,0.0,0.0,0.0,0.0,0.0,0.0,0.0,0.0,0.0,0.0,0.0,0.0,0.0,0.0,0.0,0.0,0.0,0.0,0.0,0.0,0.0,0.0,0.0,0.0,0.0,0.0,0.0,0.0,0.0,0.0,0.0,0.0,0.0,-2.2108,-2.2133,-2.2404,-2.2333,-2.2451,-2.2803,-2.2925,-2.3013,-2.3091,-2.3091,-2.3091,-2.3091,-2.3091,-2.3091,-2.3091,-2.3091,-2.3091,-2.3091,-2.3091,-2.3091,-2.3071,-2.2867,-2.2705,-2.248,-2.2285,-2.1934,-2.1572,-2.1572,-2.1269,-2.0918,-2.0918,-2.0752,-2.0566,-2.0342,-2.0303,-2.0264,-2.0147,-2.0186,-2.0303,-2.042,-2.0527,-2.0605,-2.0605,-2.0605,-2.0605,-2.0605,-2.0605,-2.0605,-2.0605,-2.0527,-2.0343,-2.0005,-1.9421,-1.8882,-1.8581,-1.8033,-1.7565,-1.7378,-1.735,-1.7443,-1.7629,-1.7941,-1.8192,-1.8415,-1.8489,-1.8573,-1.8573,-1.8402,-1.835,-1.835,-1.835,-1.835,-1.835,-1.835,-1.8456,-1.8658,-1.8658,-1.8728,0.0,0.0,-1.3276,0.0,0.0,0.0,0.0,0.0,0.0,0.0,0.0,0.0,0.0,0.0,0.0,0.0,0.0,0.0,0.0,0.0,0.0,0.0,0.0,0.0,0.0,0.0,0.0,0.0,0.0,0.0,0.0,0.0,-2.1696,-2.1696,-2.1696,-2.183,-2.2008,-2.2097,-2.2274,-2.2671,-2.2759,-2.2925,-2.3091,-2.3091,-2.3091,-2.3091,-2.3091,-2.3091,-2.3091,-2.3091,-2.3091,-2.3091,-2.3013,-2.2984,-2.2935,-2.2559,-2.2353,-2.2246,-2.1894,-2.1484,-2.1123,-2.1123,-2.0869,-2.0605,-2.0605,-2.0605,-2.0566,-2.042,-2.0342,-2.0342,-2.0342,-2.0342,-2.0381,-2.0566,-2.0566,-2.0566,-2.0605,-2.0605,-2.0605,-2.0605,-2.0605,-2.0605,-2.0566,-2.042,-2.0264,-2.0186,-1.9571,-1.9048,-1.8974,-1.823,-1.7678,-1.7614,-1.7605,-1.7633,-1.7697,-1.8027,-1.8219,-1.8283,-1.8471,-1.8574,-1.8574,-1.8704,-1.8789,-1.8789,-1.8722,-1.8693,-1.8693,-1.8693,-1.8794,-1.8931,-1.8931,-1.9041,0.0,0.0,0.0,0.0,0.0,0.0,0.0,0.0,0.0,0.0,0.0,0.0,0.0,0.0,0.0,0.0,0.0,0.0,0.0,0.0,0.0,0.0,0.0,0.0,0.0,0.0,0.0,0.0,0.0,0.0,0.0,-2.1696,-2.1696,-2.1696,-2.1696,-2.1741,-2.1731,-2.1963,-2.2141,-2.2185,-2.2627,-2.2925,-2.3091,-2.3091,-2.3091,-2.3091,-2.3091,-2.3091,-2.3091,-2.3091,-2.3091,-2.3062,-2.2744,-2.2598,-2.2549,-2.2129,-2.1728,-2.1356,-2.1298,-2.1025,-2.0693,-2.0693,-2.0654,-2.0605,-2.0605,-2.0605,-2.0605,-2.0566,-2.0566,-2.0566,-2.0566,-2.0566,-2.0566,-2.0605,-2.0459,-2.0381,-2.0566,-2.0605,-2.0605,-2.0605,-2.0605,-2.0527,-2.0381,-2.0303,-2.0147,-1.9754,-1.959,-1.9344,-1.8799,-1.8614,-1.8421,-1.8082,-1.7999,-1.8145,-1.8522,-1.8605,-1.8779,-1.9127,-1.9146,-1.9185,-1.9185,-1.9224,-1.9224,-1.9224,-1.8892,-1.8693,-1.8693,-1.8693,-1.873,-1.872,-1.872,-1.8757,-0.9351,0.0,0.0,0.0,0.0,0.0,0.0,0.0,0.0,0.0,0.0,0.0,0.0,0.0,0.0,0.0,0.0,0.0,0.0,0.0,0.0,0.0,0.0,0.0,0.0,0.0,0.0,0.0,0.0,0.0,-2.101,-2.101,-2.101,-2.101,-2.1273,-2.1339,-2.1339,-2.171,-2.2008,-2.2264,-2.2618,-2.2925,-2.3091,-2.2847,-2.2877,-2.3091,-2.3091,-2.2964,-2.274,-2.274,-2.2646,-2.2422,-2.2236,-2.2158,-2.2109,-2.168,-2.1356,-2.1161,-2.0947,-2.0732,-2.0605,-2.0605,-2.0605,-2.0605,-2.0605,-2.0605,-2.0566,-2.045,-2.0411,-2.042,-2.0255,-2.0216,-2.0216,-2.0216,-2.0137,-2.0108,-2.0177,-2.0216,-2.0216,-2.0216,-2.0216,-2.0177,-2.0098,-1.999,-1.9833,-1.9645,-1.9518,-1.9325,-1.9063,-1.8736,-1.8468,-1.8296,-1.8154,-1.8179,-1.835,-1.8575,-1.8782,-1.8953,-1.8962,-1.8962,-1.8962,-1.8962,-1.8962,-1.8962,-1.901,-1.9057,-1.9057,-1.9057,-1.9096,-1.9182,-1.9182,-1.9258,0.0,0.0,0.0,0.0,0.0,0.0,0.0,0.0,0.0,0.0,0.0,0.0,0.0,0.0,0.0,0.0,0.0,0.0,0.0,0.0,0.0,0.0,0.0,0.0,0.0,0.0,0.0,0.0,0.0,0.0,-2.0521,-2.0521,-2.0521,-2.0521,-2.0805,-2.0961,-2.0961,-2.1229,-2.1639,-2.2119,-2.2293,-2.252,-2.2769,-2.249,-2.2519,-2.2822,-2.2822,-2.2604,-2.2353,-2.2353,-2.2168,-2.1875,-2.1768,-2.1719,-2.167,-2.1221,-2.1064,-2.1016,-2.0644,-2.0527,-2.0489,-2.045,-2.0411,-2.0411,-2.0411,-2.0411,-2.0411,-2.0225,-2.0186,-2.0137,-1.9942,-1.9902,-1.9902,-1.9902,-1.9863,-1.9824,-1.9902,-1.9902,-1.9902,-1.9902,-1.9902,-1.9863,-1.9824,-1.9715,-1.9566,-1.9518,-1.939,-1.9262,-1.9231,-1.8819,-1.853,-1.85,-1.8335,-1.8239,-1.8239,-1.8523,-1.87,-1.87,-1.87,-1.87,-1.87,-1.87,-1.87,-1.87,-1.9002,-1.9152,-1.9152,-1.9192,-1.9311,-1.9448,-1.9518,-1.9587,0.0,0.0,0.0,0.0,0.0,0.0,0.0,0.0,0.0,0.0,0.0,0.0,0.0,0.0,0.0,0.0,0.0,0.0,0.0,0.0,0.0,0.0,0.0,0.0,0.0,0.0,0.0,0.0,0.0,0.0,-2.0521,-2.0521,-2.0521,-2.0521,-2.0539,-2.0549,-2.0549,-2.0525,-2.0796,-2.1248,-2.129,-2.1508,-2.1953,-2.1924,-2.1934,-2.1953,-2.1953,-2.1934,-2.1924,-2.1924,-2.1904,-2.1846,-2.1385,-2.1229,-2.1171,-2.0762,-2.0635,-2.0596,-2.0391,-2.0303,-2.0264,-2.002,-1.9942,-1.9942,-1.9942,-1.9942,-1.9942,-1.9902,-1.9902,-1.9902,-1.9902,-1.9902,-1.9902,-1.9902,-1.9754,-1.9676,-1.9863,-1.9902,-1.9902,-1.9902,-1.9902,-1.9824,-1.9645,-1.9606,-1.9557,-1.9341,-1.9301,-1.9231,-1.9033,-1.8984,-1.8895,-1.8705,-1.8674,-1.8665,-1.8665,-1.8692,-1.87,-1.87,-1.87,-1.87,-1.87,-1.87,-1.87,-1.87,-1.874,-1.874,-1.874,-1.8922,-1.9002,-1.9042,-1.9231,-1.9301,0.0,0.0,0.0,0.0,0.0,0.0,0.0,0.0,0.0,0.0,0.0,0.0,0.0,0.0,0.0,0.0,0.0,0.0,0.0,0.0,0.0,0.0,0.0,0.0,0.0,0.0,0.0,0.0,0.0,0.0,-1.9732,-1.9732,-1.9732,-1.9732,-1.9998,-2.0223,-2.0521,-2.0521,-2.0731,-2.1182,-2.1182,-2.1441,-2.1875,-2.1592,-2.1465,-2.1455,-2.1162,-2.1201,-2.1465,-2.1465,-2.1299,-2.1065,-2.0869,-2.0732,-2.0594,-2.0479,-2.0294,-2.0137,-2.0059,-2.002,-2.0029,-1.9942,-1.9902,-1.9902,-1.9902,-1.9902,-1.9863,-1.9754,-1.9715,-1.9676,-1.9548,-1.9499,-1.9499,-1.9499,-1.9469,-1.9429,-1.9499,-1.9499,-1.9499,-1.9499,-1.9499,-1.9499,-1.9429,-1.9429,-1.9381,-1.9301,-1.9183,-1.9073,-1.9002,-1.8754,-1.8603,-1.8523,-1.8362,-1.8241,-1.8241,-1.8241,-1.8241,-1.8241,-1.8241,-1.8241,-1.8241,-1.8241,-1.8241,-1.8241,-1.8241,-1.8411,-1.87,-1.8772,-1.8812,-1.8812,-1.8891,-1.8962,-0.6892,0.0,0.0,0.0,0.0,0.0,0.0,0.0,0.0,0.0,0.0,0.0,0.0,0.0,0.0,0.0,0.0,0.0,0.0,0.0,0.0,0.0,0.0,0.0,0.0,0.0,0.0,0.0,0.0,0.0,-1.8904,-1.8904,-1.9006,-1.9183,-1.9536,-1.9842,-2.0108,-2.0108,-2.0273,-2.0643,-2.0724,-2.0979,-2.1354,-2.1103,-2.1016,-2.0996,-2.0732,-2.0732,-2.1016,-2.1016,-2.08,-2.0489,-2.0489,-2.0372,-2.0186,-2.0186,-2.0059,-1.9902,-1.9824,-1.9794,-1.9784,-1.9706,-1.9706,-1.9706,-1.9706,-1.9706,-1.9666,-1.9557,-1.9518,-1.9469,-1.9341,-1.9301,-1.9301,-1.9301,-1.9301,-1.9301,-1.9301,-1.9301,-1.9301,-1.9301,-1.9301,-1.9301,-1.9301,-1.9222,-1.9192,-1.9192,-1.9042,-1.8882,-1.8803,-1.8563,-1.8362,-1.8282,-1.8121,-1.8,-1.8,-1.8,-1.8,-1.8,-1.8,-1.8,-1.8,-1.8,-1.8,-1.8,-1.8,-1.8161,-1.8451,-1.8571,-1.8612,-1.8612,-1.866,-1.8812,0.0,0.0,0.0,0.0,0.0,0.0,0.0,0.0,0.0,0.0,0.0,0.0,0.0,0.0,0.0,0.0,0.0,0.0,0.0,0.0,0.0,0.0,0.0,0.0,0.0,0.0,0.0,0.0,0.0,-1.808,-1.808,-1.808,-1.8365,-1.8957,-1.9164,-1.9283,-1.9283,-1.9292,-1.939,-1.9606,-1.9794,-2.0029,-2.0303,-2.0489,-2.0566,-2.0566,-2.0566,-2.0566,-2.0566,-2.0605,-2.045,-2.0303,-2.0303,-2.0147,-1.9902,-1.9902,-1.9902,-1.9863,-1.9676,-1.9597,-1.9557,-1.9341,-1.9301,-1.9301,-1.9301,-1.9301,-1.9301,-1.9301,-1.9301,-1.9301,-1.9262,-1.9262,-1.9262,-1.9262,-1.9262,-1.9262,-1.9262,-1.9262,-1.9262,-1.9301,-1.9301,-1.9301,-1.9262,-1.9112,-1.9002,-1.9002,-1.8812,-1.8612,-1.8442,-1.8393,-1.8282,-1.804,-1.8,-1.8,-1.8,-1.8,-1.8,-1.8,-1.8,-1.8,-1.8,-1.8,-1.8,-1.8,-1.8,-1.8,-1.8,-1.8282,-1.8402,-1.8393,-1.8612,-1.8812,-0.6997,0.0,0.0,0.0,0.0,0.0,0.0,0.0,0.0,0.0,0.0,0.0,0.0,0.0,0.0,0.0,0.0,0.0,0.0,0.0,0.0,0.0,0.0,0.0,0.0,0.0,0.0,0.0,-1.7667,-1.7727,-1.7727,-1.7727,-1.7848,-1.8127,-1.8484,-1.8706,-1.8871,-1.9155,-1.939,-1.9606,-1.9676,-1.9794,-2.002,-2.0059,-2.0098,-2.0098,-2.0098,-2.0098,-2.0098,-2.0294,-2.0225,-2.002,-2.002,-1.9872,-1.9676,-1.9676,-1.9597,-1.946,-1.939,-1.9381,-1.939,-1.9301,-1.9301,-1.9301,-1.9301,-1.9301,-1.9301,-1.9301,-1.9192,-1.9042,-1.8882,-1.8851,-1.8851,-1.8851,-1.8851,-1.8851,-1.8851,-1.8851,-1.8922,-1.9033,-1.9073,-1.9042,-1.8882,-1.8812,-1.8772,-1.8772,-1.8612,-1.8442,-1.8402,-1.8233,-1.808,-1.8,-1.8,-1.8,-1.8,-1.8,-1.8,-1.8,-1.8,-1.8,-1.8,-1.8,-1.8,-1.8,-1.8,-1.8,-1.8,-1.8072,-1.8112,-1.8121,-1.8362,-1.8523,0.0,0.0,0.0,0.0,0.0,0.0,0.0,-1.0356,0.0,0.0,0.0,0.0,0.0,0.0,0.0,0.0,0.0,0.0,0.0,0.0,0.0,0.0,0.0,0.0,0.0,0.0,0.0,0.0,-1.7072,-1.7059,-1.7059,-1.7142,-1.7324,-1.7532,-1.7943,-1.8303,-1.8581,-1.8896,-1.9185,-1.9478,-1.9557,-1.9676,-1.9794,-1.9863,-1.9902,-1.9902,-1.9902,-1.9863,-1.9794,-1.9951,-1.9912,-1.9784,-1.9784,-1.9636,-1.9469,-1.9469,-1.935,-1.9183,-1.9183,-1.9112,-1.9042,-1.9042,-1.9042,-1.9042,-1.9042,-1.9042,-1.9042,-1.9042,-1.8962,-1.8851,-1.874,-1.87,-1.87,-1.87,-1.87,-1.87,-1.87,-1.87,-1.874,-1.8851,-1.8882,-1.8851,-1.874,-1.8612,-1.8571,-1.8571,-1.8362,-1.8193,-1.8112,-1.7991,-1.7829,-1.7757,-1.7757,-1.7757,-1.7757,-1.7757,-1.7757,-1.7757,-1.7757,-1.7757,-1.7757,-1.7829,-1.787,-1.787,-1.7951,-1.8,-1.8,-1.8,-1.8,-1.8,-1.8161,-1.8273,0.0,0.0,0.0,0.0,0.0,0.0,-0.8751,-0.9588,-1.0352,0.0,0.0,0.0,0.0,0.0,0.0,0.0,0.0,0.0,0.0,0.0,0.0,0.0,0.0,0.0,0.0,0.0,-1.667,-1.667,-1.6342,-1.6171,-1.6171,-1.6449,-1.6741,-1.7064,-1.7489,-1.7929,-1.8317,-1.8563,-1.8907,-1.9301,-1.9478,-1.9557,-1.9557,-1.9745,-1.9824,-1.9824,-1.9824,-1.9745,-1.9557,-1.9557,-1.9557,-1.9557,-1.9557,-1.9478,-1.9301,-1.9262,-1.9152,-1.9002,-1.8962,-1.8851,-1.87,-1.87,-1.87,-1.87,-1.87,-1.87,-1.87,-1.866,-1.866,-1.8652,-1.862,-1.8612,-1.8612,-1.8612,-1.8612,-1.8612,-1.8612,-1.8612,-1.8612,-1.8612,-1.866,-1.866,-1.862,-1.8482,-1.8353,-1.8313,-1.8112,-1.787,-1.77,-1.7659,-1.7587,-1.7432,-1.7392,-1.7392,-1.7392,-1.7392,-1.7392,-1.7392,-1.7392,-1.7392,-1.7392,-1.7587,-1.7659,-1.77,-1.791,-1.8,-1.8,-1.8,-1.8,-1.8,-1.8,-1.8121,0.0,0.0,0.0,0.0,0.0,0.0,-0.9109,-0.9047,-0.9004,0.0,0.0,0.0,0.0,0.0,0.0,0.0,0.0,0.0,0.0,0.0,0.0,0.0,0.0,0.0,0.0,0.0,-1.512,-1.512,-1.5317,-1.5394,-1.5394,-1.5772,-1.6085,-1.6324,-1.6874,-1.7413,-1.7911,-1.8435,-1.8907,-1.9301,-1.9341,-1.9341,-1.9341,-1.9381,-1.942,-1.942,-1.942,-1.9381,-1.9341,-1.9341,-1.9341,-1.9341,-1.9341,-1.9341,-1.9262,-1.9112,-1.9042,-1.8962,-1.8812,-1.874,-1.87,-1.87,-1.87,-1.87,-1.87,-1.87,-1.866,-1.8482,-1.8442,-1.8402,-1.8201,-1.8121,-1.8121,-1.8121,-1.8121,-1.8121,-1.8121,-1.8121,-1.8121,-1.8121,-1.8322,-1.8402,-1.8161,-1.8121,-1.8031,-1.7861,-1.7781,-1.77,-1.7473,-1.7473,-1.7432,-1.7392,-1.7392,-1.7392,-1.7392,-1.7392,-1.7392,-1.7392,-1.7392,-1.7392,-1.7392,-1.7432,-1.7546,-1.77,-1.791,-1.8,-1.8,-1.8,-1.8,-1.8,-1.8,-1.804,0.0,0.0,0.0,-0.9413,0.0,0.0,0.0,-0.8961,-0.8806,0.0,0.0,0.0,0.0,0.0,0.0,0.0,0.0,0.0,0.0,0.0,0.0,0.0,0.0,0.0,0.0,0.0,-1.447,-1.4667,-1.4846,-1.4949,-1.4949,-1.53,-1.554,-1.5636,-1.6254,-1.6821,-1.7349,-1.7939,-1.849,-1.9008,-1.9201,-1.9301,-1.9301,-1.9301,-1.9301,-1.9301,-1.9301,-1.9301,-1.9301,-1.9301,-1.9301,-1.9301,-1.9301,-1.9301,-1.9262,-1.9073,-1.8922,-1.8812,-1.8612,-1.8442,-1.8371,-1.8371,-1.8371,-1.8371,-1.8371,-1.8371,-1.8331,-1.8241,-1.8201,-1.8161,-1.8031,-1.8,-1.8,-1.8,-1.8,-1.8,-1.8,-1.791,-1.787,-1.787,-1.787,-1.7878,-1.787,-1.787,-1.7781,-1.7587,-1.7546,-1.7465,-1.727,-1.7261,-1.7188,-1.7066,-1.7066,-1.7066,-1.7066,-1.7066,-1.7147,-1.7333,-1.7341,-1.7414,-1.7584,-1.7718,-1.7844,-1.8037,-1.8163,-1.8263,-1.8397,-1.8397,-1.8243,-1.8,-1.8,-1.8,0.0,0.0,0.0,0.0,0.0,-0.9232,0.0,0.0,0.0,-0.8906,0.0,0.0,0.0,0.0,0.0,0.0,0.0,0.0,0.0,0.0,0.0,0.0,0.0,0.0,0.0,0.0,-1.3905,-1.4221,-1.4348,-1.4384,-1.4453,-1.4804,-1.506,-1.5206,-1.5722,-1.6281,-1.6909,-1.7413,-1.805,-1.8715,-1.9036,-1.9228,-1.9301,-1.9301,-1.9301,-1.9301,-1.9301,-1.9301,-1.9301,-1.9301,-1.9301,-1.9301,-1.9301,-1.9301,-1.9262,-1.9073,-1.8882,-1.866,-1.8482,-1.8241,-1.8,-1.8,-1.8,-1.8,-1.8,-1.8,-1.8,-1.8,-1.8,-1.8,-1.8,-1.8,-1.8,-1.8,-1.8,-1.7991,-1.7951,-1.7821,-1.7716,-1.7711,-1.7613,-1.7515,-1.7635,-1.7619,-1.7578,-1.7392,-1.7351,-1.727,-1.7057,-1.7017,-1.6935,-1.673,-1.6689,-1.6689,-1.6689,-1.6753,-1.6969,-1.7262,-1.7376,-1.7536,-1.7806,-1.7996,-1.817,-1.8327,-1.837,-1.8508,-1.874,-1.874,-1.8558,-1.8213,-1.8213,-1.8213,0.0,0.0,0.0,0.0,-1.0085,0.0,0.0,0.0,-0.8896,-0.8541,0.0,0.0,0.0,0.0,0.0,0.0,0.0,0.0,0.0,0.0,0.0,0.0,0.0,0.0,0.0,0.0,0.0,-1.2646,-1.3,-1.3305,-1.3622,-1.4016,-1.453,-1.5197,-1.5436,-1.6018,-1.7,-1.7162,-1.7741,-1.8715,-1.876,-1.8962,-1.9301,-1.9301,-1.9301,-1.9301,-1.9301,-1.9301,-1.9301,-1.9301,-1.9301,-1.9301,-1.9301,-1.9301,-1.9262,-1.9073,-1.8882,-1.866,-1.8482,-1.8241,-1.8,-1.8,-1.8,-1.8,-1.8,-1.8,-1.8,-1.8,-1.8,-1.8,-1.8,-1.8,-1.8,-1.8,-1.8,-1.7951,-1.7781,-1.774,-1.7719,-1.7854,-1.7879,-1.778,-1.749,-1.7432,-1.7392,-1.718,-1.7139,-1.7057,-1.6771,-1.6738,-1.673,-1.6689,-1.6689,-1.6689,-1.6689,-1.7032,-1.7231,-1.7321,-1.7591,-1.7775,-1.7814,-1.7996,-1.8127,-1.8127,-1.8335,-1.8413,-1.8456,-1.8456,-1.8639,-1.9042,-1.9042,-1.9042,0.0,0.0,0.0,0.0,0.0,0.0,0.0,0.0,-0.9299,0.0,0.0,0.0,0.0,0.0,0.0,0.0,0.0,0.0,0.0,0.0,0.0,0.0,0.0,0.0,0.0,0.0,0.0,0.0,0.0,-1.2558,-1.2843,-1.3425,-1.3896,-1.4213,-1.4939,-1.5652,-1.6314,-1.6813,-1.7388,-1.8009,-1.8256,-1.8458,-1.8614,-1.8614,-1.8614,-1.8614,-1.8614,-1.8614,-1.8641,-1.8871,-1.8962,-1.8981,-1.921,-1.9301,-1.9262,-1.9073,-1.8962,-1.8843,-1.8523,-1.8322,-1.8201,-1.8031,-1.8,-1.8,-1.8,-1.8,-1.8,-1.8,-1.8,-1.8,-1.8,-1.8,-1.7951,-1.787,-1.7829,-1.7789,-1.7587,-1.7424,-1.745,-1.7695,-1.765,-1.7582,-1.7623,-1.7553,-1.7456,-1.7257,-1.703,-1.6812,-1.6689,-1.6689,-1.6689,-1.6689,-1.6921,-1.7048,-1.7048,-1.7366,-1.7652,-1.7858,-1.8192,-1.8383,-1.8383,-1.8481,-1.8526,-1.8526,-1.8607,-1.8697,-1.8868,-1.8868,-1.9056,-1.9421,-1.8933,-1.8818,-1.212,0.0,0.0,0.0,0.0,0.0,0.0,0.0,0.0,0.0,0.0,0.0,0.0,0.0,0.0,0.0,0.0,0.0,0.0,0.0,0.0,0.0,0.0,0.0,0.0,0.0,0.0,0.0,-1.1599,0.0,-1.2109,-1.2623,-1.3141,-1.3563,-1.438,-1.5131,-1.5858,-1.6429,-1.7,-1.7495,-1.7807,-1.7972,-1.8091,-1.8091,-1.8091,-1.8091,-1.8091,-1.8091,-1.8109,-1.844,-1.8614,-1.8742,-1.9026,-1.9201,-1.9262,-1.9152,-1.9042,-1.8962,-1.8683,-1.8474,-1.8362,-1.808,-1.8,-1.8,-1.8,-1.8,-1.8,-1.8,-1.8,-1.8,-1.8,-1.8,-1.7951,-1.774,-1.77,-1.7619,-1.7383,-1.718,-1.7187,-1.7564,-1.7533,-1.7548,-1.7949,-1.7778,-1.7578,-1.7337,-1.7048,-1.6808,-1.6705,-1.6689,-1.6729,-1.6832,-1.7119,-1.7318,-1.7328,-1.7636,-1.7932,-1.8242,-1.8455,-1.8596,-1.8596,-1.8596,-1.8596,-1.8596,-1.8689,-1.8835,-1.9012,-1.905,-1.9196,-1.9379,-1.8929,-1.8814,0.0,0.0,0.0,-1.1277,0.0,0.0,0.0,0.0,-1.0137,0.0,0.0,0.0,0.0,0.0,0.0,-0.781,0.0,0.0,0.0,0.0,0.0,0.0,0.0,0.0,0.0,0.0,0.0,-1.0552,-1.0552,0.0,-1.1401,-1.1462,-1.2191,-1.3747,-1.3834,-1.455,-1.5983,-1.6019,-1.6519,-1.7495,-1.7513,-1.7734,-1.8091,-1.8091,-1.8091,-1.8091,-1.8091,-1.8091,-1.8091,-1.81,-1.8329,-1.8715,-1.8724,-1.8962,-1.9301,-1.9301,-1.9152,-1.9002,-1.9002,-1.8723,-1.8362,-1.808,-1.8,-1.8,-1.8,-1.8,-1.8,-1.8,-1.8,-1.8,-1.8,-1.8,-1.7951,-1.774,-1.77,-1.7578,-1.7212,-1.7098,-1.7219,-1.7706,-1.7798,-1.7941,-1.8417,-1.809,-1.7687,-1.7368,-1.727,-1.7135,-1.6737,-1.6689,-1.6873,-1.7223,-1.727,-1.7328,-1.7391,-1.7689,-1.794,-1.8095,-1.8125,-1.8133,-1.8133,-1.8133,-1.8133,-1.8133,-1.8381,-1.8527,-1.8527,-1.8697,-1.8827,-1.8827,-1.9325,-1.9554,0.0,0.0,-1.2024,-1.1439,0.0,0.0,0.0,0.0,0.0,0.0,0.0,0.0,0.0,0.0,-0.817,-0.7846,-0.747,0.0,0.0,0.0,0.0,0.0,0.0,0.0,0.0,0.0,0.0,-0.9813,-0.9828,-1.0125,0.0,-1.1279,-1.1895,-1.2721,-1.3523,-1.436,-1.5273,-1.5764,-1.6238,-1.6716,-1.6982,-1.7174,-1.7321,-1.7321,-1.7321,-1.7321,-1.7321,-1.7321,-1.7339,-1.7596,-1.7789,-1.7963,-1.8504,-1.8788,-1.8944,-1.9201,-1.9262,-1.9152,-1.8882,-1.8652,-1.8362,-1.808,-1.8,-1.8,-1.8,-1.8,-1.8,-1.8,-1.8,-1.8,-1.8,-1.8,-1.7919,-1.7595,-1.7505,-1.7383,-1.6935,-1.6853,-1.6956,-1.7392,-1.7663,-1.7878,-1.8045,-1.8168,-1.8096,-1.7567,-1.7283,-1.7054,-1.6931,-1.6923,-1.6962,-1.7085,-1.7337,-1.7515,-1.7534,-1.7857,-1.8057,-1.8079,-1.8087,-1.8087,-1.8087,-1.8087,-1.8087,-1.8087,-1.8187,-1.8234,-1.8234,-1.8319,-1.8319,-1.8319,-1.8504,-1.8881,-1.3225,-1.2869,0.0,-1.1903,-1.1451,0.0,-1.0821,0.0,0.0,0.0,0.0,0.0,0.0,0.0,0.0,-0.8117,-0.7689,-0.7369,0.0,-0.7196,0.0,0.0,0.0,0.0,0.0,0.0,-0.8683,-0.9111,-0.9284,-0.9587,0.0,0.0,-1.1516,-1.2084,-1.3145,-1.4037,-1.476,-1.5382,-1.5887,-1.6288,-1.6578,-1.6771,-1.6908,-1.6908,-1.6908,-1.6908,-1.6908,-1.6908,-1.6927,-1.7183,-1.7367,-1.755,-1.8073,-1.8458,-1.876,-1.9155,-1.9301,-1.9262,-1.8922,-1.8692,-1.8482,-1.8241,-1.808,-1.8,-1.8,-1.8,-1.8,-1.8,-1.8,-1.8,-1.8,-1.8,-1.7919,-1.7514,-1.7392,-1.727,-1.682,-1.6689,-1.68,-1.7207,-1.7591,-1.7794,-1.7792,-1.8102,-1.8172,-1.7674,-1.74,-1.718,-1.7014,-1.6999,-1.7045,-1.7203,-1.7453,-1.7629,-1.7614,-1.7772,-1.78,-1.78,-1.78,-1.78,-1.78,-1.78,-1.78,-1.78,-1.79,-1.7947,-1.7947,-1.804,-1.8087,-1.8087,-1.8087,-1.8357]}]]